GFSNW_prec_radar_000.txt.gz
Reflectivity
-20 -20 -20 -20 -20 -20 -20 -20 -20 -20 -20 -20 -20 -20 -20 -20 -20 -20 -20 -10 -18 6 22 -4 -19 -20 -5 -17 -20 -20 -20 -20 -20 -20 -20 -20 -20 -20 -20 -20 -20 -20 -20 -20
-20 -20 -20 -20 -20 -20 -20 -20 -20 -20 -20 -20 -20 -20 -20 -20 -20 -20 -20 -20 -20 -20 -20 -20 -20 -20 -20 -20 6 -10 -19 -20 -20 -20 -20 -20 -20 -20 -20 -20 -20 -20 -20 -20
-20 -20 -20 -20 -20 -20 -20 -20 -20 -20 -20 -20 -20 -20 -20 -20 -20 -20 -20 -20 -20 -20 -20 -20 -20 -20 -20 -20 -20 -20 -20 -20 -20 -20 -20 -20 -20 -20 -20 -20 -20 -20 -20 -20
-20 -20 -20 -20 -20 -20 -20 -20 -20 -20 -20 -20 -20 -20 -20 -20 -20 -20 -20 -20 -20 -20 -20 -20 -20 -20 -20 -20 -20 -20 -20 -20 -20 -20 -20 -20 -20 -20 -20 -20 -20 -20 -17 -20
-20 -20 -20 -20 -20 -20 -20 -20 -20 -20 -20 -20 -20 -20 -20 -20 -20 -20 -20 -20 -20 -20 -20 -20 -20 -20 -20 -20 -20 -20 -20 -20 -20 -20 -20 -20 -20 -20 -20 -20 -20 -20 -20 -20
-20 -20 -20 -20 -20 -20 -20 -20 -20 -20 -20 -20 -20 -20 -20 -20 -20 -20 -20 -20 -20 -20 -20 -20 -20 -20 -20 -20 -20 -20 -20 -20 -20 -20 -20 -20 -20 -20 -20 -20 -20 -20 -20 -20
-13 -20 -20 -20 -20 -20 -20 -20 -20 -20 -20 -20 -20 -20 -20 -20 -20 -20 -20 -20 -20 -20 -20 -20 -20 -20 -20 -20 -20 -20 -20 -20 -20 -20 -20 -20 -20 -20 -20 -20 -20 -20 -20 -20
-9 -11 -20 -20 -20 -20 -20 -20 -20 -20 -20 -20 -20 -20 -20 -20 -20 -20 -20 -20 -20 -20 -20 -20 -20 -20 -20 -20 -20 -20 -20 -20 -20 -20 -20 -20 -20 -20 -20 -20 -20 -20 -20 -20
-3 1 -7 -20 -20 -20 -20 -20 -20 -20 -20 -20 -20 -20 -20 -20 -20 -20 -20 -20 -20 -20 -18 -20 -20 -20 -20 -20 -20 -20 -20 -20 -20 -20 -20 -20 -20 -20 -20 -20 -20 -20 -20 -20
1 -12 -18 5 -15 -20 -20 -20 -20 -20 -20 -20 -20 -20 -20 -20 -20 -20 -20 -20 -20 -20 -20 -20 -20 -20 -20 -20 -20 -20 -20 -20 -20 -20 -20 -20 -20 -20 -20 -20 -20 -20 -20 -20
10 5 -20 -2 -9 -20 -20 -20 -20 -20 -20 -20 -20 -20 -20 -20 -16 -20 -20 -20 -20 -20 -20 -20 -20 -20 -20 -20 -20 -20 -20 -20 -20 -20 -20 -20 -20 -20 -20 -20 -20 -20 -20 -20
13 12 -4 -18 -16 -7 -18 -19 -20 -20 -20 -20 -20 -20 -20 -20 -20 -20 -19 -20 -20 -20 -20 -20 -20 -20 -20 -20 -20 -20 -20 -20 -20 -20 -20 -20 -20 -20 -20 -20 -20 -20 -20 -20
9 13 8 -20 -20 3 -0 -18 -18 -20 -20 -20 -20 -20 -20 -20 -20 -20 -20 -20 -20 -20 -20 -20 -20 -20 -20 -20 -20 -20 -20 -20 -20 -20 -20 -20 -20 -20 -20 -20 -20 -20 -20 -20
-20 2 11 7 -20 5 8 -20 -19 -16 -20 -20 -20 -20 -20 -20 -20 -20 -20 -20 -20 -20 -20 -16 -20 -20 -20 -20 -20 -20 -20 -20 -20 -20 -20 -20 -20 -20 -20 -20 -20 -20 -20 -20
12 -17 -8 11 11 -6 -1 -20 -16 4 -20 -15 -7 -20 -20 -20 -20 -20 -20 -20 -20 -20 -20 -20 -20 -14 15 -20 -20 -20 -20 -20 -20 -20 -20 -20 -20 -20 -20 -20 -20 -20 -20 -20
9 13 -17 -20 4 9 -3 4 -0 22 18 -3 1 -20 -20 -20 -20 -20 -20 -20 -20 -20 -20 -3 5 -3 -14 2 -2 -20 -20 -20 -20 -20 -20 -20 -20 -20 -20 -20 -20 -20 -20 -20
12 9 10 10 -5 -11 -16 5 5 11 22 23 -6 2 -9 -20 -20 -20 -20 -20 -17 -16 13 -2 7 2 9 13 -12 -20 -20 -20 -20 -20 -20 -20 -20 -20 -20 -20 -20 -20 -20 -20
-3 12 15 1 7 4 -0 -7 -9 11 11 13 5 -18 -20 -20 -0 -9 -1 9 11 15 15 2 -6 -16 -3 -19 -20 -20 -20 -20 -20 -20 -20 -20 -20 -20 -20 -20 -20 -20 -20 -20
-12 11 15 5 -19 -20 -20 -19 6 7 12 -16 -10 -18 -12 -20 -2 1 -2 -9 4 -6 -14 -16 -19 -6 -20 -20 -20 -20 -20 -20 -20 -20 -20 -20 -20 -20 -20 -20 -20 -20 -20 -20
13 1 -19 -20 -20 -20 -20 -20 -20 -20 -1 -5 -17 2 -5 -18 -20 -20 -20 -20 -20 -20 2 -19 -17 -20 -20 -7 -3 -20 -20 -20 -20 -20 -20 -20 -20 -20 -20 -20 -20 -20 -20 -20
-6 -20 -20 -20 -6 -17 -20 -20 -20 -20 -20 -20 -8 4 16 -8 -20 -20 -20 -6 18 -7 -14 -19 -5 -20 -19 2 -12 -17 -20 -20 -20 -20 -20 -20 -20 -20 -20 -20 -20 -20 -20 -20
17 16 11 -17 -8 -20 -20 -20 -20 -20 -2 -16 -5 3 10 2 -17 -20 -20 -20 3 -20 -20 -16 -20 -15 -7 -11 -19 -20 -20 -20 -20 -20 -20 -20 -20 -20 -20 -20 -20 -20 -20 -20
6 -16 -20 -20 -20 -20 -20 -19 -3 -1 12 -0 -11 -14 -16 -17 -16 -15 -16 -20 -20 -20 -20 -20 -15 -14 -19 -20 -20 -20 -20 -20 -20 -20 -20 -20 -20 -20 -20 -20 -20 -20 -20 -20
-7 -20 -20 -20 -6 -20 -20 -20 -20 -7 4 0 -9 -20 -20 -20 -20 -19 -20 -2 -20 -20 -20 -16 -15 -20 -20 -20 -20 -20 -20 -20 -20 -20 -20 -20 -20 -20 -20 -20 -20 -20 -20 -20
-17 -20 -20 -20 -20 -20 -20 -20 -20 -19 -20 -20 -20 -20 -20 -20 -20 -20 -20 -8 -20 -20 -18 -20 -20 -20 -20 -20 -20 -20 -20 -20 -20 -20 -20 -20 -20 -20 -20 -20 -20 -20 -20 -20
-20 -20 -18 -20 -20 -20 -20 1 -13 -20 -20 -20 -20 -20 -20 -20 -20 -3 -20 -20 -20 0 -6 -20 -20 -20 -20 -20 -20 -20 -20 -20 -20 -20 -20 -20 -20 -20 -20 -20 -20 -20 -20 -20
-2 -10 -20 -20 -20 -20 -20 -20 -7 -19 -20 -20 -20 -20 -20 -20 -20 -20 -20 -20 -17 -20 -20 -20 -20 -20 -20 -20 -20 -20 -20 -20 -20 -20 -20 -20 -20 -20 -20 -20 -20 -20 -20 -20

GFSNW_prec_radar_003.txt.gz
Reflectivity
-20 -20 -20 -20 -20 -20 -20 -20 -20 -20 -20 -20 -20 -20 -20 -4 29 18 25 17 15 10 3 -5 8 11 -3 -18 -20 -20 -20 -20 -20 -20 -20 -20 -20 -20 -20 -20 -20 -20 -20 -20
-20 -20 -20 -20 -20 -20 -20 -20 -20 -20 -20 -20 -20 -20 -20 -20 -3 26 9 2 5 -20 -9 -17 1 -16 -2 1 -20 -20 -15 -19 -20 -20 -20 -20 -20 -20 -20 -20 -20 -20 -20 -20
-20 -20 -20 -20 -20 -20 -20 -20 -20 -20 -20 -20 -20 -20 -20 -20 -20 -20 -20 -20 -20 -20 -17 -8 -14 -20 -20 -16 -1 -13 -20 -20 -20 -20 -20 -20 -20 -20 -20 -20 -20 -20 -20 -20
-20 -20 -20 -20 -20 -20 -20 -20 -20 -20 -20 -20 -20 -20 -20 -20 -20 -20 -20 -20 -20 -20 -20 -14 -13 -20 -4 -11 -20 -9 -20 -16 -3 -19 -20 -20 -20 -20 -20 -20 -20 -20 -20 -20
5 -20 -20 -20 -20 -20 -20 -20 -20 -20 -20 -20 -20 -20 -20 -20 -18 7 -20 -17 -20 -20 -4 4 -18 -20 -20 -19 -20 -20 -20 -20 -20 -20 -20 -20 -20 -20 -20 -20 -20 -20 -20 -20
-13 -20 -20 -20 -20 -20 -20 -20 -20 -20 -20 -20 -20 -20 -20 -20 -20 -1 6 2 -20 -20 -20 -19 0 3 -13 -15 -19 -20 -20 -20 -20 -20 -20 -20 -7 -20 -20 -20 -20 -20 -20 -20
-20 -20 -20 -20 -20 -20 -20 -20 -20 -20 -20 -20 -20 -20 -20 -20 -20 -20 -20 -18 -20 -20 -20 -20 -20 -20 -20 -20 -20 -20 -20 -20 -20 -20 -20 -20 -20 -20 -20 -20 -20 -20 -20 -20
-3 -20 -20 -20 -20 -20 -20 -20 -20 -20 -20 -20 -20 -20 -20 -20 -20 -20 -20 -20 -20 -20 -20 -20 -20 -20 -20 -20 -20 -20 -20 -20 -20 -20 -20 -20 -20 -20 -20 -20 -20 -20 -20 -20
8 -20 -1 -0 -20 -20 -20 -20 -20 -20 -20 -20 -20 -20 -20 -20 -20 -20 -20 -20 -20 -20 -20 -20 -20 -20 -20 -20 -20 -20 -20 -20 -20 -20 -20 -20 -20 -20 -20 -20 -20 -20 -20 -20
-16 -10 -20 -6 -20 -20 -20 -20 -20 -20 -20 -20 -20 -20 -20 -20 -20 -20 -20 -20 -20 -20 -20 -20 -20 -20 -20 -20 -20 -20 -20 -20 -20 -20 -20 -20 -20 -20 -20 -20 -20 -20 -20 -20
-13 -11 -11 -13 -10 -20 -20 -20 -20 -20 -20 -20 -20 -20 -20 -20 -20 -20 -20 -20 -18 -12 -20 -20 -20 -20 -20 -20 -20 -20 -20 -20 -20 -20 -20 -20 -20 -20 -20 -20 -20 -20 -20 -20
-18 -7 2 -20 -20 -20 -20 -20 -20 -20 -20 -20 -20 -20 -20 -20 -20 -20 -20 -20 -20 -20 -20 -20 -20 -20 -20 -20 -20 -20 -20 -20 -20 -20 -20 -20 -20 -20 -20 -20 -20 -20 -20 -20
-20 -20 -20 12 -13 -20 -20 -20 -20 -20 -20 -20 -20 -20 -20 -20 -20 -20 -20 -20 -20 -20 -20 -20 -20 -20 -20 -20 -20 -20 -20 -20 -20 -20 -20 -20 -20 -20 -20 -20 -20 -20 -20 -20
-20 -20 -20 -20 -8 -20 10 -20 -20 -4 -20 -20 -20 -20 -20 -20 -20 -20 -20 -20 -20 -20 -20 -20 -20 -20 -20 -20 -20 -20 -20 -20 -20 -20 -20 -20 -20 -20 -20 -20 -20 -20 -20 -20
-16 -7 -20 -20 -20 -7 -11 -20 -6 -20 -20 -20 -20 -20 -20 -20 -20 -20 -20 -14 -3 -9 -20 -20 -20 -20 -20 -20 -20 -20 -20 -20 -20 -20 -20 -20 -20 -20 -20 -20 -20 -20 -20 -20
-20 3 3 -20 -6 10 -16 -20 -20 -7 -20 -20 -20 -20 -20 -20 -20 -19 -20 -20 -20 -20 -20 -20 -20 -20 -19 -20 -20 -20 -20 -20 -20 -20 -20 -20 -20 -20 -20 -20 -20 -20 -20 -20
-20 3 11 10 7 4 -10 -20 -17 0 -20 -20 -20 -9 -20 -19 -20 -20 -20 -20 -20 -20 -20 -20 -20 5 -1 -20 -20 -20 -20 -20 -20 -20 -20 -20 -20 -20 -20 -20 -20 -20 -20 -20
-20 2 17 15 13 11 -9 -9 1 3 2 -16 -20 -4 -7 -17 -20 -20 6 -8 -8 -17 -18 -9 -3 1 -4 -17 -20 -20 -20 -20 -20 -20 -20 -20 -20 -20 -20 -20 -4 -20 -20 -20
-20 3 9 7 -19 -11 -18 11 17 5 2 -17 -18 0 -20 -20 -12 -12 -20 -13 6 2 -8 -3 -0 -19 -20 -20 -20 -20 -20 -20 -20 -20 -20 -20 -20 -20 -20 -12 -20 -20 -20 -20
9 -7 -20 -2 -20 -5 -15 -15 -20 -16 -13 -20 -20 -20 -20 -20 -4 8 8 4 6 -9 17 6 16 3 -20 -20 -20 -20 -20 -20 -20 -20 -20 -20 -20 -20 -20 -20 -20 -20 -20 -20
10 -8 -20 -20 9 -17 -20 -20 -20 -16 -20 -20 -20 -20 -20 -20 -12 -13 -20 -20 -20 -20 -20 -19 -20 -20 -20 -9 -18 -20 -20 -20 -20 -20 -20 -20 -20 -20 -20 -20 -20 -20 -20 -20
-8 -20 -20 -20 -20 -20 -20 -20 -20 -19 -20 -20 -20 -9 1 -16 -20 -20 -20 -20 -20 -20 -20 -20 -20 -20 -19 -20 -20 -20 -20 -20 -20 -20 -20 -20 -20 -20 -20 -20 -20 -20 -20 -20
3 -13 -2 -8 -20 -20 -20 -20 -20 -20 -20 -15 -20 -10 -5 -6 -19 -20 -18 -19 -9 -20 -20 -20 -20 -20 -13 -17 -20 -20 -20 -20 -20 -20 -20 -20 -20 -20 -20 -20 -20 -20 -20 -20
9 11 1 -20 -20 -20 -20 -20 -20 -20 -20 -20 -20 -20 -20 -20 -20 -20 -20 -11 -20 -20 -20 -19 -3 6 -17 -20 -20 -20 -20 -20 -20 -20 -20 -20 -20 -20 -20 -20 -20 -20 -20 -20
21 -19 -19 -20 -20 -20 -20 -20 -20 -20 -20 -20 -20 -20 -20 -20 -20 -20 -20 -20 -20 -20 -13 -2 -18 -20 -20 -20 -20 -20 -20 -20 -20 -20 -20 -20 -20 -20 -20 -20 -20 -20 -20 -20
11 -20 -20 -20 -20 -20 -19 -20 -20 -20 -20 -20 -20 -20 -20 -20 -20 -20 -20 -20 -20 -14 -20 -20 -20 -20 -20 -20 -20 -20 -20 -20 -20 -20 -20 -20 -20 -20 -20 -20 -20 -20 -20 -20
9 -20 -20 -20 -20 -13 -5 -17 -20 -20 -20 -20 -20 -20 -20 -20 -20 -20 -20 -20 -20 -20 -20 -20 -20 -20 -20 -20 -20 -20 -20 -20 -20 -20 -20 -20 -20 -20 -20 -20 -20 -20 -20 -20

GFSNW_prec_radar_006.txt.gz
Reflectivity
-20 -20 -20 -20 -20 -20 -20 -20 -20 -20 -20 -20 20 35 32 28 28 27 4 -20 -20 -20 -19 -10 -20 -20 -20 -4 -20 -20 -20 -20 -20 -20 -20 -20 -20 -20 -20 -20 -20 -20 -20 -20
-20 -20 -20 -20 -20 -20 -20 -20 -20 -20 -11 -10 -6 -12 30 36 38 22 13 16 7 -4 7 -6 -19 -20 -15 -20 -20 -20 -20 -20 -20 -20 -20 -20 -20 -20 -20 -20 -20 -20 -20 -20
-18 -20 -20 -20 -20 -20 -20 -20 -20 -20 -20 -20 1 17 -20 28 35 10 25 30 29 26 9 2 -0 -9 -4 -18 -20 -20 -20 -20 -20 -20 -17 -19 -20 -20 -20 -20 -20 -20 -20 -20
5 -18 -20 -20 -20 -20 -20 -20 -20 -20 -20 -20 -19 -5 -5 15 12 33 24 8 4 -9 -10 -7 13 7 -19 -20 -20 -20 -20 -20 -20 -19 -14 -20 -20 -20 -20 -20 -20 -20 -20 -20
14 9 -20 -20 -20 -20 -20 -20 -20 -20 -20 -20 -20 -20 -1 -18 4 -17 21 -2 -20 -20 -11 -10 -20 -20 -20 -20 -20 -7 -20 -20 -20 -20 -20 -20 -20 -20 -20 -20 -20 -20 -20 -20
16 12 -18 -20 -20 -20 -20 -20 -20 -20 -20 -20 -20 -20 -20 -20 -19 1 -16 -9 9 17 5 4 8 -13 -20 -20 -19 -1 -1 -11 -17 -8 2 -6 -18 -20 -20 -20 -20 -20 -20 -20
16 13 11 -20 -20 -20 -20 -20 -20 -20 -20 -20 -20 -20 -20 -20 -20 -20 -20 -13 -20 -19 -20 -15 -5 7 11 11 15 10 3 -3 -13 2 -18 -20 -20 -20 -20 -20 -20 -20 -20 -20
16 12 11 9 -20 -20 -20 -20 -20 -20 -20 -20 -20 -20 -20 -20 -20 -20 -20 -20 -20 -20 -20 -20 -20 -20 -20 -20 -20 -20 -20 -20 -20 -20 -20 -20 -20 -20 -20 -20 -20 -20 -20 -20
12 14 12 9 -15 -20 -20 -20 -20 -20 -20 -20 -20 -20 -20 -20 -20 -20 -20 -20 -20 -20 -20 -20 -20 -20 -20 -20 -20 -20 -20 -20 -20 -20 -20 -20 -20 -20 -20 -20 -20 -20 -20 -20
13 -1 -12 11 -20 -20 -20 -20 -20 -20 -20 -20 -20 -20 -20 -20 -20 -20 -20 -20 -20 -20 -20 -20 -20 -20 -20 -20 -20 -20 -20 -20 -20 -20 -20 -20 -20 -20 -20 -20 -20 -20 -20 -20
16 13 0 2 -16 -20 -20 -20 -20 -20 -20 -20 -20 -20 -20 -20 -20 -20 -20 -20 -20 -20 -20 -20 -20 -20 -20 -20 -20 -20 -20 -20 -20 -20 -20 -20 -20 -20 -20 -20 -20 -20 -20 -20
12 15 -18 -20 -0 2 -20 -20 -20 -20 -20 -20 -20 -20 -20 -20 -20 -20 -20 -20 -20 -20 -20 -20 -20 -20 -20 -20 -20 -20 -20 -20 -20 -20 -20 -20 -20 -20 -20 -20 -20 -20 -20 -20
-5 -7 -6 -18 -13 9 2 -20 -20 -20 -20 -20 -20 -20 -20 -20 -20 -20 -20 -20 -20 -20 -20 -20 -20 -20 -20 -20 -20 -20 -20 -20 -20 -20 -20 -20 -20 -20 -20 -20 -20 -20 -20 -20
-20 -20 -20 -20 -17 10 -19 -20 -20 -20 -20 -20 -20 -20 -20 -20 -20 -20 -20 -20 -20 -20 -20 -20 -20 -20 -20 -20 -20 -20 -20 -20 -20 -20 -20 -20 -20 -20 -20 -20 -20 -20 -20 -20
-20 -20 -8 -20 8 -11 4 1 -6 -20 -20 -20 -20 -20 -20 -20 -20 -20 -20 -20 -16 -1 9 -3 -7 -20 -20 -20 -20 -20 -20 -20 -20 -20 -20 -20 -20 -20 -20 -20 -20 -20 -20 -20
-20 -20 -20 -3 -20 -17 -20 -19 -8 -7 -20 -20 -20 -20 -20 -20 -20 -20 -20 5 7 16 2 -0 0 -20 -20 -20 -20 -20 -20 -20 -20 -20 -20 -20 -20 -20 -20 -20 -20 -20 -20 -20
-20 -17 -19 -13 5 -14 -20 -20 -20 -8 -14 -20 -19 -20 -20 -20 -20 -15 -18 -10 14 15 8 -20 -20 -20 -20 -20 -20 -20 -20 -20 -20 -20 -20 -20 -20 -20 -20 -20 -20 -20 -20 -20
-20 -11 12 -7 10 4 -11 -20 4 2 -20 -20 -20 -14 -20 -17 -20 -13 -11 -20 -12 -20 -20 -13 11 -20 -20 -20 -20 -20 -20 -20 -20 -20 -20 -20 -20 -20 -20 -20 6 -0 -3 -3
-19 2 -8 -16 -20 -20 -20 7 12 -10 -6 0 -20 -13 -20 -20 14 17 16 24 18 1 -5 3 -19 -20 -20 -20 -20 -20 -20 -20 -20 -20 -20 -20 -20 -20 -20 -20 -20 -20 -20 -20
-13 -20 -20 -20 -20 -4 2 0 10 8 10 -13 -20 -20 -9 -20 -14 1 0 5 15 -19 -9 -20 -14 -20 -20 -20 -20 -20 -20 -20 -20 -20 -20 -20 -20 -20 -20 -20 -20 -20 -20 -20
-20 -20 -20 -17 -11 -20 -20 -20 -20 -20 -20 -19 -20 -20 -8 -20 5 -12 -20 -20 -20 -20 -20 -16 -20 -20 -20 -20 -20 -20 -20 -20 -20 -20 -20 -20 -20 -20 -20 -20 -20 -20 -20 -20
-13 6 6 -3 -20 -20 -20 -20 -20 -20 -20 -20 -20 4 4 -12 -10 -3 0 -20 -20 -20 -20 -14 -12 -20 -18 -6 -19 -20 -20 -20 -20 -20 -20 -20 -20 -20 -20 -20 -20 -20 -20 -20
-2 16 10 -11 -20 -20 -20 -20 -17 -20 -20 -20 -20 6 -10 -11 -20 -20 -19 -18 -19 -20 -20 -20 -20 -20 -20 -20 -20 -20 -20 -20 -20 -20 -20 -20 -20 -20 -20 -20 -20 -20 -20 -20
28 30 -0 -7 -9 -20 -20 -20 -20 -20 -20 -20 -20 -19 -20 -15 -20 -20 -20 -20 -20 -20 -20 -20 -20 -20 -20 -20 -20 -20 -20 -20 -20 -20 -20 -20 -20 -20 -20 -20 -20 -20 -20 -20
30 24 12 -12 -20 -20 -20 -20 -20 -20 -20 -20 -20 -20 -20 -20 -19 -20 -20 -20 -20 -20 -19 -17 -20 -20 -20 -20 -20 -20 -20 -20 -20 -20 -20 -20 -20 -20 -20 -20 -20 -20 -20 -20
36 8 -20 -20 -20 -20 -20 -20 -20 -20 -20 -20 -20 -20 -20 -20 -20 -20 -20 -20 -7 8 5 -15 -20 -20 -20 -20 -20 -20 -20 -20 -20 -20 -20 -20 -20 -20 -20 -20 -20 -20 -20 -20
25 -1 -20 -20 -20 -20 -20 -20 -20 -20 -20 -20 -20 -20 -20 -20 -20 -20 -20 -20 1 0 -20 -20 -20 -20 -20 -20 -20 -20 -20 -20 -20 -20 -20 -20 -20 -20 -20 -20 -20 -20 -20 -20

GFSNW_prec_radar_009.txt.gz
Reflectivity
-20 -20 -20 -20 -20 -20 -20 -20 -20 0 1 22 29 33 27 -19 -2 24 1 3 -16 -20 -20 28 32 -18 -20 -19 4 -20 -20 -20 -20 -20 -20 -20 -20 -20 -20 -20 -20 -20 -20 -20
-20 -20 -20 -20 -20 -20 -20 -20 -20 -15 -4 5 27 30 11 19 26 17 9 -20 -17 -20 -20 29 -13 -6 -20 -20 -20 -20 -20 -20 -10 -20 -20 -20 -20 -20 -20 -20 -20 -20 -20 -20
-2 2 -12 -20 -20 -20 -20 -20 -20 2 -13 -20 17 -5 32 25 8 -6 11 -14 -20 -20 -9 -15 -20 -20 -20 -20 -20 -2 -15 -20 -20 -20 -20 -20 -20 -20 -20 -20 -20 -20 -20 -20
6 11 7 -20 -20 -20 -20 -20 -20 -20 -20 -20 -8 -0 25 24 7 -7 19 12 -17 -20 -13 -20 -20 -20 -20 -20 -19 -19 -19 -20 -20 -20 -20 -20 -20 -20 -20 -20 -20 -20 -20 -20
4 12 11 -20 -20 -20 -20 -20 -20 -20 -20 -20 -20 -20 8 2 -18 -20 2 -12 -2 -19 -6 -20 -20 -20 -20 -20 -7 -20 -20 -20 -20 -20 -20 -20 -20 -20 -20 -20 -20 -20 -20 -20
13 12 12 -14 -20 -20 -20 -20 -20 -20 -20 -20 -20 -20 -11 5 -1 19 6 19 22 20 3 3 1 2 -20 -2 -20 -20 -20 -20 -20 -20 -20 -20 -20 -20 -20 -20 -20 -20 -20 -20
15 13 13 12 -20 -20 -20 -20 -20 -20 -20 -20 -20 -20 -20 -20 14 -14 16 -20 -2 13 7 -18 27 -3 -15 -20 -20 -20 -20 3 -19 -20 -20 -20 -20 -19 -20 -20 -20 -20 -11 -3
16 13 14 13 -9 -20 -20 -20 -20 -20 -20 -20 -20 -20 -20 -20 -20 -20 -11 16 13 11 11 -6 11 19 -20 -6 2 -16 -19 -1 -20 -17 -20 -20 -12 -15 -20 -20 -20 -20 -18 -20
16 13 13 12 9 -20 -20 -20 -20 -20 -20 -20 -20 -20 -20 -20 -20 -20 -20 -20 -20 -20 -20 -20 -20 -19 -14 -20 -20 -20 -8 -9 -12 3 -15 -20 -19 -12 -20 -20 -20 -13 -20 -20
16 14 -6 10 13 -20 -20 -20 -20 -20 -20 -20 -20 -20 -20 -20 -19 -20 -20 -20 -20 -20 -20 -20 -20 -20 -20 -20 -20 -20 -20 -20 -20 -20 -20 -20 -16 -20 -20 -20 -20 -20 -20 -20
16 16 9 11 11 -18 -20 -20 -20 -20 -20 -20 -20 -20 -20 -20 -20 -20 -20 -20 -20 -20 -20 -20 -20 -20 -20 -20 -20 -20 -20 -20 -20 -20 -20 -20 -20 -20 -20 -20 -20 -20 -20 -20
15 16 16 -7 -9 9 -20 -20 -20 -20 -20 -20 -20 -20 -20 -20 -20 -20 -20 -20 -20 -20 -20 -20 -20 -20 -20 -20 -20 -20 -20 -20 -20 -20 -20 -20 -20 -20 -20 -20 -20 -20 -20 -20
15 13 17 8 -14 13 0 -20 -20 -20 -20 -20 -20 -20 -20 -20 -20 -20 -20 -20 -20 -20 -20 -20 -20 -20 -20 -20 -20 -20 -20 -20 -20 -20 -20 -20 -20 -20 -20 -20 -20 -20 -20 -20
-2 7 15 8 -16 14 12 -20 -20 -20 -20 -20 -20 -20 -20 -20 -20 -20 -20 -20 -20 -20 -20 -20 -20 -20 -20 -20 -20 -20 -20 -20 -20 -20 -20 -20 -20 -20 -20 -20 -20 -20 -20 -20
-20 -0 -18 12 3 14 9 -20 -20 -20 -20 -20 -20 -20 -20 -20 -20 -20 -20 -20 -20 -20 -20 -20 -20 -20 -20 -20 -20 -20 -20 -20 -20 -20 -20 -20 -20 -20 -20 -20 -20 -20 -20 -20
-0 6 -20 5 10 12 -20 -20 -20 -20 -20 -20 -20 -20 -20 -20 -20 -20 -20 -20 -20 -20 -20 -20 -20 -14 -13 -20 -20 -20 -20 -20 -20 -20 -20 -20 -20 -20 -20 -20 -20 -20 -20 -20
-20 -15 4 6 3 -17 -20 -20 -15 -5 -9 -6 -8 -20 -20 -20 -20 -20 -20 -20 -20 -20 -18 12 13 1 -1 -20 -20 -20 -20 -20 -20 -20 -20 -20 -20 -20 -20 -20 -20 -14 -20 -20
7 15 15 13 7 -20 -20 -20 -1 -20 -20 -20 -20 -17 -20 -20 -20 -11 -18 -20 -10 12 17 7 -9 -11 -20 -20 -20 -20 -20 -20 -20 -20 -20 -20 -20 -20 -20 -20 -20 -20 -20 -20
14 13 12 -1 -8 -20 -20 0 -2 -20 -20 -20 -20 -20 -20 -20 -3 -13 2 10 11 4 0 4 -1 -18 -20 -20 -20 -20 -20 -20 -20 -20 -20 -20 -20 -20 -20 -20 -20 -20 -20 -20
14 -1 -20 -20 -20 -20 -19 -15 -20 -10 -20 -20 -20 -20 -20 -20 -11 6 -5 4 3 11 4 -13 -19 -20 1 -11 -20 -20 -20 -20 -20 -20 -20 -20 -20 -20 -20 -20 -20 -20 -20 -20
-14 -20 -20 -20 -10 -18 -20 -20 -17 -20 -20 -20 -20 -20 -20 -20 -17 -5 -10 -11 -15 -20 -19 -17 -20 -20 -20 -20 -20 -20 -20 -20 -20 -20 -20 -20 -20 -20 -20 -20 -20 -20 -20 -20
-20 -18 -12 8 9 -12 -20 -20 -20 -20 -20 -20 -20 -20 -20 -20 -17 -10 -5 -20 -20 -20 -19 -18 -20 -20 -20 -20 -20 -20 -20 -20 -20 -20 -20 -20 -20 -20 -20 -20 -20 -20 -20 -20
-2 18 23 20 9 -20 -20 -20 -20 -20 -20 -20 -20 -15 -20 -20 -4 -8 -20 -20 -20 -20 -20 -20 -20 -20 -20 -20 -20 -20 -20 -20 -20 -20 -20 -20 -20 -20 -20 -20 -20 -20 -20 -20
32 27 19 1 -1 -20 -20 -20 -20 -12 -7 -15 -13 -20 -20 -9 -20 -14 -20 -20 -20 -20 -20 -20 -20 -20 -20 -20 -20 -20 -20 -20 -20 -20 -20 -20 -20 -20 -20 -20 -20 -20 -20 -20
26 27 9 -0 -20 -20 -20 -20 -20 -20 -15 -20 -20 -20 -20 -20 -20 -20 -20 -19 -20 -20 -20 -20 -20 -20 -20 -20 -20 -20 -20 -20 -20 -20 -20 -20 -20 -20 -20 -20 -20 -20 -20 -20
25 9 -1 -20 -20 -20 -20 -20 -20 -20 -20 -20 -20 -20 -20 -20 -20 -20 -20 -20 -20 -20 -20 -20 -20 -20 -20 -20 -20 -20 -20 -20 -20 -20 -20 -20 -20 -20 -20 -20 -20 -20 -20 -20
24 6 -20 -20 -20 -20 -20 -20 -20 -20 -20 -20 -20 -20 -20 -20 -20 -20 -20 -20 -20 -20 -20 -20 -20 -20 -20 -20 -20 -20 -20 -20 -20 -20 -20 -20 -20 -20 -20 -20 -20 -20 -20 -20

GFSNW_prec_radar_012.txt.gz
Reflectivity
13 18 -19 -19 16 -20 -20 -20 -20 17 31 30 26 34 37 31 8 16 25 -6 -6 -20 9 12 13 -5 -4 -20 -20 -20 -20 -20 -20 -20 -20 -20 -19 -20 -20 -20 -20 -20 -20 -20
15 15 -7 -16 17 -20 -20 -20 12 20 22 31 28 31 26 12 9 22 18 15 8 -20 6 -13 -13 16 7 -5 -20 -20 -20 -20 -20 -13 -14 -20 -20 -20 -20 -20 -20 -20 -20 -20
12 18 7 9 17 -14 -20 -20 -18 10 17 7 22 29 28 22 27 14 -6 -20 8 6 -20 -9 18 29 -0 -20 -20 -20 -8 -20 -20 -20 -20 -20 -20 -20 -20 -20 -20 -20 -20 -20
10 16 11 13 5 -11 -20 -20 -20 -20 -20 -16 -2 21 28 30 27 7 -20 14 -20 -14 -20 -16 -0 -19 -20 -8 -1 9 -20 -20 -20 -20 -20 -20 -20 -20 -20 -20 -20 -20 -20 -20
16 13 11 12 8 -18 -20 -20 -20 -20 -20 -20 2 14 29 30 15 16 11 -20 -20 -20 -20 -20 -20 -20 -20 -20 -18 -20 -20 -20 -20 -20 -20 -20 -20 -20 -20 -20 -20 -20 -20 -20
15 12 7 14 9 -18 -20 -20 -20 -20 2 -20 -20 -20 1 7 3 30 -20 -20 -18 17 18 -20 8 -18 -11 -12 -18 -6 3 -20 -20 -20 -20 -20 -20 -20 -20 -20 -20 -20 -20 -20
15 13 13 15 5 -13 -20 -20 -20 -20 -20 -20 -20 -19 -2 2 -17 7 9 -7 -20 -9 15 -20 -7 4 -13 -14 -20 -20 -20 -19 -20 -20 -20 -20 -20 -20 -20 -20 -20 -20 -20 -20
4 13 13 15 -1 0 -20 -20 -20 -20 -20 -20 -20 -20 -5 -3 2 24 1 25 24 3 16 16 -14 6 4 4 14 5 10 -15 -5 -20 -20 -16 -17 -20 -20 -20 -20 -20 -20 -20
5 15 15 15 -15 11 -20 -20 -20 -20 -20 -20 -20 -20 -20 -10 -18 0 6 -7 15 17 22 -12 13 -19 8 9 -19 -20 -20 -20 -20 -20 3 -20 -20 3 -20 -20 7 7 1 -20
-13 17 15 13 -11 14 -20 -20 -20 -20 -20 -20 -20 -20 -20 -20 -20 -20 0 5 -20 5 13 20 -13 19 -9 -9 -20 -20 -20 -20 -20 -20 -20 -20 -20 -20 -3 -6 -20 -7 -19 -20
-5 16 15 12 -3 15 -18 -20 -20 -20 -20 -20 -20 -20 -20 -20 -20 -20 -19 -20 -20 -20 -20 -20 -20 -20 -20 -20 -20 -20 -20 -20 -20 -20 -20 -20 -20 -20 -20 -20 -20 -20 -20 -20
9 16 17 12 2 15 -3 -20 -20 -20 -20 -20 -20 -20 -20 -20 -20 -20 -20 -20 -20 -20 -20 -20 -20 -20 -20 -20 -20 -20 -20 -20 -20 -20 -20 -20 -20 -20 -20 -20 -20 -20 -20 -20
9 15 15 13 2 7 -20 -20 -20 -20 -20 -20 -20 -20 -20 -20 -20 -20 -20 -20 -20 -20 -20 -20 -20 -20 -20 -20 -20 -20 -20 -20 -20 -20 -20 -20 -20 -20 -20 -20 -20 -20 -20 -20
7 16 0 13 11 13 2 -20 -18 -20 -20 -20 -20 -20 -20 -20 -20 -20 -20 -20 -20 -20 -20 -20 -20 -20 -20 -20 -20 -20 -20 -20 -20 -20 -20 -20 -20 -20 -20 -20 -20 -20 -20 -20
-7 15 12 13 -8 14 10 -20 -20 -20 -20 -20 -20 -20 -20 -20 -20 -20 -20 -20 -20 -20 -20 -20 -20 -20 -20 -20 -20 -20 -20 -20 -20 -20 -20 -20 -20 -20 -20 -20 -20 -20 -20 -20
13 14 15 11 11 15 2 -20 -20 -20 -18 -20 -20 -20 -20 -20 -20 -20 -20 -20 -20 -20 -20 -20 -20 -20 -20 -20 -20 -20 -20 -20 -20 -20 -20 -20 -20 -20 -20 -20 -20 -20 -20 -20
-0 9 13 10 17 10 -8 -19 -14 -12 -20 -2 -13 -20 -20 -20 -20 -20 -20 -20 -20 -20 -20 -20 -20 -20 -20 -20 -20 -20 -20 -20 -20 -20 -20 -20 -20 -20 -20 -20 -20 -20 -20 -20
-20 4 12 16 12 19 1 -19 -15 -20 -13 -6 -19 -20 -20 -11 -20 -20 -20 -20 -15 -3 -20 -20 -20 -20 -20 -16 -20 -20 -20 -20 -20 -20 -20 -20 -20 -20 -20 -20 -20 -20 -20 -20
7 4 16 7 3 -1 -20 6 -19 -20 -20 1 4 -19 -1 -7 2 -10 7 -20 -20 -19 -20 -20 -20 -20 -20 -20 -20 -20 -20 -20 -20 -20 -20 -20 -20 -20 -20 -20 -20 -20 -20 -20
-4 -9 -20 -20 -9 -20 -10 -20 -20 -20 -20 -20 -20 -20 -20 -20 -18 1 -3 6 -14 -20 -20 -20 -18 -20 -20 -20 -20 -20 -20 -20 -20 -20 -20 -20 -20 -20 -20 -20 -20 -20 -20 -20
-20 -20 -20 -15 -18 -20 -20 -20 -20 -20 -20 -20 -20 -20 -20 -20 -20 -20 -20 -20 -20 -20 -20 -20 -20 -20 -20 -20 -20 -20 -20 -20 -20 -20 -20 -20 -20 -20 -20 -20 -20 -20 -20 -20
-14 -9 10 0 -20 -20 -20 -20 -20 -20 -20 -20 -20 -20 -20 -20 -20 -20 -20 -20 -20 -20 -20 -19 -20 -20 -20 -20 -20 -20 -20 -20 -20 -20 -20 -20 -20 -20 -20 -20 -20 -20 -20 -20
19 22 26 1 -11 -20 -20 -20 -20 -20 -20 -14 -20 -20 -20 -20 -20 -20 -20 -20 -20 -20 -20 -20 -20 -20 -20 -20 -20 -20 -20 -20 -20 -20 -20 -20 -20 -20 -20 -20 -20 -20 -20 -20
29 27 10 -4 5 -20 -20 -20 -20 -20 -20 11 -1 -20 -20 -20 -20 -20 -20 -20 -20 -20 -20 -20 -20 -20 -20 -20 -20 -20 -20 -20 -20 -20 -20 -20 -20 -20 -20 -20 -20 -20 -20 -20
28 23 -0 -15 -20 -20 -20 -20 -20 -18 -15 -1 -18 -20 -20 -20 -20 -20 -20 -13 -20 -20 -20 -20 -20 -20 -20 -20 -20 -20 -20 -20 -20 -20 -20 -20 -20 -20 -20 -20 -20 -20 -20 -20
26 10 -16 -19 -20 -20 -20 -20 -20 -17 0 -5 -15 -20 -20 -20 -20 -20 -20 -20 -20 -20 -20 -20 -20 -20 -20 -20 -20 -20 -20 -20 -20 -20 -20 -20 -20 -20 -20 -20 -20 -20 -20 -20
20 -0 -20 -20 -20 -20 -15 -20 -20 0 -3 -20 -20 -20 -20 -20 -20 -20 -20 -20 -20 -20 -20 -20 -20 -20 -20 -20 -20 -20 -20 -20 -20 -20 -20 -20 -20 -20 -20 -20 -20 -20 -20 -20

GFSNW_prec_radar_015.txt.gz
Reflectivity
14 15 7 14 14 17 -20 -20 5 8 24 27 21 23 28 30 21 18 26 -11 -20 -20 -20 2 13 -18 3 -20 8 -20 -20 -20 -20 -20 -20 -20 -20 -20 -20 -20 -20 -20 -20 -20
14 16 10 9 12 19 -20 -20 12 21 22 25 16 24 25 23 22 4 26 21 -10 -20 -20 17 4 -20 -20 -19 -20 -20 -20 -20 -20 -20 -20 -20 -20 -20 -20 -20 -20 -20 -20 -20
14 16 15 -13 13 19 -19 -20 -5 19 17 13 30 36 30 23 25 29 25 4 -20 -20 -6 14 -20 -20 -20 -20 -20 -16 -17 -20 -20 -20 -20 -20 -20 -20 -20 -20 -20 -20 -20 -20
10 16 13 4 11 21 -17 -20 -20 -15 4 6 26 29 33 32 34 25 31 -0 -20 -20 4 2 -20 -20 -20 -20 -20 -20 -20 -20 -20 -20 -20 -20 -20 -20 -20 -20 -20 -20 -20 -20
6 15 14 3 11 23 -13 -20 -20 -20 -20 -20 23 28 27 30 32 14 14 17 -20 -8 -20 -20 -20 -20 -20 -20 -20 -18 -20 -20 -20 -20 -20 -20 -20 -20 -20 -20 -20 -20 -20 -20
-20 13 16 5 13 14 -18 -20 -20 -20 -8 3 6 8 23 31 32 7 -20 -20 -20 -10 -20 -20 -20 -20 0 -1 -20 -20 -19 -20 -20 -20 -20 -20 -20 -20 -20 -20 -20 -20 -20 -20
-20 -20 13 13 9 13 -20 -20 -20 -20 10 13 -0 -17 23 29 22 14 -20 1 15 -12 -20 -20 -17 15 15 26 7 20 15 -7 -10 -19 -20 -20 -20 -20 -20 -20 -20 -20 -20 -20
-20 -20 7 10 -14 17 -0 -20 -20 -20 4 4 8 -20 -3 21 25 27 -12 -12 19 9 -20 -1 -7 13 19 8 26 2 20 7 -8 -20 -20 -20 -20 -20 -20 -20 -20 -20 -20 -20
-20 8 12 12 -12 19 10 -20 -20 -20 -10 -20 -20 -20 5 -1 5 29 25 -5 21 32 13 14 31 17 -18 18 1 -1 -10 -0 35 -20 -12 -15 -3 -20 -20 -20 -20 -20 -20 -20
-20 -6 3 12 -1 16 9 -20 -20 -20 -20 -20 -20 -20 -9 9 -16 18 22 21 22 -7 13 19 -11 17 23 -16 -20 26 23 12 -14 -20 -20 -20 -18 -20 -20 -20 8 1 -20 -20
-20 4 2 9 7 12 12 -20 -20 -20 -20 -20 -20 -20 -20 -4 -13 -20 9 21 22 25 30 17 -20 -20 -20 -14 1 -20 -20 -20 -20 -20 -20 -20 -20 -20 -20 -20 -20 -20 -20 -20
-20 3 9 9 4 12 18 -16 -20 -20 -20 -20 -20 -20 -20 -20 -20 -20 -20 -6 9 10 12 7 2 -2 10 -20 -20 -20 -20 -20 -20 -20 -20 -20 -20 -20 -20 -20 -20 -20 -20 -20
-20 7 12 -1 -4 15 16 -13 -20 -20 -20 -20 -20 -20 -20 -20 -20 -20 -20 -20 -20 -20 -20 -20 -20 -20 -20 -20 -20 -20 -20 -20 -20 -20 -20 -20 -20 -20 -20 -20 -20 -20 -20 -20
-11 13 14 -3 -19 16 17 -1 -20 -20 -20 -20 -20 -20 -20 -20 -20 -20 -20 -20 -20 -20 -20 -20 -20 -20 -20 -20 -20 -20 -20 -20 -20 -20 -20 -20 -20 -20 -20 -20 -20 -20 -20 -20
-5 13 14 -16 -11 14 9 17 4 -20 -20 -19 -20 -20 -20 -20 -20 -20 -20 -20 -20 -20 -20 -20 -20 -20 -20 -20 -20 -20 -20 -20 -20 -20 -20 -20 -20 -20 -20 -20 -20 -20 -20 -20
-8 14 13 9 4 15 9 22 13 4 -1 -20 -20 -20 -20 -20 -20 -20 -20 -20 -20 -20 -20 -20 -20 -20 -20 -20 -20 -20 -20 -20 -20 -20 -20 -20 -20 -20 -20 -20 -20 -20 -20 -20
5 11 5 -20 15 16 9 16 -2 16 11 17 23 2 -20 -20 -20 -20 -20 -20 -20 -20 -20 -20 -20 -20 -20 -20 -20 -20 -20 -20 -20 -20 -20 -20 -20 -20 -20 -20 -20 -20 -20 -20
9 10 7 11 19 16 15 -10 -17 10 20 7 -11 -20 -20 -20 -20 -20 -20 -20 -14 -20 -20 -20 -20 -20 -20 -20 -20 -20 -20 -20 -20 -20 -20 -20 -20 -20 -20 -20 -20 -20 -20 -20
11 9 9 9 2 -19 5 6 5 -3 3 18 -4 -20 -4 -5 -19 -20 -20 -18 -13 7 15 9 -17 -6 -11 -20 -20 -20 -20 -20 -20 -20 -20 -20 -20 -20 -20 -20 -20 -20 -20 -20
17 15 -18 -20 -20 -5 10 -2 -20 -15 9 -13 -20 -20 -20 -16 -14 3 5 13 6 9 -18 -20 -14 -20 -20 -20 -20 -20 -20 -20 -20 -20 -20 -20 -20 -20 -20 -20 -20 -20 -20 -20
2 -9 -19 -5 -1 -8 -19 -20 -20 -20 -20 -20 -20 -20 -20 -20 -20 -14 -20 -16 -20 -20 -20 -20 -20 -20 -4 1 -18 -20 -20 -20 -20 -20 -20 -20 -20 -20 -20 -20 -20 -20 -20 -20
2 -9 6 1 -2 -17 -20 -20 -20 -20 -20 -20 -20 -20 -20 -20 -20 -20 -20 -20 -20 -20 -20 -20 -20 -16 -16 -20 -20 -20 -20 -20 -20 -20 -20 -20 -20 -20 -20 -20 -20 -20 -20 -20
13 18 20 9 7 -3 -20 -20 -20 -20 -20 -20 -12 -20 -20 -20 -20 -20 -20 -20 -20 -20 -20 -20 -20 -20 -20 -20 -20 -20 -20 -20 -20 -20 -20 -20 -20 -20 -20 -20 -20 -20 -20 -20
31 28 6 -12 9 -20 -20 -20 -20 -20 -7 3 -2 -18 -20 -20 -20 -20 -20 -20 -20 -20 -20 -19 -20 -20 -20 -20 -20 -20 -20 -20 -20 -20 -20 -20 -20 -20 -20 -20 -20 -20 -20 -20
29 25 5 0 -20 -20 -20 -20 -20 -17 3 -11 -20 -20 -20 -20 -20 -20 -19 -20 -20 -20 -20 -20 -20 -20 -20 -20 -20 -20 -20 -20 -20 -20 -20 -20 -20 -20 -20 -20 -20 -20 -20 -20
29 15 14 -15 -20 -20 -20 -20 -20 1 -0 -14 -20 -20 -20 -20 -20 -16 -20 -20 -20 -20 -20 -20 -20 -20 -20 -20 -20 -20 -20 -20 -20 -20 -20 -20 -20 -20 -20 -20 -20 -20 -20 -20
21 7 -13 -20 -20 -20 -20 -20 -13 10 5 -20 -20 -20 -20 -20 -20 -20 -20 -20 -20 -20 -20 -20 -20 -20 -20 -20 -20 -20 -20 -20 -20 -20 -20 -20 -20 -20 -20 -20 -20 -20 -20 -20

GFSNW_prec_radar_018.txt.gz
Reflectivity
20 7 14 18 13 17 22 -9 -1 10 14 22 20 26 25 18 30 20 25 3 -20 -20 -20 -20 8 -19 -13 -20 -20 -15 -20 -20 -17 20 14 6 5 -4 -17 -19 -20 -20 -20 -20
15 9 15 17 21 12 13 -20 -6 23 21 20 11 16 25 26 11 23 17 -5 -20 -20 -20 -20 -9 -20 -20 -20 -20 -20 -20 -20 -20 -20 -19 3 -20 -2 -13 -20 -20 -20 -20 -20
12 9 13 5 16 9 16 -17 11 18 25 7 20 27 28 30 7 8 29 23 14 -20 -20 -20 -20 -18 -20 -20 -20 -20 -20 -20 -20 -20 -20 -20 -20 -20 -20 -20 -20 -20 -20 -20
1 10 15 -1 8 17 17 -20 -18 -18 10 4 3 27 32 34 27 20 33 15 -20 -20 -20 -17 -4 7 -20 -20 -20 -20 -20 -20 -20 -20 -20 -20 -20 -20 -20 -20 -20 -20 -20 -20
-11 3 9 13 6 15 12 -20 -20 -20 -20 -5 9 33 23 27 30 16 25 19 -20 -20 -20 -20 -20 -20 -20 -20 -20 -20 -20 -8 -20 -20 -20 -20 -20 -20 -20 -20 -20 -20 -20 -20
3 -18 8 12 5 8 3 15 -20 -20 -20 2 6 20 34 29 19 18 15 5 -20 -10 -20 -20 -19 -18 3 8 -3 -16 -20 -20 -4 -20 -20 -20 -20 -20 -20 -20 -20 -20 -20 -20
24 -20 8 12 10 -12 -2 3 -20 -20 -20 2 20 27 29 31 28 25 -10 -14 -20 -20 -20 -16 -18 -12 -20 1 -15 10 -16 -20 -20 -20 -20 -20 -20 -20 -20 -20 -20 -20 -20 -20
19 -20 8 11 11 -5 13 -4 -16 -20 -20 8 -4 18 28 29 22 10 -20 -20 -20 -9 -19 -1 17 11 3 24 26 21 -18 -0 -20 -20 -20 -20 -20 -20 -20 -20 -20 -20 -20 -20
14 -19 -20 7 8 15 16 -6 1 -20 -20 -5 -20 -14 29 28 27 6 -20 -14 13 -20 -9 -20 -14 27 19 15 26 -10 17 37 13 -20 -20 -20 -20 -20 -20 -20 -20 -20 -20 -20
35 -16 -19 -20 2 13 16 -4 -19 -20 -20 5 -20 -20 -20 26 30 27 -5 -13 16 -5 -10 -20 -20 2 -18 -20 1 -12 -20 -20 2 -15 25 -20 -17 -20 -20 -20 -20 -20 -20 -20
22 11 5 -20 7 12 20 4 -20 -20 -20 -20 -20 -20 -8 -9 21 25 24 13 14 21 -4 29 18 14 -20 -20 -20 -18 -4 0 2 -0 -18 -20 -20 -20 -20 -20 -20 -20 -20 -20
31 3 4 -20 13 9 21 15 -19 -20 -20 -20 -14 -20 -19 -11 3 9 28 -0 9 0 23 1 12 -14 22 7 -8 -20 -12 -20 -6 -20 -20 -20 -20 -20 -20 -20 -20 -20 -20 -20
23 18 -5 -16 10 -0 20 14 -4 -20 -20 -20 -20 -20 -20 -20 15 -16 4 33 31 26 22 30 14 -20 -20 -20 -20 -4 -15 -20 -20 -20 -20 -20 -20 -20 -20 -20 -20 -20 -20 -20
24 16 4 -2 -3 7 18 11 6 -20 -20 -20 -20 -20 -18 -20 -16 -9 -6 -5 -20 -20 -20 -20 -20 -3 -18 -20 -20 -20 -20 -20 -20 -20 -20 -20 -20 -20 -20 -20 -20 -20 -20 -20
15 16 1 11 -11 9 19 21 21 -20 -20 -20 -17 -20 -10 -20 -20 -20 -20 -19 -16 -20 -20 -20 -20 -20 -20 -20 -20 -20 -20 -20 -20 -20 -20 -20 -20 -20 -20 -20 -20 -20 -20 -20
8 12 -7 8 -17 17 21 14 19 4 -20 -20 -4 -20 -20 -18 -19 -20 -20 -20 -20 -20 -20 -20 -20 -20 -20 -20 -20 -20 -20 -20 -20 -20 -20 -20 -20 -20 -20 -20 -20 -20 -20 -20
15 17 6 -7 -2 16 8 12 2 25 20 -12 -17 -20 -20 -20 -20 -20 -20 -20 -20 -20 -20 -20 -20 -20 -20 -20 -20 -20 -20 -20 -20 -20 -20 -20 -20 -20 -20 -20 -20 -20 -20 -20
13 5 -1 -10 19 22 20 -2 4 12 26 28 27 25 -20 -20 -20 -20 -20 -20 -20 -20 -20 -20 -20 -20 -20 -20 -19 -20 -20 -20 -20 -20 -20 -20 -20 -20 -20 -20 -20 -20 -20 -20
21 1 -2 18 14 19 22 19 17 1 26 21 4 -7 -17 -20 -20 -20 -20 -20 -20 -20 -20 -20 -20 -20 -20 -20 -20 -20 -20 -20 -20 -20 -20 -20 -20 -20 -20 -20 -20 -20 -20 -20
13 -10 4 20 11 22 16 18 -15 19 29 -1 -20 -20 -20 -20 -20 -20 -20 -20 -16 4 2 -3 -7 -20 -20 -20 -20 -20 -20 -20 -20 -20 -20 -20 -20 -20 -20 -20 -20 -20 -20 -20
-8 -12 -20 -16 -1 -1 3 1 -20 -20 -20 -20 -20 -20 -20 -20 -20 -20 -20 -20 -20 -20 -20 -20 -20 -20 -20 -20 -20 -20 -20 -20 -20 -20 -20 -20 -20 -20 -20 -20 -20 -20 -20 -20
-15 -19 3 7 -2 -9 -20 -20 -20 -20 -20 -20 -17 -20 -20 -20 -20 -20 -20 -20 -20 -20 -20 -16 -20 -20 -20 -20 -20 -20 -20 -20 -20 -20 -20 -20 -20 -20 -20 -20 -20 -20 -20 -20
1 7 5 -1 -4 -20 -20 -20 -20 -20 -20 -20 -15 -20 -20 -20 -20 -20 -20 -20 -20 -20 -20 -20 -20 -20 -20 -20 -20 -20 -20 -20 -20 -20 -20 -20 -20 -20 -20 -20 -20 -20 -20 -20
36 34 5 -20 -20 -20 -20 -20 -20 -20 -20 5 -3 -12 -20 -20 -20 -20 -20 -20 -20 -20 -20 -20 -20 -20 -20 -20 -20 -20 -20 -20 -20 -20 -20 -20 -20 -20 -20 -20 -20 -20 -20 -20
29 24 1 -20 -20 -20 -20 -20 -20 -14 -2 -5 -20 -20 -20 -20 -20 -20 -20 -16 -20 -20 -20 -20 -20 -20 -20 -20 -20 -20 -20 -20 -20 -20 -20 -20 -20 -20 -20 -20 -20 -20 -20 -20
29 15 7 -20 -20 -20 -20 -20 -20 -2 -7 -6 -20 -20 -20 -20 -20 -20 -20 -20 -20 -20 -20 -20 -20 -20 -20 -20 -20 -20 -20 -20 -20 -20 -20 -20 -20 -20 -20 -20 -20 -20 -20 -20
24 8 -12 -20 -20 -20 -20 -20 -12 2 -8 -20 -20 -20 -20 -20 -20 -20 -20 -20 -20 -20 -20 -20 -20 -20 -20 -20 -20 -20 -20 -20 -20 -20 -20 -20 -20 -20 -20 -20 -20 -20 -20 -20

GFSNW_prec_radar_021.txt.gz
Reflectivity
10 21 15 14 9 23 15 8 24 8 -20 31 17 14 31 21 18 25 30 20 -16 -20 -20 -20 7 -3 -18 -15 -7 26 28 37 42 29 11 -5 -18 -20 -20 -20 -20 -20 -20 -20
27 18 17 18 16 22 -2 17 18 22 4 16 9 22 27 25 24 25 17 15 -18 -20 -20 -3 -20 -20 -20 4 -20 -3 26 22 40 29 -12 -14 3 -20 -20 -20 -20 -20 -20 -20
26 17 13 18 7 14 -7 21 19 24 24 2 8 28 25 22 18 16 15 -18 -9 -20 -20 -20 -20 -19 -20 -6 -20 14 11 2 19 21 31 14 -19 -20 -17 -20 -20 -20 -20 -20
23 26 21 -7 4 16 7 22 14 -3 18 11 -4 25 24 29 29 8 -16 25 -6 -20 -20 -20 -20 -20 -20 -20 -20 -20 -14 -14 -20 -18 -16 -16 8 5 -10 -20 -20 -20 -20 -20
22 27 26 -20 -9 18 15 24 15 -9 9 -12 -20 24 16 28 19 29 19 27 -20 -20 -20 -20 -20 -20 -7 -20 4 12 4 -9 -20 -20 -20 -20 -20 -20 -20 -20 -20 -20 -20 -20
24 32 5 -20 -5 17 8 15 6 -12 -20 4 3 16 11 34 27 17 20 13 -14 -17 -20 -19 -16 -20 -20 -20 -20 -14 9 -5 -18 9 -20 -20 -20 -20 -20 -20 -20 -20 -20 -20
23 32 30 -20 10 10 -9 1 8 21 -10 -20 -15 7 32 27 31 15 26 14 -5 -20 -20 -17 -3 7 -5 -20 -20 -20 -20 5 -7 -6 -20 -3 -20 -20 -20 -20 -20 -20 -20 -20
23 21 2 -20 13 14 -20 7 13 12 -6 -20 -20 26 32 28 27 31 9 -3 23 -13 -20 -0 -20 11 -20 -20 -20 -10 -13 6 -12 -20 -20 -20 -20 -20 -20 -20 -20 -20 -20 -20
31 30 -0 -20 12 13 7 -5 24 22 1 -20 -3 -14 18 32 30 31 20 -9 -20 -18 -14 12 3 27 -1 1 -18 -9 -12 12 -14 -20 -20 -20 -20 -20 -20 -20 -20 -20 -20 -20
35 33 16 20 7 6 5 -1 19 24 12 -20 -20 -20 12 30 25 30 -16 -17 -5 33 -6 -1 6 29 0 -2 -6 0 20 15 -4 1 -13 -20 -20 -20 -20 -20 -20 -20 -20 -20
30 19 12 12 16 16 -2 0 20 20 6 -20 -20 -20 -20 17 18 32 12 9 -3 -7 -2 3 -20 -17 -17 -20 -20 -20 -11 -15 16 26 8 -20 -19 -20 -20 -20 -20 -20 -20 -20
19 18 22 13 13 12 5 7 16 18 7 -6 -20 -20 -20 8 25 9 32 24 10 25 20 -12 -20 -20 -5 -20 -20 -20 17 -8 -20 -20 -18 8 -17 -20 -20 -20 -20 -20 -20 -20
30 25 18 10 15 15 2 3 23 16 -18 -19 -20 -20 -20 -9 13 21 26 23 29 6 20 20 26 -17 -16 -2 -14 -20 -20 -18 -20 -20 -20 -20 -20 -20 -20 -20 -20 -20 -20 -20
28 23 21 9 13 13 11 -3 24 22 -20 -18 -20 -20 -20 -20 3 11 -8 33 34 29 27 22 26 22 7 -7 -5 -5 -20 -3 -16 -20 -9 -20 -20 -20 -20 -20 -20 -20 -20 -20
19 17 18 18 9 16 10 -5 26 27 -20 11 -20 -20 -20 -20 -20 -11 16 -10 -15 -2 22 8 -19 -8 -4 -20 -20 -20 -20 -20 -20 -20 -20 -20 -20 -20 -20 -20 -20 -20 -20 -20
22 13 18 15 14 13 9 4 22 28 -18 -20 -20 -20 -20 -18 -20 -20 11 1 -20 -20 -20 -20 -20 -20 -20 -20 -20 -18 -20 -20 -20 -20 -20 -20 -20 -20 -20 -20 -20 -20 -20 -20
28 20 21 13 14 7 7 5 6 27 15 -16 -9 -18 -20 -20 -20 -20 -20 -10 -17 -3 -19 -20 -20 -20 -20 -17 -13 -20 -20 -20 -20 -20 -20 -20 -20 -20 -20 -20 -20 -20 -20 -20
25 18 23 16 14 15 -7 -15 -3 29 29 -7 -6 -14 -20 -20 -20 -20 -20 -20 -20 -20 -20 -20 -20 -20 -20 -20 -20 -20 -20 -20 -20 -20 -20 -20 -20 -20 -20 -20 -20 -20 -20 -20
28 25 19 5 11 12 -1 11 19 1 31 31 26 16 -14 -20 -20 -20 -20 -20 -20 -20 -20 -20 -20 -20 -20 -13 -10 -3 -19 -20 -20 -20 -20 -20 -20 -20 -20 -20 -20 -20 -20 -20
34 15 5 10 1 9 -20 23 16 19 3 25 14 -1 1 0 -2 -16 -20 -20 -20 5 -20 -20 -20 -20 -20 -20 1 -0 -20 -20 -20 -20 -20 -20 -20 -20 -20 -20 -20 -20 -20 -20
37 24 -6 5 12 8 12 33 27 30 28 3 -8 -20 -20 -20 -20 -15 -18 -2 -3 -12 -9 -15 -20 -20 -20 -20 -20 -20 -20 -20 -20 -20 -20 -20 -20 -20 -20 -20 -20 -20 -20 -20
32 -2 11 0 11 20 12 18 -3 -20 -20 -18 -20 -20 -20 -20 -20 -20 3 -20 -20 -20 -20 -12 -18 -20 -20 -20 -20 -20 -20 -20 -20 -20 -20 -20 -20 -20 -20 -20 -20 -20 -20 -20
29 -5 21 10 2 -17 -20 -18 -20 -20 -5 -13 -9 -7 -20 -20 -20 -20 -20 -20 -20 -20 -18 -18 -20 -20 -20 -20 -20 -20 -20 -20 -20 -20 -20 -20 -20 -20 -20 -20 -20 -20 -20 -20
34 31 21 -12 -18 -20 -20 -20 -20 -20 -16 3 6 2 -20 -20 -20 -20 -20 -20 -20 -20 -20 -20 -20 -20 -20 -20 -20 -20 -20 -20 -20 -20 -20 -20 -20 -20 -20 -20 -20 -20 -20 -20
32 11 -17 -20 -20 -20 -20 -20 -20 -7 -1 -5 -5 -17 -20 -20 -20 -20 -20 -14 -20 -20 -20 -20 -20 -20 -20 -20 -20 -20 -20 -20 -20 -20 -20 -20 -20 -20 -20 -20 -20 -20 -20 -20
31 22 -15 -10 -20 -20 -20 -20 -14 -2 3 -0 -11 -20 -20 -20 -20 -20 -20 -20 -20 -20 -20 -20 -20 -20 -20 -20 -20 -20 -20 -20 -20 -20 -20 -20 -20 -20 -20 -20 -20 -20 -20 -20
27 14 -18 -20 -20 -20 -19 -20 -3 4 -0 -19 -20 -20 -20 -20 -20 -20 -20 -20 -20 -20 -20 -20 -20 -20 -20 -20 -20 -20 -20 -20 -20 -20 -20 -20 -20 -20 -20 -20 -20 -20 -20 -20

GFSNW_prec_radar_024.txt.gz
Reflectivity
31 40 27 21 34 21 25 23 31 -14 15 33 27 14 -6 2 21 30 26 17 12 -11 -1 -20 -1 -18 -20 4 -3 12 3 24 30 30 7 36 23 5 -2 -20 16 15 -20 -20
32 37 23 17 34 11 -1 28 16 18 18 26 13 -4 -3 21 25 27 25 10 6 5 4 4 -18 -20 -20 -3 -7 -0 26 29 3 32 14 40 39 10 -6 -9 -5 10 -20 -20
31 37 29 28 35 1 2 34 16 28 31 21 8 -8 13 29 27 29 23 10 -4 -8 -20 -20 -20 -20 -20 -9 12 7 30 40 40 35 -9 5 4 -20 -20 -20 -0 -20 -20 -20
30 36 23 36 26 -6 15 27 17 10 20 7 11 7 13 30 32 27 25 15 8 -18 -0 -20 -20 -20 4 -9 3 11 26 39 30 -2 4 -17 10 -20 -20 -20 -20 -20 -20 -20
30 36 26 11 21 5 -5 23 13 19 12 -3 -5 -16 10 30 29 30 17 -6 -20 -20 -20 -20 -20 -20 -20 -20 -20 -20 -15 10 29 9 15 10 12 -20 -20 -20 -20 -20 -20 -20
28 35 31 30 19 10 11 20 2 5 15 19 2 -14 16 30 32 22 -2 2 -8 7 -20 -20 25 -15 -20 -12 -20 -20 -6 10 -12 -6 -20 -20 -1 -20 -20 -16 -20 -20 -20 -19
36 33 21 29 36 8 -16 -1 -2 16 12 24 -8 9 23 26 31 30 12 24 -18 -19 -20 -20 7 6 -17 13 -12 -20 -20 -8 -10 -10 -20 -20 -20 -20 -20 -20 -20 -20 -20 -20
25 16 17 7 14 18 -10 -13 10 22 25 16 -1 10 18 25 32 31 21 14 -13 -20 -20 10 34 15 6 -0 -7 -18 -20 -18 -20 -20 -20 -4 -20 -20 -20 -20 -20 -20 -20 -20
19 20 38 36 23 8 12 -20 -12 19 18 22 -13 -12 28 18 32 33 18 17 13 -20 -14 10 -20 7 16 -19 6 6 2 12 -10 -20 -20 -20 -20 -20 -20 -20 -20 -20 -20 -20
18 30 36 15 12 23 14 1 -20 24 25 16 -19 -15 22 25 32 30 24 -10 24 -6 4 10 -20 -18 -7 -20 -20 -20 0 14 -11 -20 -20 -20 -20 -20 -20 -20 -20 -20 -20 -20
24 23 22 22 25 20 18 6 -20 11 20 10 -20 -19 -14 3 30 31 20 7 -4 11 16 8 8 -18 18 -20 -20 -20 -16 -7 6 -15 -6 -20 -20 -20 -20 -20 -20 -20 -20 -20
25 33 21 13 9 17 19 10 -20 20 23 21 -20 -20 -7 -20 27 31 28 4 -20 1 11 -17 -20 -20 -20 -19 -20 -20 -20 -20 -20 -20 12 -9 -16 -20 -20 -20 -20 -20 -20 -20
17 33 29 21 22 9 17 -8 -3 26 21 15 -18 -20 -20 -20 14 23 30 27 17 -2 6 -9 -20 -20 -20 -20 -20 -20 -20 -20 -20 -20 -20 -20 -10 -20 -20 -20 -20 -20 -20 -20
13 29 21 17 7 17 17 -3 3 22 25 18 -15 -20 -20 -20 -20 23 22 30 25 26 24 25 14 -14 -11 -20 -20 -16 -5 -8 -20 -20 -20 -20 -20 -20 -20 -20 -20 -20 -20 -20
12 25 27 20 13 16 16 -19 -2 27 27 22 -19 -20 -20 -20 -20 19 16 31 28 32 32 28 25 11 11 5 -18 -20 -20 -20 -20 -20 -9 -8 -20 -20 -20 -20 -20 -20 -20 -20
8 16 31 20 14 18 12 17 -7 24 26 8 -10 -20 -20 -20 -20 -6 12 14 -7 -1 17 28 25 -9 -20 -20 -20 -20 -20 -20 -20 -20 -20 -20 -20 -20 -20 -20 -20 -20 -20 -20
8 26 31 23 15 13 4 13 -13 11 25 18 -20 12 -20 -20 -20 -20 -17 -10 9 -15 -20 -20 -20 -20 -20 -20 -20 -20 -19 -0 -18 -20 -20 -20 -20 -20 -20 -20 -20 -20 -20 -20
7 25 31 20 20 20 -14 13 17 12 24 16 -5 -17 -20 -20 1 -20 -20 -20 -19 12 -1 -20 -20 -20 -20 -15 -13 -20 -18 -20 -20 -20 -20 -20 -20 -20 -20 -20 -20 -20 -20 -20
10 31 33 23 19 6 -15 17 16 18 30 27 -17 -20 -12 -20 -20 -20 -20 -20 -16 -20 -20 -19 -20 -20 -19 5 -1 -20 -20 -20 -20 -20 -20 -20 -20 -20 -20 -20 -20 -20 -20 -20
29 37 24 21 14 13 3 -7 18 24 26 28 23 -3 -18 -20 -15 -20 -20 -20 -7 -6 -20 -20 -20 -20 10 7 9 -20 -20 -20 -20 -20 -20 -20 -20 -20 -20 -20 -20 -20 -20 -20
40 37 33 17 3 -0 12 27 22 23 24 2 2 21 26 -4 4 20 3 -14 -20 -20 -20 -20 -20 -20 -0 14 0 -20 -20 -20 -20 -20 -20 -20 -20 -20 -20 -20 -20 -20 -20 -20
30 27 32 1 10 13 -16 24 19 3 -15 -15 -10 -18 -6 -7 12 -1 12 -5 -19 -20 -20 -20 -20 -20 -20 -20 -20 -20 -20 -20 -20 -20 -20 -20 -20 -20 -20 -20 -20 -20 -20 -20
27 35 27 21 14 -2 -20 -8 -4 -20 -20 -20 -14 -0 -13 -20 -20 -20 -20 -20 -20 -20 -20 -20 -20 -20 -20 -20 -20 -20 -20 -20 -20 -20 -20 -20 -20 -20 -20 -20 -20 -20 -20 -20
38 41 22 -5 0 -20 -20 -20 -20 -20 -20 -8 5 -2 -10 -20 -20 -20 -20 -20 -20 -20 -20 -20 -20 -20 -20 -20 -20 -20 -20 -20 -20 -20 -20 -20 -20 -20 -20 -20 -20 -20 -20 -20
34 19 -14 -20 -20 -20 -20 -20 -20 -20 -18 4 -9 -20 -20 -20 -20 -20 -20 -20 -20 -20 -20 -20 -20 -20 -20 -20 -20 -20 -20 -20 -20 -9 -17 -20 -20 -20 -20 -20 -20 -20 -20 -20
29 14 -18 -20 -20 -20 -20 -20 -20 -20 2 9 0 -20 -20 -20 -20 -20 -20 -20 -20 -20 -20 -20 -20 -20 -20 -20 -20 -20 -20 -20 -20 -20 -20 -20 -20 -20 -20 -20 -20 -20 -20 -20
24 4 -20 -20 -20 -20 -20 -20 -9 7 6 -2 -19 -20 -20 -20 -20 -20 -20 -20 -20 -20 -20 -20 -20 -20 -20 -20 -20 -20 -20 -20 -20 -20 -20 -20 -20 -20 -20 -20 -20 -20 -20 -20

GFSNW_prec_radar_027.txt.gz
Reflectivity
32 24 35 24 33 35 37 26 27 17 40 29 31 19 -20 -20 -20 8 24 26 15 16 5 -5 -20 -20 -20 -12 -14 3 4 28 6 5 12 14 17 17 19 23 37 32 -14 -20
32 24 29 23 38 29 46 3 27 17 32 28 20 5 3 -20 -6 26 28 25 21 3 -3 10 -20 -20 -18 -4 -6 11 19 24 6 3 31 25 34 13 19 38 -12 15 -5 -20
32 23 29 30 30 40 23 21 15 39 33 11 4 -1 4 -8 -5 28 32 27 21 20 -20 -20 -20 -20 -20 -20 -1 22 26 34 35 33 17 16 30 38 30 30 18 12 17 -20
32 24 26 26 20 39 25 -2 4 25 24 19 -12 -8 7 -14 28 24 31 31 18 5 2 5 -20 -20 -17 7 10 27 32 35 36 24 1 18 28 18 14 12 17 18 1 -18
23 26 31 31 23 35 26 -7 6 -20 -20 -20 9 19 18 3 21 27 26 31 13 -19 1 -20 -20 -20 -14 8 11 23 19 34 33 29 -15 -2 5 -20 19 13 15 -3 9 -20
19 30 30 26 41 35 26 -8 -3 29 6 -20 -13 12 7 -6 -9 12 22 29 18 14 -20 -20 -20 -20 -18 -16 1 -20 -20 6 24 31 27 -20 -20 -20 -20 -20 -19 -13 -20 -20
12 21 27 35 34 36 25 -1 0 18 -0 17 3 25 13 15 22 26 15 26 18 4 -20 -20 -20 -17 -20 -4 16 -20 -20 -20 3 -5 -11 -12 -17 -20 -20 5 2 -20 -11 25
19 20 17 30 23 23 18 -5 -20 -8 1 -18 21 27 -14 23 23 22 24 20 4 -20 -20 15 -1 17 16 -19 -20 1 -20 -20 14 -20 -20 -20 -20 -20 -20 -20 -20 -20 -20 -20
17 20 27 34 33 22 7 -16 -20 6 1 7 20 28 12 17 27 27 23 10 19 -20 -16 11 -10 27 -17 -19 -20 18 -13 9 3 -20 -20 -20 -20 -20 -20 -20 -20 -20 -20 -20
18 24 15 15 19 16 20 21 -10 9 -16 1 26 21 24 28 28 33 32 22 26 -17 -1 13 -20 -4 -20 -20 -20 -2 -4 11 9 -18 -20 -20 -20 -20 -20 -20 -20 -20 -20 -20
12 16 9 31 28 19 29 9 5 11 15 7 23 -1 6 28 27 31 28 29 21 3 1 -7 -15 -20 -20 -20 -20 -20 -16 9 -2 -20 -20 -20 -20 -20 -20 -20 -20 -20 -20 -20
11 13 16 25 11 14 22 12 -3 11 -1 8 22 -2 2 22 -19 24 30 18 -6 0 12 -19 -20 -20 -20 -20 -20 -20 -20 -20 -19 -20 7 -20 -20 -20 -20 -20 -20 -20 -20 -20
10 14 24 33 21 18 22 6 -6 -1 8 9 10 -20 -2 9 -13 26 30 30 22 10 -6 20 -20 -20 -20 -20 -20 -20 -20 -20 -20 -2 -15 -20 -20 -20 -20 -20 -20 -20 -20 -20
18 13 21 29 20 23 22 -6 -0 -8 19 22 11 -20 -20 4 -20 22 27 32 26 -19 -12 -16 1 -20 -20 -13 -20 -20 -20 -20 -20 -20 -20 -20 -20 -20 -20 -20 -20 -20 -20 -20
18 10 14 20 23 18 14 -3 -18 6 21 28 18 -20 -20 -20 -20 -7 16 16 29 15 15 2 -14 -19 -19 -7 6 -20 -20 -20 -18 -15 -20 -20 -20 -20 -20 -20 -20 -20 -20 -20
10 10 16 26 19 19 17 21 -4 4 14 30 18 -20 -20 -20 -20 -10 14 29 29 32 27 25 23 26 7 -18 -16 -20 -20 -20 -20 -20 -20 -20 -20 -20 -20 -20 -20 -20 -20 -20
11 4 12 28 26 14 16 9 -18 -20 19 25 -2 -17 -20 -20 -20 -16 5 8 18 11 1 4 15 16 -20 -20 -20 -20 -20 -20 -20 -18 -20 -20 -20 -20 -20 -20 -20 -20 -20 -20
-1 -5 25 30 25 21 18 -8 -0 -0 16 17 8 -19 -20 -20 -20 -20 -20 -20 -20 3 5 -7 -1 -20 -20 -20 -20 -20 -20 -20 -12 -20 -20 -20 -20 -20 -20 -20 -20 -20 -20 -20
10 3 28 31 21 11 1 23 6 14 15 31 0 -20 -20 -20 -20 -20 -5 -20 -20 -20 -20 -20 1 8 -20 -20 -20 -20 -20 -20 -20 -20 -20 -20 -20 -20 -20 -20 -20 -20 -20 -20
-7 28 36 31 17 16 1 25 4 24 28 4 22 -20 -20 -20 -20 -20 -20 -20 -20 -20 -20 -20 -20 -19 9 -18 -20 -20 -20 -20 -20 -20 -20 -20 -20 -20 -20 -20 -20 -20 -20 -20
17 35 30 21 12 12 7 22 -0 -4 15 14 9 -20 -20 -20 8 12 -17 -20 -20 -20 -20 -20 -20 6 11 -8 -20 -20 -20 -20 -20 -14 -20 -20 -20 -20 -20 -20 -20 -20 -20 -20
34 32 31 24 29 23 18 -6 19 7 -20 -20 -18 -18 -2 17 6 -3 14 -4 -20 -20 -20 -20 -17 -7 -17 -20 -20 -20 -20 -20 -20 -20 -20 -20 -20 -20 -20 -20 -20 -20 -20 -20
38 37 37 2 8 -3 -20 -16 4 -20 -20 -19 -20 -20 -13 15 30 6 -17 -20 -20 -20 -20 -20 -20 -20 -20 -20 -20 -20 -20 -20 -20 -20 -20 -20 -20 -20 -20 -20 -20 -20 -20 -20
37 34 23 -19 -20 -20 -20 -20 -20 -20 -20 -12 -3 -19 -20 -20 -17 -20 -20 -20 -20 -20 -20 -20 -20 -20 -20 -20 -20 -20 -20 -20 -20 -20 -20 -20 -20 -20 -20 -20 -20 -20 -20 -20
30 32 9 -20 -20 -20 -20 -20 -20 -15 -5 -2 2 -12 -20 -20 -20 -20 -20 -20 -20 -20 -20 -20 -20 -20 -20 -20 -20 -20 -20 -20 -20 -20 -20 -20 -20 -20 -20 -20 -20 -20 -20 -20
29 26 -6 -20 -20 -20 -20 -20 -20 -20 -17 -4 -14 -20 -20 -20 -20 -20 -20 -20 -20 -18 -20 -20 -20 -20 -20 -20 -20 -20 -20 -20 -20 -20 -20 -20 -20 -20 -20 -20 -20 -20 -20 -20
26 9 -19 -20 -20 -20 -17 3 9 5 -20 -20 -20 -20 -20 -20 -20 -20 -20 -20 -20 -20 -20 -20 -20 -20 -20 -20 -20 -20 -20 -20 -20 -20 -20 -20 -20 -20 -20 -20 -20 -20 -20 -20

GFSNW_prec_radar_030.txt.gz
Reflectivity
8 22 34 26 23 16 24 25 39 38 44 30 25 22 -17 -20 -20 -20 1 -14 8 6 15 13 -20 -20 -20 -20 -20 15 6 29 7 20 -1 17 13 -1 -20 9 -20 -9 17 0
8 24 33 27 25 32 34 33 41 36 39 30 18 2 -6 -20 -20 -19 15 6 -1 5 11 12 -20 -20 -20 -20 -20 22 25 25 11 20 34 29 18 -6 -7 -16 12 24 20 -18
-1 27 36 28 34 26 30 40 43 32 38 14 2 -12 -13 2 -20 7 -3 22 25 14 5 0 -15 -20 -20 -20 -19 -4 25 30 21 22 23 10 30 18 13 9 11 21 32 8
11 18 28 22 25 20 35 32 33 18 22 18 -1 3 9 2 8 -6 18 18 25 18 10 -20 -20 -20 -10 -20 6 24 33 34 35 33 32 32 3 7 12 11 22 5 15 35
8 16 15 23 26 30 34 38 26 -17 -14 6 -4 -6 1 -3 -20 14 17 23 28 15 9 -20 -20 -20 -18 9 1 27 34 37 41 38 9 28 24 21 17 29 31 37 31 18
7 6 10 28 35 36 37 33 -15 -20 -20 -7 -7 -2 -13 -17 19 3 -3 21 27 24 -0 -20 -20 -20 -3 10 0 30 27 34 39 -6 31 20 35 33 38 40 39 32 -5 -10
-19 -5 17 19 26 30 35 23 -20 -20 -8 -19 -15 -17 -20 -14 1 20 22 24 17 -16 -14 -20 -20 -20 -20 -20 -8 -10 -2 14 35 29 -20 -20 -20 -20 -20 -19 6 -0 18 -14
-20 -4 14 27 36 27 27 26 -8 -20 -5 7 21 2 16 20 9 23 26 14 -6 17 -3 -7 -9 -20 -20 -20 -20 -1 -7 -18 3 14 -20 -20 -18 -20 -20 -20 -20 -20 -20 -20
-20 4 15 13 30 32 28 29 10 -19 13 -16 6 3 20 23 22 26 24 26 20 13 -18 20 -20 -20 15 -19 -20 -20 8 -20 9 -20 -20 -20 -20 -20 -20 -20 -20 -20 -20 -20
-2 -3 11 17 20 30 29 25 9 -18 8 3 -19 18 25 18 20 27 30 29 16 6 -7 16 -20 -20 -18 -20 -20 -20 -7 -18 -20 -20 -20 -20 -20 -20 -20 -20 -20 -20 -20 -20
-20 -19 13 14 29 30 25 4 3 4 17 12 -13 20 12 27 23 29 29 32 8 18 5 9 -20 -20 -20 -20 -20 -20 -18 -20 -20 -17 -20 -20 -20 -20 -20 -20 -20 -20 -20 -20
-20 -17 14 13 17 30 26 6 9 15 6 13 11 11 18 16 25 26 21 26 3 -9 6 -2 -19 -20 -20 -20 -20 -20 -20 -20 -20 -20 -20 -20 -20 -20 -20 -20 -20 -20 -20 -20
-20 -6 16 11 12 20 23 -1 -5 -5 15 6 14 8 -3 9 28 13 26 25 30 18 -16 -20 -20 -20 -20 -20 -20 -20 -20 -20 -20 -20 -16 -20 -20 -20 -20 -20 -20 -20 -20 -20
-20 7 10 4 24 21 26 -7 -6 -2 7 2 18 -14 -15 22 19 21 27 33 23 26 -6 -19 0 -12 -20 -20 -20 -20 -20 -20 -20 -20 -9 -20 -20 -20 -20 -20 -20 -20 -20 -20
-17 5 10 0 26 20 18 -6 -9 11 3 23 26 -13 -20 8 0 -14 24 26 25 25 23 18 8 -13 -20 -20 -20 -20 -20 -20 -15 -20 -20 -20 -17 -20 -20 -20 -20 -20 -20 -20
9 10 3 5 23 21 27 9 -7 -17 -10 23 28 3 -20 -20 1 -16 21 4 23 33 29 -16 -20 -5 21 -6 -20 9 -19 1 0 -20 6 -20 -20 -20 -20 -20 -20 -20 -20 -20
6 -1 1 -19 26 26 21 5 -13 -20 -0 11 24 18 -20 -20 -20 6 -17 26 25 28 32 10 -1 -1 6 8 -20 -20 -20 -20 -20 -18 -20 -19 -16 8 -20 -20 -20 -20 -20 -20
8 2 -1 6 24 25 11 -6 -4 1 -12 -1 20 12 -20 3 -20 -20 6 2 3 0 16 6 16 17 -6 -20 -20 -20 -8 -12 -20 14 -20 -19 -20 -20 -20 -20 -20 -20 -20 -20
4 5 -16 24 23 12 9 17 19 -20 -0 7 -6 -17 -19 -20 -2 -20 -20 3 -19 -18 -20 -4 -19 -20 -1 -20 -20 -20 -20 -14 -20 -19 -20 -20 -20 -20 -20 -20 -20 -20 -20 -20
2 -9 30 29 18 20 -6 19 23 25 4 -17 13 -20 -20 -20 -20 -20 -20 -20 -20 -20 -20 -20 -20 -20 5 12 -17 -20 -20 -20 -20 -20 -20 -20 -20 -20 -20 -20 -20 -20 -20 -20
3 28 30 26 20 20 16 31 29 22 24 11 -20 -20 -20 -20 -20 -20 -20 -20 -20 -20 -20 -20 -20 -20 -20 -20 -20 -20 -20 -20 -20 -20 -20 -20 -20 -20 -20 -20 -20 -20 -20 -20
23 34 34 35 27 31 15 21 26 -3 -20 -20 -11 -20 -20 -20 -18 12 5 -20 -20 -20 -20 -20 -19 -20 -20 -20 -20 -20 -20 -20 -20 -20 -20 -18 -20 -20 -20 -20 -20 -20 -20 -20
27 33 40 36 29 26 -15 -16 -0 -10 -20 -20 -19 -20 -20 4 17 18 11 4 -20 -20 -20 -20 -20 -20 -20 -20 -20 -20 -20 -20 -20 -20 -20 -20 -20 -20 -20 -20 -20 -20 -20 -20
33 29 26 5 -3 -20 -20 -20 -20 -20 -20 -16 -15 -20 -19 -13 19 31 -19 -20 -20 -20 -20 -20 -20 -20 -20 -20 -20 -20 -20 -20 -20 -20 -20 -20 -20 -20 -20 -20 -20 -20 -20 -20
29 27 22 -11 -20 -20 -20 -20 -20 -20 -20 -2 2 -15 -20 -20 -19 -20 -20 -20 -20 -20 -9 -19 -20 -20 -20 -20 -20 -20 -20 -20 -20 -20 -20 -20 -20 -20 -20 -20 -20 -20 -20 -20
23 25 2 -20 -20 -20 -20 -20 -20 -19 -20 -20 -20 -20 -20 -20 -13 -20 -20 -20 -20 -19 -20 -20 -20 -20 -20 -20 -20 -20 -20 -20 -20 -20 -20 -2 -15 -20 -20 -20 -20 -20 -20 -20
20 8 -6 -20 -20 -20 -20 -20 -18 -17 -20 -20 -20 -20 -20 -20 -20 -20 -20 -20 -20 -20 -20 -20 -20 -20 -20 -20 -20 -20 -20 -20 -20 -20 -20 -20 -20 -20 -20 -20 -20 -20 -20 -20

GFSNW_prec_radar_033.txt.gz
Reflectivity
-20 3 24 35 31 33 19 14 21 34 32 40 37 9 -20 -20 -20 -20 -20 -20 -20 -0 -13 8 -20 -20 -20 -20 -20 -2 -20 28 2 14 24 16 7 24 14 -11 -20 -20 5 -20
-20 14 13 27 24 26 33 38 12 21 29 31 37 21 -20 -20 -20 -20 -20 -20 -18 4 17 23 -11 -20 -20 -20 -20 -20 -4 17 3 -1 28 30 31 23 24 22 -19 -20 -20 -20
-13 -2 15 22 23 35 30 33 37 37 38 34 -6 -8 -3 -20 -15 -20 -20 -13 4 20 17 3 -14 -20 -20 -20 -20 -20 -15 26 20 16 18 35 27 13 16 13 -17 -20 -20 -20
-12 7 10 20 23 31 21 20 34 29 32 35 -0 -20 -20 -17 -3 -20 4 9 -0 21 18 -2 -3 -20 -20 -20 -20 -20 9 19 18 16 29 31 30 31 12 -8 8 9 11 5
-18 6 4 4 24 29 16 25 35 16 -5 -0 13 24 2 -17 -7 -20 -2 7 -20 9 19 -11 -20 -20 -20 -20 -20 7 26 26 32 12 26 21 26 24 12 3 16 2 11 8
-10 -0 7 -9 28 24 20 19 30 17 17 -3 8 -8 -2 -5 -11 -16 -14 -20 -8 6 -6 -2 -18 -15 -20 -2 12 27 25 26 32 29 35 29 29 29 17 -16 4 15 25 1
-13 -11 2 1 25 22 22 23 35 29 2 0 6 6 -12 -20 -18 4 -5 5 18 -1 -10 7 8 -20 -20 -1 5 -10 9 28 30 27 28 17 22 21 27 26 22 32 33 13
-20 -20 -19 -19 19 24 13 30 29 0 11 -17 -13 -0 -20 -18 2 21 20 17 16 10 16 21 15 -20 -20 -20 -5 -6 -0 20 30 20 -14 21 -5 -5 13 20 30 36 -1 4
-20 -20 -20 -19 19 20 12 28 9 -20 -20 -20 5 7 6 5 16 19 22 20 25 24 19 23 -20 -20 -20 -20 -19 -20 -20 24 -2 -20 -20 -5 -16 -20 -20 17 30 -18 7 30
-20 -20 -20 6 17 21 26 23 30 9 -20 -20 -20 -20 -10 -18 20 29 27 25 24 14 23 14 -18 -20 -20 -20 -20 -10 -17 16 -17 -20 -20 -20 -20 -20 -20 -20 -11 -17 -20 -15
-2 -20 -20 13 12 27 18 4 24 -10 -20 -20 -20 -18 0 2 27 27 26 30 27 16 7 34 -9 -20 -20 -20 -20 -20 -20 -20 -20 -12 -20 -20 -20 -20 -20 -20 -20 -20 -20 -20
-18 -20 -7 14 10 24 22 15 6 -18 9 -3 -14 -20 16 15 23 29 26 27 32 13 -20 -1 -4 -20 -20 -20 -20 -20 -20 -20 -20 -20 -20 -20 -20 -20 -20 -20 -20 -20 -20 -20
-20 -20 -11 -2 13 20 17 24 20 -9 24 -7 -18 -20 21 20 26 22 25 18 17 21 -20 -11 -11 -19 -20 -20 -20 -20 -20 -20 -20 -20 -20 -20 -20 -20 -20 -20 -20 -20 -20 -20
1 9 9 2 11 16 21 5 -4 1 -20 -18 -10 19 19 10 21 26 24 23 24 2 15 13 10 -20 -20 -20 -20 -20 -20 -20 -20 -20 -20 11 -20 -20 -20 -20 -20 -20 -20 -20
10 16 3 -20 1 11 -0 -2 -7 -20 7 13 11 19 -0 10 25 22 27 27 24 30 28 -8 -12 -20 -20 -20 -20 -20 -20 -20 -20 -20 -20 -20 -20 -20 -20 -20 -20 -20 -20 -20
-10 12 10 -4 11 18 16 24 -17 -9 -2 1 27 25 -18 -4 18 8 20 24 24 22 31 18 -20 -20 -20 -20 -20 -20 -20 -20 -20 -20 -20 -20 -20 -20 -20 -20 -11 -6 -20 -20
-2 -14 -18 -19 10 14 9 -1 -18 -20 -20 15 29 26 -20 -20 -5 13 17 21 22 22 24 28 0 -8 -12 -20 -20 -20 -20 -20 -20 -20 -20 -8 -0 -20 -20 4 -19 -20 -20 -20
-11 -0 -1 -14 13 14 11 -20 -11 -16 -20 1 27 8 -12 -20 -20 13 -20 10 20 6 19 17 13 -6 -6 -12 -20 -20 -20 -20 -20 -20 -20 -20 -20 -17 -11 14 -20 -20 -20 -20
-17 -3 -14 -6 -1 -5 -6 -16 4 -20 -18 19 -17 -1 8 -19 5 -16 -20 -18 -16 -15 -20 -13 6 3 1 -14 -20 -20 -20 -20 -20 -20 -20 -20 -20 -20 -16 -20 -20 -20 -20 -20
-18 3 0 18 1 22 10 32 19 -20 -12 9 -3 -20 -8 -12 10 -19 -20 -15 -20 -20 -20 -20 -20 -20 -20 -20 -20 -20 -20 -20 -20 -8 -20 -20 -20 -20 -20 -20 -20 -20 -20 -20
22 11 23 23 29 26 28 31 22 20 14 -10 -20 -20 -20 -20 -4 -13 -20 -18 -18 -20 -20 -20 -20 -20 -20 -20 -20 -20 -20 -20 -20 -20 -20 -20 -20 -15 -20 -20 -20 -20 -20 -20
3 15 29 31 35 31 18 12 18 12 -20 -20 -20 -20 -20 -20 -20 -8 -5 -20 -20 -20 -20 -20 -20 -20 -20 -20 -20 -20 -20 -20 -20 -20 -20 -20 -20 -20 -20 -20 -20 -20 -20 -20
8 29 34 28 28 20 0 -13 -4 -11 -20 -20 -20 -20 -20 -20 -20 -16 14 -15 -20 -20 -20 -20 -20 -20 -20 -20 -20 -20 -20 -20 -20 -20 -20 -20 -20 -20 -20 -20 -20 -20 -20 -20
22 25 22 8 5 -20 -20 -20 -20 -20 -20 -13 -0 -18 -20 -20 -15 6 -20 -20 -20 -20 -20 -20 -20 -20 -20 -20 -20 -20 -20 -20 -20 -20 -20 -20 -20 -20 -20 -20 -20 -20 -20 -20
25 20 18 8 -7 -20 -20 -20 -20 -20 -20 -20 -20 -1 -16 -4 -10 -19 -20 -20 -20 -20 -20 -20 -20 -20 -20 -20 -20 -20 -20 -20 -20 -20 -20 -20 -20 -20 -20 -20 -20 -20 -20 -20
22 17 17 -14 -20 -20 -14 -15 -20 -20 -20 -20 -20 5 -20 8 -14 -17 -20 -20 -20 -18 -20 -20 -20 -20 -20 -20 -20 -20 -20 -20 -20 -20 -20 -20 -20 -20 -17 -20 -20 -20 -20 -20
-9 -12 -19 -20 -20 -20 -20 -20 -20 -20 -20 -20 -20 -20 -20 -20 -20 -20 -20 -20 -11 -20 -20 -20 -20 -20 -20 -20 -20 -20 -20 -20 -20 -20 -20 -20 1 0 -20 -20 -20 -20 -20 -20

GFSNW_prec_radar_036.txt.gz
Reflectivity
-20 6 -20 16 31 28 16 13 15 29 16 28 40 32 12 -20 -20 -20 -20 -20 -20 -20 -20 -20 -16 -20 -20 -20 -20 -19 -20 -2 -9 -20 -20 -0 19 17 20 25 4 -17 -10 -20
-15 -9 -11 6 20 22 25 23 14 34 32 24 31 27 -14 -13 -20 -20 -20 -20 -20 -20 -11 -10 -9 -20 -20 -20 -20 -20 -20 -7 -20 -20 -20 -7 30 23 32 24 21 7 -20 -20
12 -14 4 11 8 24 21 32 29 34 37 28 5 19 -13 -20 -20 -20 -20 -20 -20 -0 5 -1 -7 -17 -20 -20 -20 -20 -20 -13 -20 -13 2 23 28 21 33 33 21 1 -20 -20
-18 -12 4 6 14 13 16 14 23 18 25 30 12 2 14 -19 -20 -20 -20 -18 -20 -8 9 7 4 -15 -20 -20 -20 -20 -16 -7 4 8 18 15 26 35 30 24 5 -15 -20 -20
7 -20 5 11 16 19 2 33 34 9 10 3 25 9 27 -20 -20 -20 -13 -14 -20 3 11 -5 -20 -20 -20 -20 -20 -20 -1 11 15 9 10 30 33 17 21 18 6 -20 -20 -20
-12 -20 -3 -0 16 29 23 29 37 30 23 19 20 17 -20 -20 -20 -20 -20 -20 -9 0 -18 3 -20 18 -20 -20 -5 14 22 28 30 -7 17 19 32 34 18 -8 -18 -20 -17 4
16 -20 -20 2 11 26 25 22 25 26 19 18 11 12 16 -9 -3 -20 -20 -20 -18 -16 -7 7 16 3 -2 -20 -20 -20 -3 23 28 -12 20 -5 11 27 34 17 -16 -19 25 25
-1 -20 -20 3 3 25 11 12 17 26 9 8 7 8 4 -19 -1 10 2 -3 6 28 26 22 11 -10 -19 -8 -20 -20 -20 -0 26 21 -15 -16 -20 -20 17 23 -19 -20 -8 -2
-16 -7 -20 -20 23 23 9 -0 23 36 2 -20 -5 -20 -3 13 10 -4 7 17 28 26 24 26 7 -20 -20 -20 -20 -20 -20 -20 22 -1 3 -20 -20 -20 -20 -20 19 -0 -15 -20
-1 -11 -20 -20 17 18 13 20 39 1 -17 -20 -20 -17 -20 -3 -9 4 4 20 17 20 26 16 8 -20 -20 -20 -20 -13 2 4 17 -13 -1 -20 7 -20 -20 -20 -10 6 16 18
8 -17 -20 -8 13 15 17 23 3 -14 -20 -20 -20 -20 -20 -20 -20 -1 14 23 28 31 23 16 -19 -20 -20 -20 -20 -20 -20 -20 -20 -20 -20 -14 -10 -20 -20 -20 -20 -20 -20 -20
-15 -20 0 10 12 15 17 30 -6 19 -2 -20 -20 -20 -20 -20 -17 12 23 22 33 26 -3 -16 24 -20 -20 -20 -20 -20 -20 -20 -20 -20 -20 -20 -19 -13 -20 -20 -20 -20 -20 -20
-20 -7 -8 11 3 18 15 15 0 -20 -16 -20 -20 -20 -20 -20 1 24 26 21 21 22 -20 -19 -15 -16 -20 -20 -20 -20 -20 -20 -20 -20 -20 -20 -20 -20 -20 -20 -16 -20 -20 -20
-20 7 9 9 8 10 1 11 21 -17 -20 -20 -20 -20 -7 5 21 26 24 26 26 25 -5 -11 -7 -13 -20 -20 -20 -20 -20 -20 -20 -20 -20 -20 -20 -20 -20 -20 -10 0 -20 -20
-20 -3 -17 -3 8 -17 -16 -15 22 -7 6 3 6 3 6 13 26 28 29 23 18 16 19 -10 -16 28 -12 -20 -20 -20 -20 -20 -20 -20 -20 -20 -11 -19 -20 -20 -20 -20 -16 -20
-12 -17 -20 -20 -8 -3 12 -4 23 -2 -20 -14 8 13 24 1 25 29 30 25 23 15 -5 -0 -20 -20 -18 -17 -20 -20 -20 -20 -20 -20 -20 -20 -20 -20 -20 -20 -2 3 -20 -20
9 11 4 -7 -4 10 20 13 -1 8 -8 -8 14 23 8 -8 14 25 27 27 23 20 23 26 16 -20 -15 -5 -20 -20 -20 -20 -20 -20 -20 -20 -20 -12 -20 -20 -20 1 4 -20
9 8 6 9 -8 21 12 -19 -2 -1 -20 -20 -14 -11 -4 -20 -4 16 14 26 27 21 21 5 -3 -3 8 -18 -20 -20 -20 -20 -20 -20 -17 -19 -19 7 -17 -20 20 -7 -20 -20
-5 0 -17 -20 -5 4 6 -3 -3 -20 -20 -0 -17 -19 -20 -20 6 5 17 11 10 2 -19 2 -12 -8 -20 -16 -20 -20 -20 -20 -20 -20 -14 -20 -20 -18 -20 -20 10 9 -20 -20
11 7 5 -8 -6 25 28 5 13 -16 -13 -2 -7 -20 -20 -19 -20 -20 -20 -20 5 -20 -20 -20 -20 -20 -20 -20 -20 -20 -20 -20 -19 -20 -7 -20 -20 -20 -15 0 1 -20 -20 -20
8 17 17 20 6 31 23 29 24 5 -16 -20 -20 -20 -20 -19 -19 -20 -20 -12 1 -20 -20 -20 -10 -20 -20 -20 -20 -20 -20 -20 -20 -20 -19 -2 -1 -15 -20 -20 -20 -20 -20 -20
9 6 29 16 30 32 30 25 -6 3 -20 -20 -20 -20 -20 -20 -20 -20 -11 -20 -20 -20 -20 -20 -20 -20 -20 -20 -20 -20 -20 -20 -20 -20 -20 -20 -20 -20 -20 -20 -20 -20 -20 -20
-20 24 25 25 30 15 -6 -11 1 -6 -20 -20 -20 -20 -20 -20 -20 -20 -1 -20 -20 -20 -20 -20 -20 -20 -20 -20 -20 -20 -20 -20 -20 -20 -20 -20 -20 -20 -20 -20 -20 -20 -20 -20
8 16 12 -3 11 -5 -10 -20 -20 -9 -19 -20 -20 -20 -20 -20 -20 -18 -20 -20 -20 -20 -20 -20 -20 -20 -20 -20 -20 -20 -20 -20 -20 -20 -20 -20 -20 -20 -20 -20 -20 -20 -20 -20
11 12 11 1 3 4 -20 -20 -20 -20 -20 -20 -20 -15 -20 8 3 -17 -20 -20 -20 -20 -20 -20 -20 -20 -20 -20 -20 -20 -20 -20 -20 -20 -20 -20 -20 -20 -20 -20 -20 -20 -20 -20
-0 4 8 11 -20 -20 -20 1 -20 -20 -20 -20 -20 -8 -1 4 -19 -20 -20 -20 -20 -20 -20 -20 -20 -20 -20 -20 -20 -20 -20 -20 -20 -20 -20 -20 -20 -20 -20 -20 -20 -20 -20 -20
-18 -20 -19 -16 -20 -20 -20 -20 -20 -20 -20 -1 9 -17 -20 -20 -20 -20 -20 -20 -20 -20 -20 -20 -20 -20 -20 -20 -20 -20 -20 -20 -20 -20 -20 -20 -20 -20 -20 -18 -20 -20 -20 -20

GFSNW_prec_radar_039.txt.gz
Reflectivity
17 -20 -20 -19 -8 36 25 24 22 22 26 26 39 36 25 8 -20 -20 -20 -20 -20 -20 -20 -20 -20 -20 -20 -20 -20 -20 -20 -20 -20 -20 -20 -20 -20 -20 11 26 22 21 12 -4
3 -3 -20 -18 -11 28 20 21 36 25 -6 -13 8 20 20 -17 -20 -20 -20 -20 -20 -20 -20 -20 -20 -20 -20 -20 -20 -20 -20 8 -20 -20 -20 -17 -15 -18 18 32 26 23 19 7
-1 -3 -17 -7 1 10 19 33 32 35 7 -13 -16 5 21 -14 -20 -6 -20 -20 -20 -20 -20 -20 -20 -1 -20 -20 -20 -20 -20 -1 -20 -20 -20 15 21 22 35 28 22 2 16 -20
-18 9 -20 -20 4 9 13 24 37 17 -4 -9 -20 -2 -20 -20 24 -14 -20 -20 -20 -20 -19 -14 11 -2 -20 -20 -17 -18 -16 -7 -20 -20 -15 14 25 27 30 24 -1 17 -6 -13
-2 10 -20 -20 -20 13 24 29 17 24 19 12 7 11 -20 -20 -20 -20 -20 -20 -20 -20 -15 -14 -20 -20 -20 -20 -20 -20 -6 6 6 -16 6 18 28 25 31 9 -10 6 -20 -11
-6 -6 -20 -18 -13 22 20 22 32 36 12 14 13 13 -14 10 -3 -20 -20 -20 -20 -20 -20 -20 10 -6 -17 -20 6 -12 5 14 15 -20 -20 -8 1 31 22 -2 -17 -20 -20 -20
-18 -7 10 13 -12 18 19 27 20 32 14 12 3 -19 -18 22 -20 -20 -20 -20 -20 -19 -20 -15 -1 -2 -16 -20 -20 4 8 12 7 -6 -14 -20 -20 4 18 -12 -20 -20 -20 -20
7 -5 10 -20 -3 15 15 4 20 26 27 9 9 -7 -20 -20 -20 -20 -20 -5 -15 -3 24 12 12 20 -10 -20 -20 -20 -20 -19 16 13 2 -20 -20 -20 29 -14 -20 -20 -20 -20
3 14 -15 -20 -14 1 10 11 -11 26 20 7 7 -14 -20 -20 -20 -18 -20 -9 7 21 29 17 13 -20 -20 -20 -20 -20 -20 -20 -15 8 13 -20 -20 -20 -2 -6 -18 15 0 -17
5 -11 -20 -11 -20 -11 14 5 32 23 7 -20 -20 -20 -20 -6 -15 11 -8 4 6 10 24 18 -12 -20 -20 -20 -20 -6 11 15 -3 5 16 -20 -20 -20 -20 20 10 -6 15 23
0 -20 -10 7 6 -18 13 14 33 27 -18 -20 -20 -20 -20 -20 -20 -20 -20 11 -8 17 26 27 -12 -20 -20 -20 -20 -20 -20 -2 6 5 -11 -20 -20 -20 -20 -19 17 24 25 -2
-20 -20 -9 11 10 8 4 21 -0 11 -20 -20 -20 -20 -20 -20 -20 -17 -1 4 23 27 23 15 -3 -20 -20 -20 -20 -20 -20 -20 -20 -20 -20 -20 -20 -20 -20 -20 -20 -19 -20 -7
-20 -20 -20 -19 -7 11 10 18 -5 26 18 -20 -20 -20 -20 -20 -20 -11 -6 22 25 30 12 14 14 24 -20 -20 -20 -20 -20 -20 -20 -20 -20 -20 -20 -20 -20 -17 -20 -20 -20 -20
-17 7 -7 -20 -20 -20 11 4 14 9 -12 -20 -20 -20 -20 -19 2 18 25 24 23 25 28 0 8 -9 13 -20 -20 -20 -20 -20 -20 -20 -20 -20 -20 -20 -20 -20 5 -12 -20 -20
-2 -17 -20 -19 -20 -20 -15 -13 11 21 -5 14 -15 10 -13 -8 14 21 25 24 22 20 27 15 18 -8 13 -20 -20 -20 -20 -20 -20 -20 -20 -20 -20 -20 -17 -20 -20 -19 -20 -20
7 10 4 -0 -4 -20 -12 12 27 13 23 12 -10 1 14 20 24 26 28 23 22 13 13 4 0 -20 -19 -20 -20 -20 -20 -20 -20 -20 -20 -20 -20 -20 -20 -20 -20 -20 -20 -20
6 10 -15 7 -11 -10 11 8 9 18 6 7 -16 19 18 22 16 26 28 27 20 20 16 2 -3 -20 -20 -20 -20 -20 -20 -20 -20 -20 -20 -20 -20 -9 3 -20 -13 22 -14 -20
-2 9 -9 6 1 -9 19 -3 -19 -20 2 -20 -6 4 -3 17 8 12 21 24 23 24 22 3 -1 14 12 7 -20 -20 -20 -20 -20 -20 -20 -20 -20 12 28 -3 10 -16 26 24
8 -2 -4 -19 -20 -19 12 19 5 -20 -20 1 -9 -14 -16 4 5 -5 19 12 20 17 16 -2 -9 -11 -16 -20 -20 -20 -20 -20 -20 -20 -13 -12 -20 15 17 21 22 3 -17 -20
6 -10 -18 -20 -20 14 26 1 -4 11 16 -19 -10 -20 -20 -20 -14 -20 -13 -7 0 -15 -20 -20 -20 -20 -20 -20 -20 -20 -20 -20 -20 29 12 19 -20 -1 23 20 25 25 17 -15
-20 -4 16 -1 9 27 20 28 9 0 -20 -20 -20 -20 -20 -20 -6 -18 -20 -13 -10 -18 -20 -20 -20 -20 -20 -20 -20 -20 -20 -20 -20 -13 -7 10 9 8 -20 -20 -20 -20 -13 -19
3 8 11 9 21 27 12 4 17 -9 -19 -20 -20 -20 -20 -20 -20 -16 -20 -19 -7 -20 -20 -20 -20 -20 -20 -20 -20 -20 -20 -20 -20 -20 -20 -20 -20 -20 -20 -20 -20 -20 -20 -20
-15 -9 20 20 28 20 1 -20 -5 -20 -20 -20 -20 -20 -20 -20 -20 -20 11 -6 -17 -20 -20 -20 -20 -20 -20 -20 -20 -20 -20 -20 -20 -20 -20 -20 -20 -20 -18 -20 -20 -20 -20 -20
15 -14 -20 -8 10 11 19 -20 -20 -20 -20 -20 10 1 -20 2 -20 -20 -12 -20 -20 -20 -20 -20 -20 -20 -20 -20 -20 -20 -20 -20 -20 -20 -20 -20 -20 -20 -20 -20 -20 -20 -20 -20
1 3 -20 -19 -4 15 -11 -20 -20 -20 -20 -20 4 -2 -8 -19 -6 -11 -8 -20 -20 -20 -20 -20 -20 -20 -20 -20 -20 -20 -20 -20 -20 -20 -20 -20 -20 -20 -20 -20 -20 -20 -20 -20
-11 3 -20 -20 -20 -20 -20 -20 -20 -20 -20 -20 -3 6 -7 -19 -20 -20 -20 -20 -20 -20 -20 -20 -20 -20 -20 -20 -20 -20 -20 -20 -20 -20 -20 -20 -20 -20 -20 -20 -20 -20 -20 -19
-19 -19 -20 -19 -20 -19 -20 -20 -20 -20 -20 -8 8 -13 -20 -20 -20 -20 -20 -20 -20 -20 -20 -20 -20 -20 -20 -20 -20 -20 -20 -20 -20 -20 -20 -20 -20 -20 -20 -18 -20 -17 -20 -20

GFSNW_prec_radar_042.txt.gz
Reflectivity
14 1 -15 -20 -20 -11 20 25 35 -18 23 22 30 14 35 -4 -19 10 -20 -20 -20 -20 -20 -20 -20 -20 -20 -20 -20 2 -20 -20 2 -19 -20 -20 -20 -20 -20 10 -9 16 5 -16
13 -6 7 -20 -20 9 29 29 24 26 20 -3 24 21 25 13 -1 -7 -20 -20 -20 -20 -20 -20 -20 -20 -20 -20 -20 -20 -20 -6 -1 -20 -20 -20 -20 9 14 21 23 16 10 3
4 -10 0 -20 -20 -1 12 32 33 31 38 -6 8 27 16 13 -11 -8 -20 -20 -20 -20 -20 -20 -20 -20 -20 -20 -20 -20 -20 6 -20 -20 -20 -10 -15 14 29 29 22 -4 5 -20
5 1 -8 -20 -20 -10 26 36 32 -4 10 6 -20 2 -1 -3 19 -4 -20 -20 -20 -20 -19 -20 -20 -20 -20 -20 -5 -12 -16 3 1 -20 -20 -20 -20 4 21 22 29 15 -5 -7
4 -20 -10 -20 -20 -4 27 33 37 30 -10 -20 -14 -19 -2 -20 -20 -20 -20 -20 -20 -20 -20 -20 -20 -20 -20 -9 -19 -9 3 -4 3 -20 -20 -20 -9 15 25 11 -4 13 -14 -19
3 -5 -4 -20 -20 16 13 19 27 26 13 -4 12 4 -20 -20 -20 -19 -20 -20 -20 -20 -20 -20 -20 -20 -17 -17 10 -18 5 16 -13 -20 -20 -20 -13 0 28 19 -18 -19 -5 -20
-4 -20 2 -20 -20 -2 16 14 17 10 13 9 7 -20 -20 -20 -20 -20 -20 -20 -20 -20 -20 -20 -20 -20 -3 4 -14 9 7 5 3 9 -20 -16 -20 -13 15 19 -17 -18 -20 -20
-20 1 -19 -20 -20 -20 9 9 6 22 7 2 -11 -14 -20 -20 -20 -20 -20 -20 -20 -20 -20 8 -2 8 4 6 -20 -0 2 8 2 11 6 -20 -20 -20 10 -5 -8 -20 -20 -20
-4 -20 -20 8 -9 5 -4 14 22 23 30 -2 -17 3 -20 -20 -7 1 -18 -20 -19 -20 -6 10 11 5 -20 -20 -19 -20 13 -7 12 10 10 -11 -20 -20 8 -14 12 -12 -20 -20
2 -20 -20 11 12 13 8 12 11 23 23 -17 -11 -2 -20 -12 -14 0 -1 6 8 12 21 15 -7 1 -20 -20 -7 -5 3 23 8 -3 11 -20 -20 -20 -2 -1 24 24 5 -20
-20 -20 -20 -20 -20 -14 9 27 24 17 23 -3 13 -20 -20 -20 -3 -16 -16 -6 -3 21 20 18 4 7 -20 -20 -20 -20 -14 1 3 4 10 -20 -20 -20 -20 -19 24 14 30 13
-20 -20 -20 -20 -20 -20 -1 18 21 22 21 -16 -20 -20 -20 -20 -20 -16 -20 -13 -1 5 12 13 16 -20 -20 -20 -20 -20 -20 -18 1 -20 -20 -20 -20 -20 -20 -20 -18 -6 15 32
-18 -19 7 -20 -20 -20 -20 6 13 2 -17 1 -20 -20 -20 -20 -20 -20 -18 -18 -9 19 6 21 9 -13 -20 9 -20 -20 -20 -20 -20 -20 -20 -20 -20 -20 -20 -19 -20 -20 -3 -16
2 -20 -2 -20 -20 -20 -20 2 -5 12 6 7 -20 -20 -20 -20 -20 -16 -17 15 2 18 12 9 23 7 2 -8 -20 -20 -20 -20 -20 -20 -20 -20 -20 -20 -20 -20 -20 -18 -20 -20
1 4 -2 6 -20 -20 -20 -20 -1 -1 13 17 11 -20 -20 -20 -15 -14 15 20 15 12 15 23 7 19 -7 -20 -20 -20 -20 -20 -20 -20 -20 -20 -20 -20 -17 -20 -16 3 -20 -20
-20 9 -20 5 -2 -18 -20 -20 8 17 17 22 -16 -20 -20 7 20 28 22 23 24 19 17 13 -5 -19 -15 10 -20 -20 -20 -20 -20 -20 -20 -20 -20 -20 -20 -20 -20 -20 -17 -20
-2 6 6 8 5 -20 -19 -12 12 17 1 12 -15 -20 17 21 21 22 28 28 26 21 18 15 14 10 -5 -1 -20 -20 -20 -20 -20 -20 -20 -20 -19 -19 -20 -20 -20 26 12 -20
-1 8 10 14 8 3 -20 -16 7 4 16 -14 -13 -20 -11 17 21 23 24 30 28 20 25 16 7 16 12 4 -20 -20 -20 -20 -20 -20 -20 -20 -17 -8 13 20 -20 14 -18 -14
5 8 1 3 -20 -3 20 18 4 -20 8 -20 -9 -18 -17 12 1 19 26 24 27 21 22 6 13 3 3 -16 -20 -20 -20 -20 -20 -20 -20 -20 -9 -10 8 25 -14 -19 -6 21
-20 -20 -20 -2 -0 8 23 1 16 14 -17 -20 -16 -20 -20 -8 17 -20 18 20 21 9 -12 -20 -18 -20 -20 -20 -20 -20 -20 -20 -20 -20 -20 -20 -20 -11 1 21 26 -20 -15 -20
-20 -18 -8 -2 16 25 21 4 -13 10 -18 -14 -20 -20 -20 -20 24 12 -20 0 -13 -16 -20 -17 -20 -20 -20 -20 -20 -20 -20 -20 -20 -20 22 12 -4 10 -13 -7 18 1 -20 -20
-12 5 14 9 18 25 -7 10 -6 -18 -14 -20 -8 -20 -20 -20 5 25 2 -19 -13 -19 -20 -20 -20 -20 -20 -20 -20 -20 -20 -20 -20 -20 -12 -18 -20 -20 -20 -20 -20 -20 -20 -20
-20 -11 11 -6 22 8 -10 -15 -19 -20 -20 -20 4 -17 -20 -20 -20 11 -20 -5 -18 -20 -20 -20 -20 -20 -20 -20 -20 -20 -20 -20 -20 -20 -20 -20 -15 -7 -17 -20 -20 -20 -20 -17
-11 -16 -20 -19 -10 6 17 -20 -20 -20 -20 -20 15 5 -16 -20 -7 -20 -19 -20 -20 -20 -20 -20 -20 -20 -20 -20 -20 -20 -20 -20 -20 -20 -20 -20 -20 -20 -20 -20 -20 -20 -20 -20
-0 -7 -20 -9 -20 -20 -20 -20 -20 -20 -20 -20 10 -1 -19 -20 -18 -20 -20 -18 -20 -20 -20 -20 -20 -20 -20 -20 -20 -20 -20 -20 -20 -20 -20 -20 -20 -20 -20 -20 -20 -20 -20 -20
-14 -15 -19 -20 -20 -20 -20 -20 -20 -20 -20 2 1 -4 -20 -20 -20 -20 -20 -20 -20 -20 -20 -20 -20 -20 -20 -20 -20 -20 -20 -20 -20 -20 -20 -20 -20 -20 -20 -20 -20 -20 -20 4
-18 -20 -20 -20 -20 -20 -20 -20 -20 -20 -0 14 25 -8 -2 -20 -20 -20 -20 -20 -20 -20 -20 -20 -20 -20 -20 -20 -20 -20 -20 -20 -20 -20 -20 -20 -20 -20 -20 -20 -20 -20 -17 -19

GFSNW_prec_radar_045.txt.gz
Reflectivity
16 14 -5 1 -20 3 21 32 27 15 21 -2 13 8 23 28 5 -20 -20 -14 -20 -20 -20 -20 -2 -18 -20 -20 -20 -19 -20 4 -3 -20 -20 -20 -20 -20 -4 8 -20 6 -13 -20
17 -16 -13 -2 -20 15 27 24 -5 20 24 27 17 18 12 26 -6 -4 -20 -20 -20 -20 -20 -18 -17 -18 -20 -20 -20 -20 -20 4 -19 -3 -18 -20 -20 -20 -8 10 17 6 10 -1
11 -20 2 -9 -20 15 27 19 10 16 -14 21 0 -4 20 14 19 -11 -20 -20 -20 -20 -2 -20 -17 -20 -20 -20 -20 -20 -20 -7 -20 -20 -12 -20 -2 -20 -12 21 18 -16 -14 -11
-6 -15 4 -1 -20 15 22 18 10 18 11 4 -4 -0 28 9 -15 1 -20 -20 -20 -20 -20 -20 -20 -20 -4 -20 -20 -20 -20 7 -20 -15 -20 -20 -20 -20 -3 29 22 19 1 -15
4 -20 11 -17 -20 23 11 5 32 30 19 -20 27 10 33 5 -20 1 -20 -20 -20 -20 -20 -20 -20 -20 -20 -20 -20 -20 -18 -6 -0 -19 -20 -20 -20 -20 -20 -8 15 23 9 1
10 6 -16 -20 -15 7 26 15 16 14 -4 -13 10 -20 5 -2 -12 9 -20 -20 -20 -20 -20 -20 -20 -20 -20 -11 2 -0 6 3 7 -20 -20 -20 -13 -20 -12 17 11 17 -1 -20
10 9 -20 -18 10 9 16 10 11 12 0 -15 -1 -20 -5 -11 0 -15 -20 -20 -20 -20 -20 -20 -20 -20 -20 -20 -20 -2 -1 14 5 -4 -20 -20 -19 -20 -15 -0 14 4 -20 -20
11 -7 -20 -3 11 13 12 6 9 14 22 7 -17 8 3 13 -17 -15 -20 -20 -20 -20 -20 -14 -2 6 2 -20 -14 -18 -11 19 14 2 -3 -20 -20 -20 -20 -16 8 16 -20 -20
9 -20 -20 -20 -6 -19 -19 12 6 12 10 2 -6 -19 9 7 7 -11 -20 -20 -20 -20 -5 4 4 9 -4 -0 1 2 -6 10 14 7 5 -20 -19 -20 -20 -13 28 2 21 -20
-20 -20 -20 -20 -20 -20 -2 15 11 11 24 2 7 7 -9 -1 -2 11 1 -5 7 -18 -6 10 -0 -12 -20 -8 2 -17 15 22 4 2 6 -20 -20 -20 -20 -18 6 11 16 -17
-20 -20 -20 1 -20 -20 -20 6 5 22 28 -2 -20 -20 8 -15 10 11 -11 -20 -20 13 10 4 8 2 -7 -20 -10 -20 -18 -10 -9 9 8 -18 -20 -20 -16 -20 26 2 27 16
-20 -20 -18 7 -20 -20 -20 6 12 10 15 14 -7 -19 -20 -17 -17 2 -18 4 -20 3 7 -14 10 -12 7 -11 1 -20 -7 -20 -8 -20 -20 -20 -20 -20 -20 -20 -18 -18 -20 23
-20 6 13 11 -6 -20 0 -0 13 -12 5 21 -8 7 -20 -20 -20 -20 10 -20 -20 -20 -15 11 2 16 5 10 -16 -2 -20 -20 -20 -19 -20 -20 -20 -20 -20 -20 -8 -20 -20 -20
-20 6 -2 12 7 -5 -20 3 -13 2 -2 1 14 -20 -20 -20 -20 -20 -20 -10 -20 -8 -5 13 16 10 -20 -7 -9 -20 -16 -20 -20 -20 -20 -20 -20 -20 -20 -20 -20 -20 -20 -20
-3 2 4 -9 3 -12 -20 -20 -7 -18 2 10 2 -20 -20 -20 -20 -20 -7 -17 13 12 19 18 2 14 14 -5 -20 -20 -20 -20 -20 1 -20 -20 -20 -20 -20 -20 -20 -10 -20 -20
-2 -10 5 -11 7 3 -20 2 1 17 3 -5 6 -20 -20 -20 -2 0 12 29 27 19 21 3 14 11 17 17 0 -20 -20 -20 -20 -20 -20 -20 -20 -20 -20 -20 -20 -20 -20 -20
-20 -8 7 6 10 6 -20 -7 5 16 7 -1 -0 -3 2 22 17 20 20 25 26 23 20 14 14 27 15 0 -20 -20 -20 -20 -20 -20 -20 -20 -20 -20 -20 -20 -20 -20 23 -20
-18 10 12 14 13 -12 -16 -4 11 -4 -16 13 -3 2 -18 -15 26 27 25 30 23 19 16 -1 1 -1 5 -12 -20 -20 -20 -20 -20 -20 -20 -20 -20 -20 -20 -20 -20 -20 -20 -20
-20 10 5 -14 -17 -11 -0 5 -3 -20 17 16 -3 -6 8 -19 22 21 23 26 30 25 21 14 18 12 1 -20 -20 -20 -20 -20 -20 -20 -20 -20 -20 -20 -20 -10 -4 -7 -15 -20
-20 -11 5 10 -4 19 25 18 -4 -6 12 5 12 -20 8 -13 21 8 10 28 29 36 20 18 18 -12 -20 -20 -20 -20 -20 -20 -20 -20 -20 -20 -20 6 -12 -13 22 1 6 11
-20 -20 -20 -17 18 24 12 -2 -15 -8 -6 4 -4 -20 10 -20 3 22 8 16 25 28 -18 -15 -3 -20 -20 -20 -20 -20 -20 -20 -20 -20 -20 -19 16 -0 -10 -5 21 14 -7 14
-10 -4 -13 8 15 17 16 -3 -16 -7 -3 -18 2 5 -13 -20 -20 27 20 26 13 0 -5 -14 -11 -20 -20 -20 -20 -20 -20 -20 -20 -20 -20 10 11 -10 -20 -10 16 14 -9 -19
-20 -13 1 -6 11 5 7 -18 7 7 -20 -17 -2 -2 -15 -8 -20 -8 8 20 -18 -18 -20 -20 -20 -7 -20 -20 -20 -20 2 1 -18 -20 -20 -19 -20 -20 -20 -20 -20 -12 -8 -3
-15 -12 -20 -20 -13 -14 16 -18 -20 -20 -19 6 -7 -5 -8 -18 -14 -20 -20 -20 -20 -13 -20 -20 -20 -20 -20 -20 -20 -20 -6 -19 -20 -20 -20 -20 -20 -20 -20 -20 -20 -20 -20 -20
-5 -11 -6 -4 -18 -17 -20 -20 -20 -20 -20 -20 -17 -13 -16 -14 -14 -20 -20 -14 -17 -20 -20 -20 -20 -20 -20 -20 -20 -20 -20 -20 -20 -20 -20 -20 -20 -20 -20 -17 -12 -20 -20 -20
-4 -12 -19 -19 -16 -7 -9 -20 -16 -8 -16 -20 -18 12 -20 -15 -20 -20 -20 -20 -20 -20 -20 -20 -20 -20 -20 -20 -20 -20 -20 -20 -20 -20 -20 -20 -20 -20 -20 -20 -20 -20 -20 -20
-19 -20 -20 -20 -18 -17 -19 -20 -20 -20 -20 -20 23 -4 -20 -15 -20 -20 -20 -20 -20 -20 -20 -20 -20 -20 -20 -20 -20 -20 -20 -20 -20 -20 -20 -20 -20 -20 -20 -20 -20 -20 -20 -20

GFSNW_prec_radar_048.txt.gz
Reflectivity
-20 -20 3 9 -20 -6 13 9 35 16 17 -10 7 10 22 36 33 2 -20 -20 -20 -20 -20 -20 -20 -20 -20 -20 -20 -20 -20 -20 -3 -20 -20 -20 -20 -20 -20 -20 -20 -20 -20 -20
-20 -15 -20 2 -20 11 18 2 9 19 22 -6 3 10 27 34 30 -8 6 -4 -20 -20 -20 -20 -17 -20 -20 -20 -20 -20 -13 -12 -20 -20 -20 -20 -20 -20 -20 -20 -20 -20 -11 -20
-13 -20 -14 -20 -20 24 20 -13 3 11 20 13 17 23 33 28 17 5 -20 -20 -20 -20 -20 -20 -13 -20 -20 -20 -20 7 -20 -20 -20 -20 -20 -17 -20 -20 -20 -18 4 -14 -20 -20
-20 -20 -20 -20 -15 8 9 -18 3 -1 -17 10 2 15 33 15 12 -20 -20 -4 -20 -20 -20 -15 -20 -20 -20 -20 -20 -20 -19 -17 -20 -20 -20 -20 -20 -20 -20 -18 -20 10 -17 -20
-20 -20 -20 -20 -11 -20 11 0 34 7 8 26 16 20 32 24 7 -10 -20 -12 6 -20 -17 -20 -20 -20 -20 -20 -20 -8 -20 -20 -20 -20 -20 -20 -20 -20 -20 -20 11 24 5 -3
-12 2 -20 -19 -1 6 7 -10 -0 6 -8 10 13 24 20 -9 -20 -20 -19 -20 -20 -20 -20 -20 -20 -20 -20 -20 -20 -20 3 -13 -16 -20 -20 -20 -19 -20 -20 -20 -20 -4 8 -19
9 -8 -20 -20 5 -1 15 11 4 2 -13 -17 -11 -20 6 -9 -10 -20 -20 -20 -20 -20 -20 -20 -20 -20 -20 -20 -20 -20 -6 -8 -20 -20 -20 -20 -20 -20 -20 -20 -20 6 17 1
-19 -20 -20 -20 -20 -20 -15 21 2 14 4 -17 6 -20 4 -1 13 -20 -20 -20 -20 -20 -20 -19 -9 -7 -20 -20 -20 -16 -20 3 1 -17 -20 -20 -20 -20 -20 -16 -18 13 12 9
-20 -20 -20 -20 3 -20 -6 7 16 7 10 -20 -20 -20 -20 14 12 5 -20 -19 -20 -20 -16 -19 -20 -4 -20 -20 -5 -20 5 -2 13 -20 -20 -20 -20 -20 -20 -20 22 -8 9 8
-5 -5 -20 -20 9 -20 -20 21 12 13 18 -17 -20 -20 -20 7 -4 12 10 -1 -19 -18 -8 -14 -18 -20 -20 -20 -12 -3 5 21 -1 -8 -5 -20 -20 -20 -20 -15 -20 -2 13 19
-20 4 -20 -20 -4 -16 -14 0 3 18 22 -13 -20 23 16 -20 -20 -13 -12 -17 -20 -14 13 -3 -7 -20 -20 -20 -20 -20 -20 -19 -14 -20 7 -20 -20 -20 -20 -20 -20 4 -8 8
-20 -20 -2 -20 3 2 -20 4 13 11 22 -7 -19 -17 -4 -20 -20 11 -20 -16 -20 4 10 2 -6 -18 -20 -11 -20 -17 -4 -20 -20 -20 -20 -20 -20 -20 -20 -20 -20 -20 -20 -20
3 -11 -2 1 -3 8 7 -6 13 5 3 -19 -20 -14 -20 -20 -20 -20 10 -20 -20 -20 -17 -2 10 -13 -20 -20 -20 -20 13 -20 -20 -20 -20 -20 -20 -20 -20 -20 -20 -20 -20 -20
-4 -10 0 -3 1 4 -2 1 -1 2 -17 -6 15 -20 -20 -20 -20 -20 -20 -20 -20 -20 -19 -7 4 -5 -17 -20 -20 -6 -15 -20 -20 -20 -20 -20 -20 -20 -20 -20 -20 -20 -20 -20
3 -1 -20 -20 3 7 3 -20 -20 -19 8 -1 -14 -20 -20 -20 -20 -20 -20 -20 -20 -20 13 17 13 2 -16 -18 -20 -20 -20 -20 -20 -6 -20 -20 -20 -20 -20 -20 -20 -16 -17 -20
1 1 -20 6 2 7 1 -8 -8 -20 0 1 4 -20 -20 -20 -20 -20 -1 -20 11 17 19 14 20 -2 19 20 -20 -20 -20 -20 -20 -20 -20 -20 -20 -20 -20 -20 -20 -20 -20 -20
0 -20 8 8 7 10 -18 -6 10 13 -13 1 -9 -20 -20 -20 -20 -1 -0 16 21 21 20 15 9 9 17 -2 -20 -20 -20 -20 -20 -20 -20 -20 -20 -20 -20 -20 -20 -20 -20 14
-20 -8 6 13 12 -10 -8 0 9 0 -6 -2 -9 -19 -20 -20 -13 21 18 23 21 17 19 15 15 -2 5 6 -20 -20 -20 -20 -20 -20 -20 -20 -20 -20 -20 -20 -20 -20 -20 -20
-20 6 7 5 -11 -6 1 17 13 -11 3 18 -8 -17 -20 -20 -7 21 24 28 29 17 18 9 6 -1 -4 -20 -20 -20 -20 -20 -20 -20 -20 -20 -20 -20 -20 -20 -18 13 -20 -20
-20 -9 10 0 -11 -2 14 7 18 -3 8 20 -10 4 -19 -16 -16 20 25 26 33 31 29 26 19 -5 -11 -20 -20 -20 -20 -20 -20 -20 -20 -20 -20 -20 -20 -20 -20 -2 -13 -10
-20 -20 -20 -17 15 28 23 5 21 14 15 -18 -12 -20 -2 -20 -0 7 24 22 24 21 25 27 20 -0 -20 -20 -20 -20 -20 -20 -20 -20 -20 -20 -20 -20 -12 11 -14 12 14 -1
-2 -14 -20 17 29 28 3 11 -17 2 8 5 -17 -8 -6 -7 -20 -19 22 29 23 11 15 0 -11 -20 -20 -20 -20 -20 -20 -20 -20 -20 -20 -20 -8 17 26 15 14 18 -2 -5
1 -13 -16 -12 15 10 5 -8 -1 11 4 -10 10 -15 -20 -20 -17 -19 -14 14 23 23 22 16 -6 -12 -18 -20 -20 -20 -20 -20 -20 -20 -9 24 16 -20 -20 -11 22 20 -2 -17
8 -20 -20 -20 -13 -15 17 -16 -20 -19 -20 3 6 -8 -12 -13 -8 -20 -15 -20 -20 -20 8 2 -4 -20 -20 -20 -20 -20 22 25 -10 -20 -20 -19 -20 -20 -20 -20 -10 -16 -20 -11
-13 -18 -20 -6 -1 3 -20 -20 -20 -20 -20 -20 -20 -20 -20 -19 -20 -20 -20 -20 -20 -20 -20 -6 -20 -20 -20 -20 -20 -20 -3 8 -1 -18 -20 -14 -19 -20 -20 -20 -20 -20 -20 -20
-16 -14 -11 -19 -20 -19 5 -2 -20 -17 -20 -19 -20 -20 -20 -20 -20 -20 -20 -20 -20 -20 -20 -20 -20 -20 -20 -20 -20 -20 -20 -20 -20 -20 -20 -20 -20 -20 -20 -6 10 20 -14 -20
-20 -20 -20 -20 -20 -8 -11 -20 -16 -20 -20 -0 10 2 -20 -20 -20 -20 -20 -20 -20 -20 -20 -20 -20 -20 -20 -20 -20 -20 -20 -20 -20 -20 -20 -20 -20 -20 -20 -20 -20 -19 -8 -20

GFSNW_prec_radar_051.txt.gz
Reflectivity
-4 -8 -3 -20 -20 6 5 -8 -15 -9 9 -10 12 13 19 34 34 28 13 -20 -20 -20 -2 -20 -15 -20 -20 -20 -20 -20 -20 -20 -20 -20 -20 -20 -20 -20 -20 -20 -20 -20 -20 -20
-10 -20 -19 -20 -14 9 -19 -0 -20 -11 -20 1 7 16 32 31 7 7 8 -20 -20 -20 -20 -12 -18 -20 -20 -20 -17 -20 -20 -20 -20 -20 -20 -20 -20 -20 -20 -20 -20 -20 -20 -20
-0 -20 -20 -20 -20 -1 -20 -20 -9 -20 -20 -17 25 23 34 33 10 18 -20 -16 -20 -20 4 -20 -7 -20 -20 -20 -20 -4 -20 -20 -20 -20 -20 -20 -20 -20 -20 -20 -14 -20 -20 -20
4 -20 -20 -20 -20 -19 -18 -20 -15 -10 -10 14 17 26 25 7 0 1 -4 -7 -18 -8 4 -1 -20 -20 -20 -20 -7 -8 -20 -20 -20 -20 -20 -20 -20 -20 -20 -20 -20 -20 -20 -20
8 -20 -20 -20 -20 -20 -20 -10 -1 -12 18 -13 11 34 24 12 -9 -20 -4 -20 -8 -18 -20 -20 -20 -20 -20 -20 -20 -20 -20 -20 -20 -20 -20 -20 -20 -20 -20 -20 -20 -20 -20 -20
-20 -20 -20 -20 -20 -20 -10 -20 -20 -2 8 27 31 33 22 -15 -20 -20 -15 -17 -20 -20 -20 -20 -20 -20 -20 -20 -20 -20 -20 -20 -20 -20 -20 -20 -20 -20 -20 -20 -20 -20 -9 -18
-20 -20 -20 -20 -20 -20 -1 9 -4 -5 -20 -20 -20 0 -8 -20 -15 -20 -20 -20 -20 -20 -20 -20 -20 -20 -20 -20 -20 -20 -12 -20 -20 -20 -20 -20 -20 -20 -20 -20 -20 -19 5 -7
-20 -20 -20 -20 -16 -20 -4 19 11 16 -20 -20 -20 -20 -0 -8 -20 -20 -20 -20 -20 -20 -20 -20 -20 -20 -9 -20 -20 -20 -20 -18 1 -20 -20 -20 -20 -20 -20 -20 -20 -20 -19 -20
-20 -7 -20 -20 -20 -20 -1 4 7 9 3 -20 -20 -20 -15 4 -20 -20 -20 -20 -20 -20 -20 -20 -20 -20 -20 -18 0 -7 2 -4 -1 -20 -20 -20 -20 -20 -20 -20 -20 -20 -17 10
-20 -20 3 -20 -20 -20 -10 12 5 5 7 -20 -20 -20 -20 -10 -20 -20 -8 -8 -20 -20 -20 -10 -20 -20 -20 -20 -20 -15 9 19 2 -14 -20 -20 -20 -20 -20 -20 -20 -20 -20 -20
-20 -20 -20 2 -13 -20 -20 6 8 1 16 -20 -20 -15 1 -20 -20 -20 -20 -20 -20 -20 -20 -15 -20 -20 -20 -20 -20 -20 -20 -14 4 -7 -20 -20 -20 -20 -20 -20 -20 -20 -20 -20
-20 -20 -17 3 -6 -3 -14 -3 8 10 15 -18 -20 -13 -16 -20 -20 -20 -20 -19 -20 -3 -0 -20 4 -18 -20 -20 -20 -20 -20 -20 -20 -20 -20 -20 -20 -20 -20 -20 -20 -20 -20 -20
6 4 -20 2 -12 -20 -4 -17 -1 6 12 -9 -20 -15 -20 -20 -20 -20 -9 -20 -20 -20 -20 -20 -20 -16 -15 -20 -20 -20 -20 -18 -20 -14 -15 -20 -20 -20 -20 -20 -20 -20 -20 -20
-7 3 -20 -1 -20 -14 -12 0 -11 1 -12 1 21 -20 -20 -20 -20 -20 -20 -20 -20 -20 -20 -20 -13 -10 -14 -13 -20 -20 -17 -20 -20 -20 -20 -20 -20 -20 -20 -20 -20 -20 -20 -20
4 2 4 -20 -20 3 -3 -20 -19 -17 -9 9 -16 -20 -20 -20 -20 -20 -20 -20 -20 -20 -20 -0 6 -2 -7 -20 -20 -20 -20 -20 -20 -20 -10 -20 -20 -20 -20 -20 -20 -20 -20 -20
3 5 -16 -16 1 11 1 -20 -14 -19 -13 2 -20 -20 -20 -20 -20 -20 -20 -20 -20 -20 -8 7 -1 -20 9 16 3 -20 -20 -20 -20 -20 -20 -20 -20 -20 -20 -20 -20 -20 -20 -20
-4 -13 -20 2 11 5 -20 -17 16 19 -8 -5 -13 -11 -20 -20 -20 -20 -20 -6 5 16 10 9 2 -3 18 17 -7 -18 -20 -20 -20 -20 -20 -20 -20 -20 -20 -20 -20 -20 -20 -20
-20 -20 -1 14 12 8 -19 -2 10 2 -14 2 12 -11 -20 -20 -20 -7 11 21 24 21 20 19 2 -11 7 -3 -20 -20 -20 -20 -20 -20 -20 -20 -20 -20 -20 -20 -20 -20 -20 -20
-20 1 -14 7 -20 -20 -1 11 15 -1 12 22 -4 -20 -20 -20 1 11 26 26 24 21 16 6 20 23 -1 -16 -20 -16 -15 -18 -18 -20 -20 -20 -20 -20 -20 -20 -20 -20 -20 -20
-20 -20 5 -1 -20 18 20 9 13 21 16 17 13 -20 -20 -20 1 10 10 27 27 28 22 23 17 2 0 10 -20 -20 -20 -20 -20 -20 -20 -20 -20 -20 -20 -20 -20 -20 -20 -20
-20 -20 1 -20 -18 -0 19 26 22 18 7 -11 -3 -13 -0 -16 -7 12 -3 27 25 12 22 26 26 29 1 -20 -20 -20 -20 -20 -20 -20 -20 -20 -20 -20 -20 -20 -9 3 -5 -13
-5 -13 -12 -9 19 33 25 17 -2 14 -10 -12 -12 -19 -20 -18 -20 -13 -4 23 24 16 28 25 -3 -9 -20 -20 -20 -20 -20 -20 -20 -20 -20 -20 -20 -20 -14 -10 10 9 9 -2
-19 -17 -0 -2 25 13 2 -14 1 -10 -20 -19 -20 -20 -20 -20 -10 -10 -12 18 5 18 24 19 25 14 10 -19 -20 -20 -20 -20 -19 -10 -19 -19 16 -4 -18 15 26 22 10 -16
-20 -20 -20 -20 -16 -15 16 -13 -20 -20 -20 -16 -8 -12 -20 -8 11 -12 0 -19 -20 3 17 9 5 5 -13 -20 -20 -20 -4 19 -3 -20 11 26 10 -12 -20 7 19 21 -3 -20
-20 -20 -20 -20 -15 -20 -19 -20 -20 -19 -14 -20 -9 -20 -20 -16 -20 -20 -20 -20 -20 -17 -4 -10 -2 -8 -0 -15 -20 -13 34 31 26 20 18 7 -20 -14 13 -20 -20 -18 -4 -10
-20 -19 -20 -20 -20 -20 -20 -11 -20 -20 -5 -4 -16 -7 -12 -20 -20 -20 -20 -20 -20 -11 -20 -20 -20 -20 -20 -19 -17 -16 23 8 -14 -20 -20 -18 -17 -20 -20 -6 24 22 -9 -20
-20 -20 -20 -3 -20 -9 -20 -2 4 -19 -20 10 22 -2 -20 -14 -20 -20 -20 -20 -20 -20 -20 -20 -20 -20 -20 -20 -20 -20 -20 -20 -19 -20 -20 -20 -20 -20 -20 -20 -20 7 22 -8

GFSNW_prec_radar_054.txt.gz
Reflectivity
-5 -9 -8 -1 5 -1 -20 -20 -13 -20 -17 -19 6 13 23 23 23 14 1 -20 -20 -20 -20 -20 -20 -20 -20 -20 -20 -20 -20 -20 -20 -7 -20 -20 -20 -20 -20 -20 -20 -20 -20 -20
4 5 -16 -20 -20 -20 -20 -20 -18 -20 -5 4 -7 15 31 21 3 -20 -20 -20 -20 -20 -20 -14 -20 -20 -20 -20 -20 -20 -20 -20 -20 -18 -20 -20 -20 -20 -20 -20 -20 -20 -20 -20
7 5 -20 -20 -20 -20 -20 -20 -20 -20 -20 -20 22 38 32 10 -20 -20 -20 -20 -20 -20 -20 -20 -20 -20 -20 -20 -20 -20 -20 -20 -20 -20 -20 -20 -20 -20 -20 -20 -20 -20 -20 -20
-20 -10 -20 -20 -20 -20 -20 -20 -11 -9 -7 -20 14 28 14 0 7 -20 -20 -20 -20 -20 -20 -20 -20 -20 -20 -18 -8 -20 -20 -20 -20 -20 -20 -20 -20 -20 -20 -20 -20 -20 -20 -20
-20 -20 -20 -20 -20 -20 -20 -20 2 -15 15 -4 -15 -20 -20 -20 -11 -20 15 10 -20 -20 -20 -20 -20 -20 -20 -20 -20 -20 -20 -20 -20 -20 -20 -20 -20 -20 -20 -20 -20 -20 -20 -20
3 -20 -20 -16 1 -20 -20 1 1 -5 -20 -17 -17 -20 -20 -19 -20 -20 -20 -20 -20 -20 -20 -20 -20 -20 -20 -20 -20 -20 -20 -20 -20 -20 -20 -20 -20 -20 -20 -20 -20 -20 -20 -19
-10 1 -20 -19 8 -20 -20 -20 3 -7 -20 -20 -20 -20 -20 -20 -14 -3 -20 -14 -20 -20 -20 -20 -20 -20 -20 -20 -20 -20 -20 -20 -20 -20 -20 -20 -20 -20 -20 -20 -20 -20 -17 10
-20 -19 3 -20 -1 -11 -20 -13 6 3 -20 -20 -20 -20 -20 -20 -20 -20 -20 -20 -20 -20 -20 -20 -20 -20 -20 -20 -20 -20 -20 -20 -11 -20 -20 -20 -20 -20 -20 -20 -20 -20 -20 -17
-9 -19 -20 -0 -13 -20 -20 -18 -18 8 3 -20 -20 -20 -20 -20 -20 -20 -20 -20 -20 -20 -20 -20 -20 -20 -20 -17 -7 6 11 -12 -6 -18 -20 -20 -20 -20 -20 -20 -20 -20 -20 -20
9 -20 -20 -19 4 -20 -20 -16 -16 -6 -0 -20 -20 -20 -20 -20 -20 -20 -20 -20 -20 -20 -20 -20 -20 -20 -20 -20 -20 4 4 14 -12 -20 -14 -20 -20 -20 -20 -20 -20 -20 -20 -20
5 -6 -20 -20 3 -16 -8 -20 -14 -12 -5 -20 -20 -20 -20 -20 -20 -20 -20 -20 -20 -20 -20 -20 -20 -20 -20 -20 -20 -20 -20 -20 -10 -13 -20 -20 -20 -20 -20 -20 -20 -20 -20 -20
-11 10 -20 2 -7 -20 -16 -20 -20 -13 -10 -20 -20 -20 -20 -20 -20 -20 -20 -19 -20 -20 -15 -20 -20 -20 -20 -20 -20 -20 -20 -20 -20 -20 -20 -20 -20 -20 -20 -20 -20 -20 -20 -20
6 9 2 0 -15 -20 -20 -15 -20 -17 7 -20 -20 -20 -20 -20 -20 -20 -20 -20 -20 -20 -20 -20 -20 -20 -20 -3 -20 -20 -20 -20 -20 -20 -20 -20 -20 -20 -20 -20 -20 -20 -20 -20
13 3 -16 -5 -20 -20 -1 -15 4 -13 -16 0 -7 -20 3 -20 -20 -20 -20 -20 -20 -20 -20 -17 -4 -4 -20 -20 -20 -20 -17 -17 -20 -20 -20 -20 -20 -20 -20 -20 -20 -20 -20 -20
-7 8 -19 8 -20 -15 11 -18 -17 -20 -13 -9 26 -18 -20 -20 -20 -20 -20 -20 -20 -20 -20 8 4 2 -4 -20 -20 -20 -20 -20 -20 -20 -20 -20 -20 -20 -20 -20 -20 -20 -20 -20
5 -2 2 -20 0 11 8 -20 -18 -20 -5 0 -20 -20 -20 -20 -20 -20 -20 -20 -20 -20 -20 9 9 -20 7 -14 -6 -20 -20 -20 -20 -20 -20 -20 -20 -20 -20 -20 -20 -20 -20 -20
0 -7 -4 -19 12 18 -2 8 20 4 -18 0 -11 -20 -20 -20 -20 -20 -20 -20 -20 -4 20 20 11 -6 15 15 -14 -20 -11 26 -17 -20 -20 -20 -20 -20 -20 -20 -20 -20 -20 -20
-20 -20 3 16 15 15 -6 9 19 9 -4 7 22 -10 -20 -20 -15 -17 -20 -3 13 24 23 18 16 -1 20 17 -20 -20 -20 -20 -16 -20 -20 -20 -20 -20 -20 -20 -20 -20 -20 -20
-20 -15 7 -1 -13 -20 -10 9 7 -3 11 26 -10 -19 -20 -20 -12 -19 -10 14 16 18 17 17 23 19 24 -10 -20 -20 -12 -7 -2 -2 7 -20 -20 -20 -20 -20 -20 -20 -20 -20
-20 -7 -15 11 -20 24 20 14 17 20 11 16 5 -20 -20 -20 1 -11 10 19 33 21 20 23 21 3 23 -10 -20 -20 -20 -20 -20 -20 -20 -20 0 -20 -20 -20 -20 -20 -20 -20
-20 -20 -3 -20 24 31 18 1 24 11 16 12 -18 -1 4 -13 0 6 2 17 27 4 23 28 28 29 19 7 -19 -20 -20 -20 -20 -20 -20 -20 -20 -20 -20 -20 -18 -20 8 -20
-20 -20 -3 -1 -15 5 25 29 18 14 -9 -18 -1 -2 -16 -17 -15 20 10 25 23 14 24 26 7 8 -20 -20 -20 -20 -20 -20 -20 -20 -20 -20 -20 -20 -20 -13 -7 7 5 19
-17 -13 16 9 15 12 10 -12 -11 -2 -20 -3 5 -20 -20 -7 -6 14 19 22 17 22 21 2 -14 -20 -20 -20 -15 -20 -20 -20 -20 -20 -20 -20 -20 -13 -12 8 8 9 18 23
-17 -20 -20 -20 -9 -20 3 -20 -20 -20 -20 -19 8 -17 -20 -15 17 -6 -19 -2 11 8 10 -12 -17 -19 -20 -20 -20 -20 -10 4 -2 -10 -14 13 22 -20 -18 5 16 26 15 1
-20 -20 -20 -20 -13 -13 -15 -16 -20 -20 -20 -19 -4 -8 -20 -4 -13 -20 -20 -17 -20 -17 6 -17 -20 -20 -12 -15 -17 -13 28 34 24 13 25 18 8 7 -4 -20 5 -17 -20 -20
-15 -20 -20 -18 -20 -20 -20 -20 -20 -19 -20 -18 -8 8 -7 -20 -6 -18 -20 -20 -20 -20 -20 -20 -20 -20 -20 -17 3 5 22 35 32 0 -8 22 11 -1 -18 2 26 19 15 -7
2 -20 -20 -20 -20 -20 -10 -20 1 -6 11 10 17 5 4 -6 -17 -19 -20 -20 -20 -20 -20 -20 -20 -20 -20 -20 -20 5 5 8 -0 5 7 -11 -19 -17 -20 -20 -16 20 11 29

GFSNW_prec_radar_057.txt.gz
Reflectivity
6 8 -3 -20 6 -20 -20 -20 -20 -20 -20 -20 -16 11 30 16 -20 -20 -20 -20 -20 -20 -20 -20 -20 -20 -20 -20 -20 -20 -20 -20 6 4 -20 -20 -20 -20 -20 -20 -20 -20 -20 -20
-20 -20 -20 -20 -18 -19 -20 -20 -20 -20 -20 -7 -8 -6 11 -18 -20 -20 -20 -20 -12 -3 -20 -20 -20 -20 -20 -20 -20 -20 -20 -20 -20 -20 -20 -20 -20 -20 -20 -20 -20 -20 -20 -20
-3 -20 -20 -20 -20 -20 -20 -20 -20 -20 -20 -6 19 13 9 4 -20 -20 -20 -20 -20 -20 -20 -20 -20 -20 -20 -20 -20 -20 -20 -20 -20 -20 -20 -20 -20 -20 -20 -20 -20 -20 -20 -20
-15 -14 -20 -20 -20 -20 -20 -20 -18 -8 -20 -16 -17 -11 2 -20 -20 -20 -20 -20 -20 -20 -20 -20 -20 -20 -20 -20 -20 -20 -20 -20 -20 -20 -20 -20 -20 -20 -20 -20 -20 -20 -20 -20
-20 -11 -20 -20 -20 -20 -20 -20 -13 -20 -20 -20 -20 -20 -1 -8 -20 -20 -20 -20 -20 -20 -20 -20 -20 -20 -20 -20 -20 -20 -20 -20 -20 -20 -20 -20 -20 -20 -20 -20 -20 -20 -20 -20
-20 -20 6 -20 -20 -20 -20 -14 -7 -5 -20 -20 -20 -20 -20 -20 -20 -19 -20 -20 -20 -20 -20 -20 -20 -20 -20 -20 -20 -20 -20 -20 -20 -20 -20 -20 -20 -20 -20 -20 -20 -20 -20 -17
-3 -20 -2 -8 -20 -5 -12 -17 -20 -16 -20 -20 -20 -20 -20 -20 -20 -20 -20 -19 -17 -20 -20 -20 -20 -20 -20 -20 -20 -20 -20 -20 -20 -20 -20 -20 -20 -20 -20 -20 -20 -20 -20 9
-12 2 -20 -9 -2 -20 -20 -19 -5 -14 -20 -20 -20 -20 -20 -20 -20 -20 -20 -20 -20 -20 -20 -20 -20 -20 -20 -20 -20 -20 -20 -20 -20 -20 -20 -20 -20 -20 -20 -20 -20 -20 -20 -20
-20 10 -19 -19 12 -20 -20 -20 -20 1 -17 -20 -20 -20 -20 -20 -20 -20 -20 -20 -20 -20 -20 -20 -20 -20 -20 -11 -7 -19 -17 -18 -18 -19 -19 -20 -20 -20 -20 -20 -20 -20 -20 -20
-10 -4 11 -12 -13 -16 -20 -20 -9 -8 -14 -20 -20 -20 -20 -20 -20 -20 -20 -20 -20 -20 -20 -20 -20 -20 -20 -20 -18 3 9 9 4 -19 -16 -20 -20 -20 -20 -20 -15 -20 -20 -20
7 4 -2 2 -6 -18 -15 -20 -10 0 -16 -20 -20 -20 -20 -20 -20 -20 -20 -20 -20 -20 -20 -20 -20 -20 -20 -20 -20 -20 -20 -20 -15 -16 -20 -20 -20 -20 -20 -18 -20 -20 -20 -20
3 9 10 -20 -19 -12 -8 -20 -18 -1 -8 -20 -20 -20 -20 -20 -20 -20 -20 -20 -20 -20 -10 -20 -6 -18 -20 -20 -20 -20 -20 -20 -20 -20 -20 -20 -20 -20 -20 -20 -20 -20 -20 -20
11 12 10 13 -13 -4 -11 -20 -20 -19 6 -20 -19 -20 -20 -20 -20 -20 -20 -20 -20 -20 -20 -20 -20 -20 -20 -20 -20 -20 -20 -20 -20 -20 -20 -20 -9 -20 -20 -20 -20 -20 -20 -19
12 4 9 11 -20 12 -20 -9 -7 4 18 -7 -6 -20 -20 -20 -20 -20 -20 -20 -20 -20 -20 -17 -1 5 -20 -20 -20 -20 -20 -20 -20 -20 -20 -20 -20 -17 -18 -19 -20 -20 -20 -20
10 2 11 8 2 -8 -20 5 -6 -6 18 18 -20 -20 -20 -20 -20 -20 -20 -20 -20 -20 -20 -2 -6 -19 -7 -20 -20 -20 -20 -20 -20 -20 -20 -20 -17 -18 -19 -20 -20 -20 -20 -20
7 12 11 -18 10 -1 -2 -20 -20 -20 13 25 4 -0 -20 -20 -20 -20 -20 -20 -20 -20 -19 -8 -20 -20 -16 17 2 -20 -20 -20 -20 -20 -20 -20 -20 -20 -20 -20 -20 -20 -20 -20
10 3 -0 -3 5 16 -6 -16 22 8 18 25 -2 -20 -20 -20 -20 -20 -20 -20 -15 4 10 10 12 17 -6 16 -11 -20 -20 -20 -20 -20 -19 -15 -20 -20 -20 -20 -20 -20 -20 -20
-1 -20 -12 21 24 19 -3 -16 26 29 25 11 18 -6 -16 -2 -20 -15 -20 -15 -11 -7 -2 3 -8 11 17 22 -20 -20 -20 -20 -20 -20 -20 -20 -20 -20 -20 -20 -20 -20 -20 -20
-20 -20 13 -8 -15 -20 -20 29 33 30 26 17 3 -4 -20 -20 -9 13 4 6 7 10 13 7 12 21 26 -10 -7 -20 -20 -20 -20 -20 -8 -18 -12 -20 -20 -20 -20 -20 -20 -20
-20 -20 -16 -19 -20 17 20 28 28 30 23 13 3 1 -20 -18 2 -2 17 20 19 1 -19 17 23 11 8 5 -1 -20 -20 -19 -18 -20 -20 -20 -20 -7 -5 -20 -20 -20 -20 -20
-20 -20 -20 -20 10 23 30 32 25 10 22 -4 1 -20 2 -20 -6 12 21 22 19 -15 21 27 21 19 -1 -17 -19 -20 -20 -20 -20 -20 -20 -20 -20 -20 -20 -20 -20 -20 -20 -20
-20 -20 -20 -20 17 30 6 18 -6 24 -14 2 -2 -17 -19 -13 -17 12 32 19 15 -6 26 25 -15 -7 -20 -20 -20 -20 -20 -15 2 -10 -20 -20 -20 -20 -20 -20 -20 -20 -20 -8
-20 -13 -20 -20 11 -2 -5 -20 9 -13 -6 -13 -20 -20 -20 -13 -9 19 16 15 13 23 19 2 -20 -20 -15 -20 -20 -20 -20 -19 -20 -20 -20 -20 -20 -20 -20 -20 -20 -13 6 14
-19 -20 -20 -20 -20 -19 17 -4 -19 -7 -20 -20 -20 -20 -14 3 23 -7 -18 2 -14 -20 -7 -16 -14 -20 -20 -20 -20 -20 -12 13 19 -6 -5 9 7 -10 -20 -20 -20 -9 8 13
-20 -20 -20 -20 -20 -0 -13 -5 -11 -15 -10 -20 -19 -18 -14 21 5 -12 -4 -20 -20 -20 -20 -20 -18 -20 -20 -20 -16 -10 5 18 26 28 23 27 23 -20 -20 7 18 8 14 10
-20 -18 -6 -20 -20 -20 -20 -20 4 -3 7 21 -20 24 13 -15 -20 -17 -20 -20 -20 -20 -20 -20 -20 -20 -20 -16 -18 0 15 25 23 29 19 22 16 13 16 -14 2 -14 -20 -20
-20 -4 -20 -20 -20 -20 -18 -20 -12 -13 6 11 17 6 -20 17 -12 -20 -20 -20 -20 -20 -20 -20 -20 -20 -20 -20 -20 -10 15 17 21 4 9 14 28 30 35 17 17 21 22 8

GFSNW_prec_radar_060.txt.gz
Reflectivity
-20 -11 -20 -20 3 0 -20 -20 -20 -20 -20 -20 -14 -18 14 2 -20 -20 -20 -20 -20 -20 -20 -20 -20 -20 -20 -20 -20 -20 -20 -20 -3 -2 -20 -20 -20 -20 -20 -20 -20 -20 -20 -20
-20 -3 -20 -20 -10 4 -20 -20 -20 -20 -20 -7 -20 -20 -20 -20 -20 -20 -20 -20 -20 -20 -20 -20 -20 -20 -20 -20 -20 -20 -20 -20 -20 -15 -20 -20 -20 -20 -20 -20 -20 -20 -20 -20
-20 -12 -20 -20 -20 -20 -20 -20 -20 -20 -11 -13 -2 8 -20 -20 -20 -20 -20 -20 -20 -20 -20 -20 -20 -20 -20 -20 -20 -20 -20 -20 -20 -20 -20 -20 -20 -20 -20 -20 -20 -20 -20 -20
-20 -20 -20 -20 -20 -20 -20 -20 -20 -19 -20 -20 -20 -20 -20 -20 -20 -20 -20 -20 -20 -20 -20 -20 -20 -20 -20 -20 -20 -20 -20 -20 -20 -20 -20 -20 -20 -20 -20 -20 -20 -20 -20 -20
-20 -19 -20 -20 -20 -20 -20 -20 -20 -20 -20 -20 -20 -20 -20 -20 -20 -20 -20 -20 -20 -20 -20 -20 -20 -20 -20 -20 -20 -20 -20 -20 -20 -20 -20 -20 -20 -20 -20 -20 -20 -20 -20 -20
-2 6 -20 -20 -20 -20 -20 -20 -20 -6 -20 -20 -20 -20 -20 -20 -20 -20 -20 -20 -20 -20 -20 -20 -20 -20 -20 -20 -20 -20 -20 -20 -20 -20 -20 -20 -20 -20 -20 -20 -20 -20 -20 -20
-19 7 -20 -13 -3 -13 -20 -17 -10 -18 -20 -20 -20 -20 -20 -20 -20 -5 -7 -7 -20 -20 -20 -20 -20 -20 -20 -20 -20 -20 -20 -20 -20 -20 -20 -20 -20 -20 -20 -20 -20 -20 -20 -20
-4 -0 -1 -20 11 -19 -20 -20 -3 7 -20 -20 -20 -20 -20 -20 -20 -20 -20 -20 -20 -20 -20 -20 -20 -20 -20 -20 -20 -20 -20 -20 -17 -10 -20 -20 -20 -20 -20 -20 -20 -20 -20 -20
-14 13 -10 -16 -13 0 -20 -18 4 1 -16 -20 -20 -20 -20 -20 -20 -20 -20 -20 -20 -20 -20 -20 -20 -19 -20 -11 -20 -20 -20 -20 -20 -20 -20 -20 -20 -20 -20 -20 5 -0 -20 -20
3 5 -1 -6 -11 -13 -19 -20 -20 -1 5 -20 -20 -18 -20 -20 -20 -20 -20 -20 -20 -20 -20 -20 -20 -20 -20 -20 -18 -20 -10 -14 -17 -20 -12 -20 -20 -20 -20 -20 -18 -19 -20 -20
-4 -20 -20 8 7 -20 -20 -20 -20 -15 -4 -20 -20 -20 -20 -20 -20 -20 -20 -20 -20 -20 -20 -20 -20 -20 -20 -20 -20 -20 -20 -20 -10 -20 -17 -20 -20 -20 -15 -0 -20 -20 -20 -20
11 -20 -18 -3 12 1 -12 -20 -19 2 -2 -20 -20 -20 -20 -20 -20 -20 -20 -20 -20 -20 -20 -20 -20 -20 -20 -20 -20 -20 -20 -20 -20 -20 -20 -20 -20 -20 -20 -20 -20 -20 -20 -20
-5 9 5 -7 11 -12 -20 -19 -17 -20 4 -20 -12 -20 -20 -20 -20 -20 -20 -20 -20 -20 -20 -20 -20 -20 -20 -20 -20 -20 -20 -20 -20 -20 -20 -20 -20 -14 -13 -20 -20 -20 -20 -20
1 -2 -20 -20 8 7 8 -20 -20 9 0 10 -20 -4 -20 -20 -20 -20 -20 -20 -20 -20 -20 -16 -20 -16 -20 -20 -20 -20 -20 -20 -20 -20 -20 -20 -20 -20 1 -11 -20 -20 -20 -16
-1 5 5 5 11 -14 -2 -20 -20 2 -3 22 -15 -9 -20 -20 -20 -20 -20 -20 -20 -20 -20 -2 -20 -20 -20 -20 -20 -20 -20 -20 -20 -20 -20 -20 -20 -15 -14 -20 -20 -20 -20 -20
3 -6 10 7 -2 -10 5 -20 -20 -20 -19 25 15 -8 -20 -20 -19 19 -20 -20 -20 -20 12 11 -11 -20 -20 -20 -20 -20 -20 -20 -20 -20 -20 -20 -20 -20 -20 -20 -20 -20 -20 -20
-16 11 -12 -20 -20 -4 6 -18 25 9 1 29 24 -6 -20 -20 -20 -20 -20 -20 -20 3 14 12 9 3 0 -11 -0 -20 -20 -20 -20 -20 -20 -20 -20 -20 -20 -20 -20 -20 -20 -20
9 -20 -20 -20 8 18 2 -20 6 30 34 33 31 19 -12 -11 -0 -16 -5 -9 -1 6 -18 -16 9 8 14 22 -5 -20 -20 -20 -20 -20 -20 -20 -20 -20 -20 -20 -20 -20 -20 -20
-20 -20 -8 -20 -20 -1 -20 10 26 31 32 32 8 18 -20 -20 -6 -15 -14 -12 13 -2 14 14 21 9 15 -3 -20 -20 -20 -20 -20 -20 -16 11 -11 -20 -6 -9 -20 -20 -20 -20
-20 -20 -4 -20 -20 -3 25 28 30 32 30 25 23 -20 5 9 22 22 19 20 13 5 6 8 25 16 -2 1 -18 -20 -8 -20 -20 -20 -20 -9 -20 -14 -16 -14 2 4 -20 -20
-20 -20 -20 -20 -5 12 27 31 25 24 23 19 -5 -20 -2 -20 -2 9 4 28 28 -17 -4 26 18 13 8 6 -19 -20 -20 -20 -20 -20 -20 -20 -20 -20 -20 -20 -20 -15 -20 -20
-20 -20 -20 -20 2 22 17 21 26 22 -0 -0 9 7 -20 -12 -20 -14 19 25 20 -20 21 22 -19 -20 -20 -20 -12 -20 -20 -20 -20 -11 -9 -7 -18 -20 -20 -20 -20 -20 -18 -20
-20 -12 -16 -10 18 2 -3 -18 -15 2 4 19 2 16 21 -4 -18 7 21 12 16 23 7 -20 -20 6 -8 -20 -20 -20 -20 -13 -6 2 -16 -20 -20 -20 -20 -20 -20 -16 -18 -20
3 -20 -20 -20 -9 -20 -17 -8 -20 -20 -20 0 10 22 -2 -5 24 -18 15 14 15 -20 -20 -20 -18 -10 -19 -20 -20 -20 -8 -8 -6 9 10 -8 -12 -19 -20 -20 -20 -20 -19 -14
-20 -7 -20 -20 -20 -16 -4 -20 -20 -19 -9 -11 -20 -17 -14 14 17 -14 15 -7 -20 -20 -20 -20 -20 -20 -20 -20 -16 5 14 -16 -15 2 19 23 23 22 17 -17 -10 -4 -4 -4
-20 -20 -9 -20 -20 -20 0 -20 -5 17 21 24 10 -4 8 -20 -4 -8 -20 -20 -20 -20 -20 -20 -20 -20 -20 -20 -17 11 13 13 15 7 13 25 29 29 24 -6 -7 2 3 -0
-9 -20 -20 -20 -20 -20 -2 -5 -3 -1 -8 -2 19 -0 -20 -18 -19 -20 -20 -20 -20 -20 -20 -20 -20 -20 -20 -20 -20 -10 3 7 13 20 15 6 8 19 19 0 -1 11 6 6

GFSNW_prec_radar_063.txt.gz
Reflectivity
4 -20 -8 -20 9 14 -20 -20 -20 -20 -20 -20 -18 -14 -6 1 -20 -20 -20 -20 -20 -20 -20 -20 -20 -20 -20 -20 -20 -20 -20 -20 -2 -20 -20 -20 -20 -20 -20 -20 -20 -20 -20 -20
1 -20 -20 -20 -17 8 -20 -20 -20 -20 -20 -20 -20 -20 -20 -20 -20 -20 -20 -20 -20 -20 -20 -20 -20 -20 -20 -20 -20 -20 -20 -20 -8 -5 -20 -20 -20 -20 -20 -20 -20 -20 -20 -20
8 -9 -20 -20 -20 -20 -20 -20 -20 -20 -20 -20 -20 -20 -20 -20 -20 -20 -20 -20 -20 -20 -20 -20 -20 -20 -20 -20 -20 -20 -20 -20 -20 -20 -20 -20 -20 -20 -20 -20 -20 -20 -20 -20
9 1 -20 -20 -20 -20 -20 -20 -20 -20 -20 -20 -20 -20 -20 -20 -20 -20 -20 -20 -20 -20 -20 -20 -20 -20 -20 -20 -20 -20 -20 -20 -20 -20 -20 -20 -20 -20 -20 -20 -20 -20 -20 -20
-17 -17 -20 -20 -20 -20 -20 -20 -20 -20 -20 -20 -20 -20 -20 -20 -20 -20 -20 -20 -20 -20 -20 -20 -20 -20 -20 -20 -20 -20 -20 -20 -20 -20 -20 -20 -20 -20 -20 -20 -20 -20 -20 -20
-14 -17 -13 -20 -17 -20 -20 -20 -20 2 -20 -20 -20 -20 -20 -20 -20 -20 -20 -20 -20 -20 -20 -20 -20 -20 -20 -20 -20 -20 -20 -20 -20 -20 -20 -20 -20 -20 -20 -20 -20 -20 -20 -20
-20 -20 4 -20 -10 -20 -20 -20 -12 -17 -20 -20 -20 -20 -20 -20 -20 -20 -20 -20 -20 -20 -20 -20 -20 -20 -20 -20 -20 -20 -20 -20 -20 -20 -20 -20 -20 -20 -20 -20 -20 -20 -20 -20
2 -8 3 -20 -20 -20 -20 -20 -20 -4 -20 -20 -20 -20 -20 -20 -20 -20 -20 -20 -20 -20 -20 -20 -20 -20 -20 -20 -20 -20 -20 -20 -20 -20 -20 -20 -20 -20 -20 -20 -20 -20 -20 -20
9 -20 -15 -10 -18 -20 -20 -20 -20 -5 -4 -20 -20 -20 -20 -20 -20 -20 -20 -20 -20 -20 -20 -20 -20 -20 -20 -0 -20 -20 -20 -20 -20 -20 -20 -20 -20 -20 -20 -20 4 -16 -19 -20
9 -20 -20 7 -19 -18 -20 -20 -20 -2 10 -20 -20 -9 -20 -20 -20 -20 -20 -20 -20 -20 -20 -20 -20 -20 -20 -12 -1 -20 -3 -20 -20 -20 -20 -20 -20 -20 -20 -20 2 -19 -20 -20
2 4 -20 6 7 -17 -20 -20 -19 -20 -9 -20 -20 -20 -20 -8 -20 -20 -20 -20 -20 -20 -20 -20 -20 -20 -15 -20 -20 -20 -20 -20 -14 -20 -20 -20 -20 -20 -20 -12 -20 -20 -20 -20
-20 -4 -16 -7 -19 6 -20 -20 -20 -20 3 -20 -20 -20 -20 -20 -20 2 -20 -20 -20 -20 -20 -20 -20 -20 -20 -20 -20 -20 -20 -20 -20 -20 -20 -20 -20 -20 -20 -20 -20 -20 -20 -20
-20 -19 9 4 1 -3 4 -20 -20 -19 5 -20 -20 -20 -20 -20 -20 -20 -20 -20 -20 -20 -20 -20 -20 -20 -20 -20 -18 -20 -20 -20 -20 -20 -20 -20 -20 -20 -20 -20 -19 -20 -20 -20
-13 -3 -8 11 -14 3 9 -20 -20 1 8 -2 -20 -20 -20 -20 -20 -10 -20 -12 -19 -20 -20 -18 -20 -20 -20 -20 -20 -20 -20 -20 -20 -20 -20 -20 -20 -20 -20 -17 -20 -11 -20 -20
-16 -20 -3 3 10 12 -0 -20 -20 -20 -0 3 -0 -20 -20 -20 -20 6 11 -19 -13 -20 -13 6 -17 -20 -20 -20 -20 -20 -20 -20 -20 -20 -20 -20 -20 -20 -20 8 -8 -20 -20 -20
-19 -20 -20 8 5 -11 10 -20 -14 -20 7 9 -4 11 -19 -20 -2 20 12 -20 -20 -20 10 12 -9 -6 -20 -20 -20 -20 -20 -20 -20 -20 -20 -20 -20 -20 -20 -20 -20 -20 -20 -20
2 -20 3 -14 -20 -1 -14 -20 18 -16 7 -3 -7 7 5 16 -13 16 23 14 -15 4 19 11 7 -12 9 -1 -9 -20 -20 -20 -20 -20 -20 -20 -20 -20 -20 -20 -20 -20 -20 -20
-20 -6 -20 -20 -13 14 16 -18 13 -20 -6 16 13 20 22 14 33 21 -8 -1 -4 15 4 5 12 4 -15 7 -18 -20 -20 -20 -20 -20 -20 -20 -20 -20 -20 -20 -20 -20 -20 -20
-20 -20 -20 -20 -20 -7 -20 1 -6 -9 17 14 28 29 13 22 9 5 11 0 10 -4 11 -6 12 -18 -3 -20 -20 -4 -17 -20 -20 -20 -20 -20 -20 -20 -20 -20 3 -11 -19 -20
-20 -20 -11 -4 -20 -20 -12 25 24 24 22 30 20 31 34 18 12 20 1 23 11 10 -20 -7 24 6 -20 -20 -14 4 -18 -20 -20 -20 -20 -20 -20 -20 -13 -18 -15 -4 2 2
-20 -20 -20 -20 6 12 21 30 16 24 14 16 3 24 33 24 24 28 19 9 15 -18 -14 7 8 -6 -20 -20 -20 5 -11 -10 -20 -20 -20 -20 -20 -20 -20 -20 -20 -20 -20 -19
-20 -20 -20 -15 -18 22 13 13 21 11 -15 21 28 15 -0 -15 -20 -20 -8 -5 11 -19 14 16 -20 -20 -20 -20 -20 -20 -20 -20 -20 -20 -20 -20 -20 -18 -14 -20 -20 -20 -20 -20
-20 -10 16 6 -17 3 -0 -19 -9 -8 -7 5 13 21 -20 -20 -20 4 4 16 -10 22 13 -20 -20 -20 -20 -20 -20 -20 -20 -19 -19 -12 -10 2 6 -16 -4 -20 -20 -20 -20 -20
-2 -7 -18 -20 -19 -9 -19 -18 -20 -17 -6 19 -19 -18 -18 11 23 3 -4 12 17 -20 -20 -20 -20 -20 -20 -2 1 -2 -20 -17 -8 -5 -7 -0 3 5 4 -13 -20 -20 -20 -16
-20 -7 -20 -20 -20 -18 13 14 6 -8 -5 30 -16 -4 -18 -15 6 15 11 -4 -20 -20 -20 -20 -20 -20 -20 -16 8 4 -3 -8 -12 1 -14 -17 8 20 19 17 4 -11 -11 -12
-20 -20 -20 -20 -20 -20 -18 -20 -10 10 20 28 25 -8 -20 -20 -15 7 -20 -20 -20 -20 -20 -20 -20 -20 -20 -14 6 7 3 4 12 13 11 -7 8 17 27 24 20 21 17 16
-20 -20 -20 -20 -20 -20 -20 -3 -8 -11 17 8 17 7 -20 12 -19 -20 -20 -20 -20 -20 -20 -20 -20 -20 -20 -20 -20 -19 1 -12 -4 -7 5 17 11 2 14 13 15 10 20 -11

GFSNW_prec_radar_066.txt.gz
Reflectivity
-19 1 -20 -20 -5 -19 -20 -20 -20 -20 -20 -20 -13 0 -19 -20 -20 -20 -20 -20 -20 -20 -20 -20 -20 -20 -20 -20 -20 -20 -20 -20 3 4 -20 -20 -20 -20 -20 -20 -20 -20 -20 -20
3 -20 -17 -20 -20 -10 -1 -20 -20 -20 -20 -20 -20 -20 -20 -20 -20 -20 -20 -20 -20 -20 -20 -20 -20 -20 -20 -20 -20 -20 -20 -20 -17 -15 -20 -20 -20 -20 -20 -20 -20 -20 -20 -20
-3 -20 -20 -20 -20 -20 -20 -20 -20 -20 -20 -20 -14 -16 -20 -20 -20 -20 -20 -20 -20 -20 -20 -20 -20 -20 -20 -20 -20 -20 -20 -20 -20 -20 -20 -20 -20 -20 -20 -20 -20 -20 -20 -20
-1 -20 -20 -20 -20 -20 -20 -20 -20 -14 -20 -20 -20 -20 -20 -20 -20 -20 -20 -20 -20 -20 -20 -20 -20 -20 -20 -20 -20 -20 -20 -20 -20 -20 -20 -20 -20 -20 -20 -20 -20 -20 -20 -20
-6 -20 -20 -20 -20 -20 -20 -20 -4 -20 -20 -20 -20 -20 -20 -20 -20 -20 -20 -20 -20 -20 -20 -20 -20 -20 -20 -20 -20 -20 -20 -20 -20 -20 -20 -20 -20 -20 -20 -20 -20 -20 -20 -20
-2 -20 8 -20 -20 -20 -20 -20 -4 2 -20 -20 -20 -20 -20 -20 -20 -20 -20 -20 -20 -20 -20 -20 -20 -20 -20 -20 -20 -20 -20 -20 -20 -20 -20 -20 -20 -20 -20 -20 -20 -20 -20 -20
7 -20 -20 -6 -20 -20 -20 -20 -2 -12 -20 -20 -20 -20 -20 -20 -20 -20 -20 -20 -20 -20 -20 -20 -20 -20 -20 -20 -20 -20 -20 -20 -20 -20 -20 -20 -20 -20 -20 -20 -20 -20 -20 -20
-20 -20 -20 -20 -20 -20 -20 -4 -2 1 -20 -20 -20 -20 -20 -20 -20 -20 -20 -20 -20 -20 -20 -20 -13 -20 -20 -10 -20 -20 -20 -20 -20 -20 -20 -20 -20 -20 -20 -20 2 -20 -20 -20
-20 -11 -20 -20 3 -20 -20 0 -20 0 -0 -20 -20 -20 -20 -20 -20 -20 -20 -20 -20 -20 -20 -20 -20 -20 -20 -2 -20 -20 -20 -20 -20 -7 -20 -20 -20 -20 -20 -20 9 -20 -20 -20
-20 -20 -20 -20 -20 -12 -20 -20 -20 2 9 -20 -20 -20 -20 -20 -16 -20 -20 -20 -20 -20 -20 -20 -20 -13 -16 -15 -8 -20 -15 -4 -7 -13 -15 -20 -20 -20 -20 -5 -18 -20 -20 -20
-20 -20 -20 -20 -20 3 -20 -20 -20 -15 -19 -20 -20 -20 -20 -17 -20 -18 -20 -20 -20 -20 -20 -20 -20 -20 -14 2 -12 -20 -20 -9 2 -5 -17 -20 -20 -20 -8 -5 -20 -20 -20 -20
-20 -20 -20 5 -20 -20 -19 -20 -20 -20 -7 -20 -20 -20 -20 -20 -20 -20 -20 -20 -20 -20 -20 -20 -20 -20 -20 -20 -12 -20 -19 -20 -20 -20 -20 -20 -20 -20 -20 -20 -9 -20 -20 -20
-20 -20 -20 3 -20 -20 0 -20 -20 -20 -17 -20 -20 -20 -20 -20 -20 -20 -20 -20 -20 -20 -20 -20 -11 -20 -20 -20 -19 -20 -20 -20 -20 -20 -20 -20 -20 -20 -20 -20 -9 -20 -20 -20
-20 -18 -0 -10 -20 -20 1 -7 -20 -20 -20 -14 -20 -20 -20 -20 -20 -20 -20 -19 -20 -20 -20 9 7 -11 -20 -20 -20 -20 -20 -20 -20 -20 -20 -20 -20 -20 -20 -20 -20 -17 -20 -20
-20 -20 -2 -20 -3 6 9 -19 -20 -16 -13 7 -20 -20 -20 -20 -20 -20 -20 -15 -12 -19 6 2 3 -15 -9 -20 -20 -20 -20 -20 -20 -20 -20 -20 -20 -20 -20 -20 -20 -15 -20 -20
-20 -3 2 -20 5 6 5 -20 -14 -18 -20 7 -20 -20 -20 -20 -20 -13 -20 -18 -20 12 18 7 13 -20 6 -20 4 -20 -20 -20 -20 -20 -20 -20 -20 -20 -20 -20 -20 -20 -20 -20
-16 17 -14 3 10 10 -16 -20 -20 -20 8 11 -8 -8 -18 -17 0 20 13 -5 10 -13 19 13 -11 -1 7 4 -0 -20 -20 -20 -20 -20 -20 -20 -20 -20 -20 -20 -20 -20 -20 -20
16 13 7 -6 -20 4 8 -2 13 -15 1 10 -3 -15 22 18 18 25 20 29 17 20 14 14 -2 -7 -1 -0 -20 -20 -20 -20 -20 -20 -20 -20 -20 -20 -20 -20 -20 -20 -20 -20
22 8 -11 -15 -20 -8 -20 -20 -5 -6 1 7 13 17 30 17 30 17 17 8 12 -5 10 2 18 10 11 -20 -20 -20 -20 -20 -20 -20 -20 -20 -20 -20 -20 -20 -20 -20 -20 -20
15 12 10 -20 -20 -20 -11 20 29 29 15 16 5 27 36 22 33 31 34 16 3 10 11 2 22 2 -20 -20 -20 -20 -20 -20 -11 -20 -20 -20 -20 -20 -20 -20 -20 -20 -20 -20
30 19 -19 -20 -6 9 23 22 16 15 11 6 -19 7 24 34 39 34 16 23 12 2 -11 12 5 -17 -20 -20 -20 -20 -19 -9 -7 -20 -20 -20 -20 -20 -20 -20 -20 -20 -20 -20
27 12 -20 -20 -6 24 11 2 19 6 -12 3 18 29 13 28 34 14 -17 -18 13 -4 7 18 -17 -20 -20 -20 -20 -20 -20 -20 -20 -20 -20 -20 -20 -20 -20 -20 -14 -20 -20 -20
14 -8 -6 10 5 12 4 -17 3 8 -10 11 16 36 26 11 -13 -20 -14 -16 -3 25 15 -18 -20 -20 -20 -20 -20 -20 -20 -20 -20 -20 -20 -20 -20 -2 -2 -6 -9 -19 -20 -20
14 2 -2 4 -20 -17 -18 -17 -20 -19 -9 18 39 29 22 9 15 13 -3 0 16 -16 -3 7 14 21 2 0 -13 -12 -20 -20 -20 -5 -7 -8 -12 -3 16 11 -6 -20 -20 -20
8 1 -20 -20 -19 -13 19 18 1 12 25 19 23 17 -3 -17 -2 11 15 4 -20 -20 -20 -20 -20 -5 6 9 -3 -20 -20 -19 4 14 -5 -18 -16 -6 -3 17 10 1 -5 -13
-20 -20 -20 -20 -20 -20 -20 3 13 3 -17 17 29 13 -20 -20 -16 -18 -20 -20 -13 -19 -20 -20 -20 -20 -20 -16 4 5 -11 -20 -4 1 8 18 8 9 12 28 25 6 11 7
-20 -20 -20 -20 -20 -20 -20 5 15 -15 -8 -6 24 15 -20 14 -13 -20 -20 -20 -20 -20 -20 -20 -20 -20 -20 -20 -20 -20 -20 -20 -20 -19 -9 2 7 9 16 18 20 16 14 -13

GFSNW_prec_radar_069.txt.gz
Reflectivity
-19 -20 -20 -20 -20 -20 -20 -20 5 -20 -20 -15 -20 3 -20 -20 -20 -20 -20 -20 -20 -20 -20 -20 -20 -19 -19 -20 -20 -20 -20 -20 -19 5 -20 -20 -20 -20 -20 -19 -20 -20 -20 -20
-6 -20 -20 -20 -20 -20 -19 -20 -20 -20 -20 -20 -20 -18 -20 -20 -20 -20 -20 -20 -20 -20 -20 -20 -20 -20 -20 -20 -20 -20 -20 -20 -5 -20 -20 -20 -20 -20 -20 -20 -20 -20 -20 -20
-0 -20 -20 -20 -20 -20 -20 -19 -11 -20 -20 -20 -1 -20 -20 -20 -20 -20 -20 -20 -20 -20 -20 -20 -20 -20 -20 -20 -20 -20 -20 -20 -20 -20 -20 -20 -20 -20 -20 -20 -20 -20 -20 -20
-9 -20 -20 -20 -20 -20 -20 -18 -20 -15 1 -16 -20 -20 -20 -20 -20 -20 -20 -20 -20 -20 -20 -20 -20 -20 -20 -20 -20 -20 -20 -20 -20 -20 -20 -20 -20 -20 -20 -20 -20 -20 -20 -20
-18 -20 -20 -20 -20 -20 -20 -9 -6 -20 -20 -20 -14 -20 -4 -15 -20 -20 -20 -20 -20 -20 -20 -20 -20 -20 -20 -20 -20 -20 -20 -20 -20 -20 -20 -20 -20 -20 -20 -20 -20 -20 -20 -20
-20 -10 -20 -20 -20 -20 -13 -0 -2 5 -20 -2 -20 -20 -20 -20 -9 -19 -20 -20 -20 -20 -20 -20 -20 -20 -20 -20 -20 -20 -20 -20 -20 -20 -20 -20 -20 -20 -20 -20 -20 -20 -20 -20
-20 -20 -20 -20 -20 -20 -20 6 4 -8 -20 -20 -20 -20 -20 -20 -17 -4 -20 -20 -16 -20 -20 -20 -20 -20 -20 -20 -20 -20 -20 -20 -20 -20 -20 -20 -20 -20 -20 -20 -20 -20 -20 -20
-20 -17 -20 -20 -20 -20 -20 2 5 10 0 -20 -20 -20 -20 -20 -20 -19 -20 -20 -20 -20 -20 -9 -1 -1 -20 -10 -20 -20 -20 -20 -6 -20 -20 -20 -20 -20 -20 -20 -4 -20 -20 -20
-20 -20 -20 -20 -20 -20 -20 -8 -4 8 8 -20 -20 -20 -20 -20 -20 -19 -20 -20 -20 -20 -2 6 -20 -15 -20 -19 -1 -20 -20 -20 -20 -4 -20 -20 -20 -20 -20 -20 14 -20 -20 -20
-20 -20 -20 -20 -20 -20 -20 -17 -19 8 -19 -20 -20 -20 -20 -12 -14 -15 -20 -20 -20 -20 13 10 -1 -9 -20 -13 -11 -13 -7 2 -6 -9 -20 -20 -20 -20 -20 -6 5 -20 -20 -20
-20 -20 -20 -20 -20 -20 -20 -20 -15 -18 -20 -20 -20 -20 -20 -16 -3 -18 -20 -15 -20 -20 11 7 8 -1 -20 -12 -20 -12 -4 -3 -5 -15 -20 -20 -20 -20 -14 -7 -20 -20 -20 -20
-20 -20 -20 -20 -18 -20 -20 -18 -20 -20 -3 -20 -20 -20 -20 -20 -20 -20 -18 -8 -20 -18 -17 -19 -18 -20 -20 -5 -20 -20 -20 -19 -20 -20 -7 -20 -20 -20 -20 -20 -20 -19 -20 -20
-20 -20 -20 -20 -20 -20 -8 -1 2 -7 -10 -20 -10 -12 -20 -20 -20 -20 -20 8 1 -15 -20 -8 -19 -20 -20 -20 -20 -7 -20 -20 -20 -20 -20 -20 -20 -20 -20 -20 -20 -20 -20 -20
-20 -20 -20 -20 -20 -20 -20 9 8 6 0 -0 5 -0 -1 -16 -20 -20 -20 -20 -19 -20 -20 -7 -20 -12 -20 -16 -20 -20 -18 -20 -20 -20 -20 -20 -20 -20 -20 -20 -20 -20 -20 -20
-7 -9 -7 -19 -20 -20 12 8 -5 10 -1 -14 -20 -20 -20 -20 -20 -20 -20 -20 -17 -0 -5 7 -14 -19 -10 -20 -20 -20 -20 -20 -20 -20 -20 -20 -14 -20 -20 -20 -20 -20 -20 -17
9 13 17 8 -13 -10 12 -16 -20 -20 13 9 -13 -20 -20 -20 -20 -20 -20 -20 -20 15 28 13 13 -19 -1 2 -1 -20 -20 -20 -20 -20 -20 -20 -20 -20 -20 -20 -20 -20 -20 -20
3 5 19 17 -17 18 6 -1 6 -20 2 0 4 -16 -14 -19 12 8 9 -8 12 15 15 18 13 17 8 -2 -4 -20 -20 -20 -20 -20 -20 -20 -20 -20 -20 -20 -20 -20 -20 -20
27 28 21 18 18 14 4 -20 14 -6 -18 -5 7 -15 -0 15 5 26 14 11 4 13 17 13 -4 14 11 3 -20 -20 -20 -20 -20 -20 -20 -20 -20 -20 -20 -20 -20 -20 -20 -20
11 -9 24 -2 14 18 7 -9 4 -0 1 18 14 10 17 29 35 11 30 16 28 16 8 6 9 7 -1 -20 -20 -20 -20 -20 -20 -20 -20 -20 -20 -20 -20 -20 -20 -20 -20 -20
27 28 16 25 21 5 -3 16 27 31 20 15 9 9 17 33 22 12 31 18 23 31 6 7 0 -18 -20 -20 -20 -20 -20 -20 -20 -20 -20 -20 -20 -20 -20 -20 -20 -20 -20 -20
23 18 21 12 15 12 25 25 14 -4 8 -8 -13 -20 2 21 29 38 0 34 23 7 -6 11 2 -4 -20 -20 -20 -20 -20 -20 -20 -20 -20 -20 -20 -20 -20 -20 -20 -20 -20 -20
21 21 23 19 15 23 16 1 18 -5 -6 3 12 14 26 25 33 31 30 25 27 3 1 2 -17 -20 -20 -20 -20 -20 -20 -20 -20 -20 -20 -20 -20 -20 -20 -20 -20 -20 -20 -20
11 12 26 20 -5 5 11 7 10 13 -19 10 25 31 34 30 33 28 26 -7 -18 -5 14 -16 -20 -20 -20 -20 -20 -20 -20 -20 -20 -20 -20 -20 -20 -20 -20 -20 -20 -20 -20 -4
10 -9 3 8 -0 -17 8 10 10 6 -18 17 29 33 26 28 29 14 -13 -7 18 -4 4 -9 34 32 28 14 18 29 -8 -20 -20 -20 -20 -4 -5 -7 -4 -2 9 -1 -20 -20
21 4 2 -9 -18 -11 -4 -16 -16 -1 -12 9 21 19 22 25 11 -1 12 9 -5 -20 -20 -20 -6 21 15 26 23 2 -20 -20 -20 -20 -18 -10 -7 -18 -12 18 19 -4 10 -7
-5 -1 2 -10 -18 -6 -3 -20 -7 17 5 -6 14 25 15 7 -19 -19 -20 -18 -20 -19 -20 -20 -20 -20 -20 -13 -0 15 -11 -20 0 -11 -4 -16 -3 -1 -2 -6 -11 8 -4 -3
-20 -20 -19 -19 -12 -20 -19 -6 3 -8 -11 -20 -18 14 10 3 8 -20 -20 -9 -20 -20 -20 -20 -20 -20 -20 -20 -20 -20 -20 -20 -20 -20 -20 -20 -20 -19 -11 -6 1 15 13 8

GFSNW_prec_radar_072.txt.gz
Reflectivity
-11 -20 -20 -20 -20 -20 -20 -20 -10 -20 -20 -20 -20 -19 -20 -20 -20 -20 -20 -20 -20 -20 -20 -20 -20 -20 -20 -18 -20 -20 -20 -12 -20 2 -20 -20 -19 20 -10 -20 -20 -20 -20 -20
-20 -20 -20 -20 -20 -20 -20 -20 -20 -20 -20 -19 -20 -20 -20 -20 -20 -20 -20 -15 -20 -20 -20 -20 -20 -20 -20 -20 -20 -20 -20 -20 -20 -20 -20 -20 -20 -20 -20 -20 -20 -20 -20 -20
-20 -11 -20 -20 -20 -20 -20 -20 -20 -20 -20 -20 -20 -18 -20 -14 -20 -20 -20 -20 -20 -20 -20 -20 -20 -20 -20 -20 -20 -20 -20 -20 -20 -20 -20 -20 -20 -20 -20 -20 -20 -4 -20 -20
-20 -14 -20 -20 -20 -20 -20 -20 -15 -9 -20 -20 -20 -10 2 -18 -20 -20 -20 -20 -20 -20 -20 -20 -20 -20 -20 -20 -20 -20 -20 -20 -20 -20 -20 -20 -20 -20 -20 -20 -20 -20 -20 -20
-20 -20 -20 -20 -20 -20 -20 -18 -20 -20 -20 -20 -20 -20 -20 4 -20 -20 -0 -20 -20 -20 -20 -20 -20 -20 -20 -20 -20 -20 -20 -20 -20 -20 -20 -20 -20 -20 -20 -20 -20 -20 -20 -20
-20 -20 -20 -20 -20 -20 -20 -20 -20 -1 -20 -20 -20 -20 -14 -14 -15 4 -20 -20 -20 -20 -20 -20 -20 -20 -20 -20 -20 -20 -20 -20 -20 -20 -20 -20 -20 -20 -20 -20 -20 -20 -20 -20
-20 -20 -20 -20 -20 -20 -20 -0 -6 3 -12 -20 -20 -20 -20 -7 -20 6 -12 -20 -20 -20 -20 -20 -20 -20 -20 -20 -20 -20 -20 -20 -20 -20 -20 -20 -20 -20 -20 -20 -20 -20 -20 -20
-20 -20 -20 -20 -20 -20 -20 -10 -13 2 -19 -20 -20 -20 -20 -20 -13 0 -20 -20 -20 -20 -20 -4 -14 -17 -20 -20 -20 -20 -20 -20 -20 -20 -20 -20 -20 -20 -20 -20 -20 -20 -20 -20
-20 -20 -20 -20 -20 -20 -20 -20 -20 7 -4 -15 -20 -20 -20 -14 -19 -19 -18 -20 -20 -20 8 15 -19 -7 -7 -20 -20 -20 -20 -20 -20 -20 -20 -20 -20 -20 -20 -20 -2 -20 -20 -20
-20 -20 -20 -20 -20 -20 -20 -20 -20 -1 -9 -12 -20 -20 -20 -20 8 -17 -18 -11 -14 -20 10 -1 -3 1 -20 -20 -20 -20 -7 -6 -16 -15 -20 -20 -20 -20 -20 -6 -1 -20 -20 -20
-20 -20 -20 -20 -20 -13 -20 -20 -20 -20 -20 -14 -2 -18 -20 -20 -9 5 -20 -2 -20 -20 -20 1 13 4 -20 -20 -20 -20 -20 -17 -20 -20 -20 -20 -20 -20 -13 -19 -20 -20 -20 -20
9 -15 -20 -20 -20 -20 -20 -20 -20 -20 -6 -20 -8 -14 16 -8 -20 -14 -4 -19 -20 -13 -20 -20 -20 -20 -20 -20 -20 -20 -20 -19 -20 -20 -20 -20 -20 -20 -20 -20 -20 -20 -16 -20
5 13 -17 -20 -20 -2 -20 -19 -18 10 3 -20 -20 -20 -16 -19 -20 -20 -20 -10 14 21 -20 -5 10 -19 -20 -20 -20 -20 -20 -20 -20 -20 -20 -20 -20 -20 -20 -20 -20 -20 -20 -17
5 10 20 1 -17 -17 -12 -9 -2 14 4 4 5 -15 -20 -5 7 -20 -20 -20 -10 -19 -6 -13 -13 -20 -20 -20 -20 -20 -17 -20 -20 -20 -20 -20 -20 -20 -20 -20 -20 -20 -20 -20
-6 23 32 6 -20 -10 12 -20 7 14 3 -11 -13 -9 -20 -20 -18 -3 -20 -20 -16 6 6 5 -18 -20 -20 -20 -20 -20 -20 -20 -20 -20 -20 -20 -20 -20 -20 -20 -20 -20 -20 -20
25 24 28 30 -15 10 14 -18 6 -1 14 17 -6 -19 -20 -20 -20 -11 -0 -13 -20 -4 15 8 -19 7 -20 -20 -20 -20 -20 -20 -20 -20 -20 -20 -20 -20 -20 -20 -20 -20 -20 -20
23 34 24 10 15 14 16 11 21 -14 -16 22 -0 -20 -20 -10 -20 -20 11 -1 -4 5 12 2 12 17 -11 -19 -20 -20 -20 -20 -20 -20 -20 -20 -20 -20 -20 -20 -20 -20 -20 -20
19 28 8 18 8 16 18 15 -2 4 11 5 1 -12 -20 19 16 12 12 19 -1 16 16 13 -4 -4 -18 -2 -20 -20 -20 -20 -20 -20 -20 -20 -20 -20 -20 -20 -20 -20 -20 -20
20 13 15 13 10 5 6 -20 6 -20 13 16 6 7 -13 16 29 16 32 23 20 15 18 11 13 -20 4 -20 -20 -20 -20 -20 -20 -20 -20 -20 -20 -20 -20 -20 -20 -20 -20 -20
22 24 21 21 3 -12 -19 9 27 26 28 19 5 -1 4 -16 19 36 21 23 19 18 3 17 7 -18 -20 -20 -20 -20 -20 -20 -20 -20 -20 -20 -20 -20 -20 -20 -20 -20 -20 -20
7 23 28 18 -14 17 20 17 9 11 9 -14 -14 -20 -3 16 7 25 18 32 9 7 12 18 7 -20 -17 -20 -20 -20 -20 -3 -15 -20 -20 -20 -20 -20 -20 -20 -20 -20 -20 -20
8 16 20 -19 7 6 11 2 6 3 -19 -1 -1 21 31 27 24 29 31 17 22 7 -3 12 -20 -20 -20 -20 -20 -20 -20 -20 -20 -20 -20 -20 -20 -20 -20 -20 -20 -20 -20 -20
-4 3 18 13 -3 -16 -1 -20 -15 6 24 19 28 23 29 29 31 20 21 9 -13 6 5 -11 -20 -20 -20 -20 -20 -20 -20 -20 -20 -20 -20 -20 -20 -20 -20 -20 -20 -20 -20 -20
-15 -20 -20 -7 -3 -19 10 -3 -0 22 22 -15 9 23 33 31 31 29 6 24 11 -12 -0 -20 -1 28 26 6 -16 -15 11 -13 -20 -20 -20 -19 -10 -7 -4 -2 -3 -11 -18 -18
-18 -2 -11 -16 -20 -18 -20 -20 -15 -13 -8 11 -9 10 22 23 23 25 21 10 -16 -20 -20 -10 -1 33 18 14 34 35 29 21 5 -15 -20 -20 -7 -2 2 -3 -13 -16 -19 -15
-14 -7 -13 -16 -20 -14 -20 -6 -17 2 6 1 12 -18 -8 -13 -19 -20 2 -20 6 10 -19 -14 -20 -14 -1 7 15 19 20 15 10 5 -19 -20 -20 -16 -11 -16 -19 -19 -20 -20
-20 -20 -20 -20 -20 -20 -20 -20 -8 -9 3 -6 -20 -12 -20 -3 -20 -20 -20 5 23 -15 -20 -20 -20 -20 -20 -20 -20 -19 -20 -20 -20 -20 -20 -20 -20 -20 -20 -20 -20 -20 3 -14

GFSNW_prec_radar_075.txt.gz
Reflectivity
-20 -20 -20 -20 -20 -20 -20 -20 -20 -20 -20 -20 -20 -20 -12 -20 -20 -20 -20 -20 -20 -20 -20 -20 -20 -20 11 -4 -18 -9 -20 -20 -20 -18 -20 -20 -16 -20 -20 -20 1 1 -20 -20
-20 -20 -20 -20 -20 -20 -20 -20 -20 -20 -20 -20 -20 -20 -20 -20 -20 -20 -20 -20 -20 -20 -20 -20 -20 -20 -20 -20 -9 -20 -19 -20 -20 -20 -18 -15 -20 -9 -20 -20 -20 -20 -16 -20
-20 -20 -20 -20 -20 -20 -20 -20 -20 -20 -20 -20 -14 -5 -20 -20 -20 -20 -20 -20 -20 -20 -20 -20 -20 -20 -20 -20 -20 -20 -20 -20 -20 -20 -20 -20 -20 -20 -20 -20 -20 -20 -20 -20
-20 -20 -20 -20 -20 -20 -20 -20 -20 -20 -20 -20 -16 -20 1 -20 -8 -20 -20 -20 -20 -20 -20 -20 -20 -20 -20 -20 -20 -20 -20 -20 -20 -20 -20 -20 -20 -20 -20 -20 -20 -20 -20 -16
-20 -20 -20 -20 -20 -20 -20 -20 -20 -20 -20 -20 -20 3 -20 8 -4 -20 -20 -20 -20 -20 -20 -20 -20 -20 -20 -20 -20 -20 -20 -20 -20 -20 -20 -20 -20 -20 -20 -20 -20 -20 -20 -20
-20 -20 -20 -20 -20 -20 -20 -20 -20 -20 -20 -20 -20 -20 6 -6 7 -18 4 -20 -20 -20 -20 -20 -20 -20 -20 -20 -20 -20 -20 -20 -20 -20 -20 -20 -20 -20 -20 -20 -20 -20 -20 -20
-20 -20 -20 -20 -20 -20 -20 -20 -20 -20 -20 -20 -17 -14 -20 -17 -12 -19 7 -9 -20 -20 -20 -20 -20 -20 -20 -20 -20 -20 -20 -20 -20 -20 -20 -20 -20 -20 -20 -20 -20 -20 -20 -20
-20 -20 -20 -20 -20 -20 -20 -20 -20 -20 -20 -20 -20 -20 -20 -20 -20 5 -6 -17 -20 -20 -20 5 -10 1 -20 -20 -20 -20 -20 -20 -20 -20 -20 -20 -20 -20 -20 -20 -20 -20 -20 -20
-20 -20 -20 -20 -20 -20 -20 -20 -20 -20 -20 -20 -20 -20 4 -20 -20 -20 -20 -20 -20 -20 -20 2 -8 -19 -18 -20 -20 -20 -20 -20 -20 -20 -20 -20 -20 -20 -20 -20 -18 -20 -20 -20
-20 -11 -20 -20 -20 -20 -20 -20 -20 -20 -20 -20 -20 -20 -18 4 -6 -9 -13 -20 -15 -20 -20 -14 2 7 -20 -20 -20 -15 -20 -20 -20 -20 -20 -20 -20 -20 -20 -4 -20 -20 -20 -20
-20 -7 -11 -16 -19 -20 -20 -20 -20 -20 -20 -20 -19 -20 -20 -7 -20 -17 -19 -9 -20 -20 -20 -20 -20 -20 -13 -20 -20 -20 -20 -20 -20 -20 -16 -20 -20 -20 -20 -20 -18 -20 -20 -20
12 13 3 -5 5 -20 -20 -20 -20 -20 -4 -20 -1 -20 -20 14 -11 -20 -20 -19 2 16 -20 -20 -20 -20 -20 -20 -9 -20 -20 -20 -20 -20 -20 -20 -20 -20 -20 -20 -20 -20 -17 -20
18 4 17 7 24 -18 -13 -20 -20 -20 5 -20 -4 -5 -20 -17 -5 -20 -1 -20 -20 21 -18 -20 -20 -20 -20 -20 -20 -20 -20 -20 -20 -20 -20 -20 -20 -20 -20 -20 -20 -20 -20 -20
-20 0 26 26 19 26 -1 -20 -20 12 20 11 -8 -20 -6 -17 -17 -20 -6 -20 -20 -20 -11 -12 -20 -20 -20 -20 -20 -20 -20 -20 -20 -20 -20 -20 -20 -20 -20 -20 -20 -20 -20 -20
-20 -20 -6 26 12 29 7 -20 -20 5 22 -6 0 9 -20 -20 -20 -20 -11 -7 -20 12 -11 17 -7 -20 -20 -20 -20 -20 -20 -20 -20 -20 -20 -20 -20 -20 -20 -20 -20 -20 -20 -20
-20 -20 24 15 33 28 -17 -20 -20 -20 -2 16 1 -8 -20 -20 -20 -20 6 6 -19 -20 11 12 -20 -20 -20 -20 -20 -20 -20 -20 -20 -20 -20 -20 -20 -20 -20 -20 -20 -20 -20 -20
-16 -20 -10 15 28 17 -17 -20 -8 -15 9 -3 -20 -20 -20 -20 -18 -20 -20 12 15 -13 3 4 10 -20 15 -6 -20 -20 -20 -20 -20 -20 -20 -20 -20 -20 -20 -20 -20 -20 -20 -20
11 -9 -9 0 3 -15 9 -20 -10 5 -14 8 -15 -20 -20 21 21 -2 -19 18 10 20 18 -2 -15 -20 -8 -0 -20 -20 -20 -20 -20 -20 -20 -20 -20 -20 -20 -20 -20 -20 -20 -20
2 -20 -16 -20 -8 -15 -12 -5 -3 -11 5 -9 3 -20 -20 -20 24 27 24 14 27 11 6 10 -3 -19 -13 -20 -20 -20 -20 -20 -20 -20 -20 -20 -20 -20 -20 -20 -20 -20 -20 -20
-0 -11 -14 -20 -20 -19 -20 -20 29 29 31 12 2 -20 -14 -0 8 32 25 17 23 -10 -19 18 40 1 -20 -20 -15 -20 -20 -20 -20 -20 -20 -20 -20 -20 -20 -20 -20 -20 -20 -20
-5 -20 -13 -1 -20 9 -11 10 5 -15 -9 -20 -16 12 11 23 23 18 20 28 19 -4 -9 1 -14 -20 -20 -20 -20 -20 -20 -20 -20 -20 -3 -19 -13 -20 -20 -20 -20 -20 -20 -20
-11 -17 3 1 -14 -10 -1 1 -3 -17 -20 -16 1 24 23 30 29 19 26 24 15 6 -7 7 -20 -20 -20 -20 -20 -20 -20 -20 -20 -15 -12 -19 -20 -20 -20 -20 -20 -20 -20 -20
-20 -20 11 -12 -2 -20 -15 -20 -20 -20 31 33 13 1 31 31 34 29 21 3 11 22 16 -13 -20 -20 -9 -20 -20 -20 -20 -20 -20 -20 -20 -20 -20 -20 -20 -20 -20 -18 -19 -13
-20 -20 -20 -20 -20 -20 -20 -20 -20 -11 -1 10 -8 -19 18 24 29 29 13 23 20 -20 -20 -20 -9 13 20 6 8 -17 -4 -6 -20 -20 -20 -20 -20 -19 -15 -3 -10 -19 -20 -18
-20 -20 -20 -20 -20 -20 -20 -20 -20 -20 -11 15 -13 -16 4 0 2 16 17 5 -20 -20 4 10 21 29 31 5 23 27 27 26 26 18 -20 -20 -20 -20 -20 -17 -17 -20 -20 -20
-20 -14 -20 -20 -20 -20 -20 -20 -20 -15 -9 -20 -12 -6 2 -20 -20 -20 -20 -17 21 21 6 -18 -13 2 -3 6 18 23 22 17 12 6 -11 -2 -6 -20 -20 -20 -17 -19 -20 -20
-20 -20 -20 -20 -20 -20 -20 -20 -20 -19 -2 -20 -20 -20 -20 -20 -20 -20 -20 -3 12 20 -4 -20 -20 -20 -20 -20 -20 -7 -18 -19 -20 -20 -20 -20 -20 -20 -20 -20 -19 -19 -20 -20

GFSNW_prec_radar_078.txt.gz
Reflectivity
-20 -20 -20 -20 -20 -20 -20 -20 -20 -20 -20 -20 -20 -20 -20 -20 -20 -20 -20 -20 -20 -20 -20 -20 -20 26 19 9 -20 -20 -20 -20 -19 -20 -20 -20 -20 -20 -20 -20 -20 -20 -20 -20
-20 -20 -20 -20 -20 -20 -20 -20 -20 -20 -20 -20 -20 -20 -20 -20 -20 -20 -20 -20 -20 -20 -20 -20 -20 -5 -11 -15 -19 -20 -20 -20 -16 -6 -8 -1 13 1 -17 -20 -20 -20 -20 -20
-20 -20 -20 -20 -20 -20 -20 -20 -20 -20 -20 -20 -20 -20 -20 -20 -20 -20 -20 -20 -20 -20 -20 -20 -20 -20 -18 -9 -18 3 -15 -3 -20 -20 -20 -20 -20 -20 -20 -20 -20 -20 -20 -20
-20 -20 -20 -20 -20 -20 -20 -20 -20 -20 -20 -20 -20 -20 -20 -20 -20 -20 -20 -20 -20 -20 -20 -20 -20 -20 -20 -20 -20 -11 -20 -20 -20 -20 -20 -20 -20 -20 -20 -20 -20 -20 -20 -20
-20 -20 -20 -20 -20 -20 -20 -20 -20 -20 -20 -20 -20 -20 -20 -20 -20 -16 -20 -11 -20 -20 -20 -20 -20 -20 -20 -20 -20 -20 -20 -20 -20 -20 -20 -20 -20 -20 -20 -20 -20 -20 -20 -20
-20 -20 -20 -20 -20 -20 -20 -20 -20 -15 -20 -20 -20 -20 -20 -20 -20 -20 16 -20 -20 -20 -20 -20 -20 -20 -20 -20 -20 -20 -20 -20 -20 -20 -20 -20 -20 -20 -20 -20 -20 -20 -20 -20
-20 -20 -20 -20 -20 -20 -20 -20 -20 -20 -20 -20 -20 -20 -20 -20 -20 -20 -20 -12 -20 -20 -20 -20 -20 -20 -20 -20 -20 -20 -20 -20 -20 -20 -20 -20 -20 -20 -20 -20 -20 -20 -20 -20
-20 -20 -20 -20 -20 -20 -20 -20 -20 -20 -20 -20 -20 -20 -20 -20 -20 -19 -2 0 -20 -20 -20 -15 -15 -3 -20 -20 -20 -20 -20 -20 -20 -20 -20 -20 -20 -20 -20 -20 -20 -20 -20 -20
-20 -20 -20 -20 -20 -20 -20 -20 -20 -20 -20 -20 -20 -20 -20 -20 -0 -13 8 -18 -20 -20 -20 16 -20 -4 -20 -20 -20 -20 -20 -20 -20 -20 -20 -20 -20 -20 -20 -20 -20 -20 -20 -20
-20 -20 -20 -6 -20 -20 -20 -20 -20 -20 -20 -20 -19 -20 5 -5 -7 3 20 15 15 -2 -20 5 -5 -14 -20 -20 -20 -20 -20 -20 -20 -20 -20 -20 -20 -20 -20 -20 -20 -20 -20 -20
7 -5 14 5 -15 -15 -20 -20 -20 -20 -20 -20 -20 -20 -10 3 -2 6 -8 17 5 17 -20 -20 -20 -20 -12 -20 -20 -20 -20 -20 -20 -20 -20 -20 -20 -20 -17 -20 -20 -20 -20 -20
13 12 18 9 -11 2 9 -20 -1 -20 -3 -20 -20 -20 -20 -6 6 -0 -3 13 25 20 10 -20 5 -14 -20 -20 -20 -20 -20 -20 -20 -20 -20 -20 -20 -20 -20 -20 -20 -20 -10 -20
-20 -20 -4 11 22 23 2 -18 11 -17 4 -20 -20 -20 -14 -20 -18 -1 -4 -4 1 10 24 22 22 -17 -20 -20 -20 -20 -20 -20 -20 -20 -20 -20 -20 -20 -20 -20 -20 -20 -20 -20
-20 -20 -20 -20 8 3 24 -20 -0 3 -6 18 -20 -20 -20 -20 -20 -20 4 -20 -20 -20 1 32 -2 -20 -20 -20 -20 -20 -20 -20 -20 -20 -20 -20 -20 -20 -20 -20 -20 -20 -20 -20
-20 -20 -20 7 5 8 19 0 12 -15 -9 -18 -9 -20 -20 -20 -20 -20 3 -9 -20 -20 -20 9 14 -20 -20 -20 -20 -12 -20 -20 -20 -20 -20 -20 -20 -20 -20 -20 -20 -20 -20 -20
-20 -20 -20 4 -10 -20 -17 -20 -20 -20 -3 20 -20 -20 -20 -20 -20 -20 -20 3 -15 -20 4 10 -20 -17 -17 -18 -20 -20 -20 -20 -20 -20 -20 -20 -20 -20 -20 -20 -20 -20 -20 -20
-20 -11 5 11 -20 -20 -20 -20 -20 -20 -7 -9 -11 -20 -20 -16 -15 -20 -20 -20 -4 2 -20 -20 13 -17 -6 6 -19 -20 -20 -20 -20 -20 -20 -20 -20 -20 -20 -20 -20 -20 -20 -20
-2 1 -8 -10 -20 -20 -6 4 1 11 1 -16 -14 -20 -20 -20 21 -14 -20 1 3 11 -16 9 -1 -20 -19 1 -20 -20 -20 -20 -20 -20 -20 -20 -20 -20 -20 -20 -20 -20 -20 -20
-20 -20 -20 -20 -2 7 4 -1 -1 -20 -20 -1 -2 -20 -20 -20 -19 19 17 25 20 -20 -3 -20 9 -14 -13 -20 -20 -15 -20 -20 -20 -20 -20 -20 -20 -20 -20 -20 -20 -20 -20 -20
-20 -20 -12 -20 -20 6 -13 -20 -2 27 7 6 -20 -20 -18 -19 -5 -10 21 11 26 10 -20 11 -19 -18 -20 -20 -20 -20 -20 -20 -20 -20 -20 -20 -20 -20 -20 -20 -20 -20 -20 -20
-20 -20 -19 -15 -9 10 -11 4 -8 -19 -7 -19 -20 -20 -20 24 -1 -1 21 25 5 -9 -15 -5 -20 -20 -20 -20 -20 -20 -20 -20 -20 -20 -20 -16 -0 -15 -20 -18 -19 -20 -20 -20
-20 -20 -20 -3 -3 -19 -18 -14 -3 -20 -20 -20 -15 -10 23 27 23 23 23 18 20 -18 9 11 -20 -20 -20 -20 -20 -20 -20 -20 -20 -20 -20 -20 -20 -15 -15 -20 -20 -20 -20 -20
-20 -20 -20 -1 -15 -20 -20 -20 -20 -20 6 26 4 5 12 25 31 24 25 10 -20 18 20 10 1 -20 5 -18 -20 -20 -20 -20 -20 -20 -20 -20 -20 -20 -20 -20 -20 -20 -20 -16
-20 -20 -20 -20 -20 -20 -20 -20 -20 -20 -20 -20 -18 -11 -1 12 21 27 9 22 7 -18 -20 -20 -4 -2 4 17 20 11 13 11 -12 -20 -20 -20 -20 -20 -20 -20 -20 -20 -20 -20
-20 -20 -20 -20 -20 -20 -20 -20 -20 -20 -20 -20 -5 -8 8 -11 -10 18 14 3 -11 -3 18 -11 -10 24 25 10 20 24 24 23 21 -15 -14 -20 -20 -20 -20 -20 -20 -20 -20 -20
-20 -20 -20 -20 -20 -20 -20 -20 -20 -20 -8 -7 -15 -2 -15 -20 -12 -20 -20 -9 4 13 10 -14 -2 24 24 3 16 22 24 22 17 8 -5 -1 -1 -13 -20 -20 -20 -20 -20 -20
-20 -20 -20 -20 -20 -20 -20 -20 -20 -20 -19 -20 -20 -20 -20 -20 -20 -20 -20 -20 -20 4 15 -19 -20 -20 -19 -19 -20 -7 9 10 6 -19 -20 -20 -20 -20 -20 -20 -20 -20 -20 -20

GFSNW_prec_radar_084.txt.gz
Reflectivity
-20 -20 -20 -20 -20 -20 -20 -20 -20 -20 -20 -20 -20 -20 -20 -20 -20 -20 -20 -20 -20 -20 -20 -20 8 28 17 24 -20 -20 -20 -20 -2 4 5 29 -20 -20 -20 -20 -20 -20 -20 -20
-20 -20 -20 -20 -20 -20 -20 -20 -20 -20 -20 -20 -20 -20 -20 -20 -20 -20 -10 24 -4 -20 -20 -20 -20 -12 -14 3 -14 -20 -15 -20 -3 -12 -16 -20 -20 -20 -20 -20 -20 -20 -20 -20
-20 -20 -20 -20 -20 -20 -20 -20 -20 -20 -20 -20 -20 -20 -20 -20 -20 -20 -5 -7 13 -20 -20 -20 -20 36 -20 -15 7 15 -19 -16 -20 -20 -20 -20 -20 -20 -20 -20 -20 -20 -20 -20
-20 -20 -20 -20 -20 -20 -20 -20 -20 -20 -20 -20 -20 -20 -20 -20 -20 -12 4 -14 26 -20 -20 -20 -20 3 28 5 -5 -3 -5 -20 -20 -20 -20 -20 -20 -20 -20 -20 -20 -20 -20 -20
-20 -20 -20 -20 -20 -20 -20 -20 -20 -20 -20 -20 -20 -20 -20 -20 -16 -0 -18 17 27 11 22 -20 -20 -18 8 7 1 -7 -20 -20 -20 -20 -20 -20 -20 -20 -20 -20 -20 -20 -20 -20
-20 -20 -20 -20 -20 -20 -20 -20 -20 -20 -20 -20 -20 -20 -20 -20 -20 -20 1 -15 33 19 -18 6 -20 -20 -20 -20 4 -19 -20 -20 -20 -20 -20 -20 -20 -20 -20 -20 -20 -20 -20 -20
-20 -20 -20 -20 -20 -20 -20 -20 -20 -20 -20 -20 -20 -20 -20 -20 -20 -20 -20 -20 14 29 24 -3 -9 -20 -20 -20 -20 -20 -20 -20 -20 -20 -20 -20 -20 -20 -20 -20 -20 -20 -20 -20
-20 -20 -20 -20 -20 -20 -20 -20 -20 -20 -20 -20 -20 -20 -20 -20 -20 -20 -20 -4 15 22 31 -10 -20 -20 -20 -20 -20 -20 -20 -20 -20 -20 -20 -20 -20 -20 -20 -20 -20 -20 -20 -20
-20 -20 -20 -20 -20 -20 -20 -20 -20 -20 -20 -20 -20 -20 -20 -20 -20 -20 -20 -14 10 37 1 23 -20 -20 -20 -20 -20 -20 -20 -20 -20 -20 -20 -20 -20 -20 -20 -20 -20 -20 -20 -20
-20 -0 -17 -20 -18 -17 -2 -20 -16 -20 -20 -20 -20 -20 -20 -20 -20 -8 -20 -14 34 25 -6 15 19 -20 -20 -20 -20 -20 -20 -20 -20 -20 -20 -20 -20 -20 -20 -20 -20 -20 -20 -20
-13 13 9 13 6 1 10 -9 -1 -20 -20 -20 -20 -20 -20 -20 -20 -18 -20 3 4 21 13 5 17 -19 -20 -20 -20 -20 -20 -20 -20 -19 -1 -20 -20 -20 -20 -20 -20 -20 -20 -20
-20 -20 -7 -18 10 2 8 -20 -11 -20 -20 -20 -20 -20 -20 -20 -20 -20 -20 -19 -16 21 17 28 21 -15 29 -20 -20 -20 -20 -20 -20 -20 -20 -20 -20 -20 -20 -20 -20 -13 -20 -20
-20 0 -18 -20 -11 6 -16 -20 -10 -18 -11 -20 -20 -20 -20 -20 -20 -20 1 -20 -20 -12 -20 12 28 -3 -20 -5 -11 -20 -20 -20 -20 -20 -20 -20 -20 -20 -20 -20 -20 -20 -20 -20
-19 -5 -20 -20 -20 4 -6 -20 -19 -20 -16 -15 -20 -20 -20 -20 -20 -20 -20 -20 -20 -20 -20 -20 -7 24 15 -20 -20 -20 -20 -20 -20 -20 -20 -20 -20 -20 -20 -20 -20 -20 -20 -20
7 -14 -20 -20 -20 9 -14 -16 -17 -6 -19 -20 -20 -20 -20 -20 -20 -20 -20 -20 -20 -20 -20 -20 -13 5 -4 -20 -20 -20 -20 -20 -20 -20 -20 -20 -20 -20 -20 -20 -20 -20 -20 -20
6 -20 -20 -20 -14 15 -20 -20 -20 -20 -6 3 -20 -20 -20 -20 -20 -20 -20 -20 -20 -20 -20 -20 -20 -20 -14 -20 -20 -20 -20 -20 -20 -20 -20 -20 -20 -20 -20 -20 -20 -20 -20 -20
-8 -20 -4 -20 1 -16 -20 -20 -20 -20 -20 -20 -20 -20 -20 -20 -20 -20 -20 -20 -20 -20 -20 -20 -20 -20 -16 -0 -10 -20 -20 -20 -20 -20 -20 -20 -20 -20 -20 -20 -20 -20 -20 -20
-2 -18 -20 -17 -3 -20 -20 -20 -2 -10 -17 -20 -20 -20 -20 -20 -20 -2 -20 -20 -20 -20 -20 -20 -20 -20 -20 -20 -20 -20 -20 -20 -20 -20 -20 -20 -20 -20 -20 -20 -20 -20 -20 -20
0 -20 -20 -20 -20 -20 -4 -1 13 12 -19 -20 -20 -20 -20 -20 -20 -15 10 -16 -10 -20 -6 -16 -15 -20 -20 -20 -10 -20 -20 -20 -20 -20 -20 -20 -20 -20 -20 -20 -20 -20 -20 -20
4 -2 -19 -20 -20 -19 6 -20 2 -3 -8 -20 -19 -20 -20 -20 -20 -20 20 4 -11 -7 -20 -11 -6 -20 -20 -20 -19 -20 -20 -20 -20 -20 -20 -20 -20 -20 -20 -20 -20 -20 -20 -20
7 -11 -20 -20 7 -11 -18 -20 -12 -20 -20 -20 -20 -20 -20 -18 -17 -19 5 3 -4 -16 -14 -20 -19 -8 -20 -20 -20 -20 -20 -20 -20 -20 -20 -20 -20 -20 -20 -20 -20 -20 -20 -20
-1 -20 -20 -20 -20 -20 -20 -20 -13 -20 -20 -20 -20 -10 -20 -2 17 5 7 -12 -7 -6 22 13 -20 -20 -20 -20 -20 -16 -20 -20 -20 -20 -7 2 -19 -7 -14 -20 -20 -20 -20 -20
-18 -20 -20 -20 -10 -20 -20 -20 -20 -20 -20 -20 -20 -19 -5 -4 21 13 8 -13 -20 24 9 -17 -9 19 1 8 -8 9 5 -2 -19 -16 -17 -20 -20 -20 -20 -20 -20 -20 -20 -20
-20 -20 -20 -20 -20 -20 -20 -20 -20 -20 -20 -20 -20 -19 -20 -2 6 14 -6 -19 -7 -19 -20 -3 2 -19 5 20 21 14 17 29 20 -1 -20 -20 -20 -20 -20 -20 -20 -20 -20 -20
-20 -20 -20 -20 -20 -20 -20 -20 -20 -20 -20 -20 -15 -7 -20 -10 -5 -0 -20 -20 -20 -10 -20 -19 -20 -17 14 25 21 19 22 24 20 23 9 9 4 -19 -20 -20 -20 -20 -20 -20
-20 -20 -20 -20 -20 -20 -20 -20 -20 -20 -20 -20 -20 -20 -20 -20 -19 -20 -20 -20 -20 -20 -20 -10 -20 7 26 28 20 23 24 14 10 11 11 6 -9 -20 -20 -20 -20 -20 -20 -20
-20 -20 -20 -20 -20 -20 -20 -20 -20 -20 -20 -20 -20 -20 -20 -20 -20 -20 -20 -20 -20 -19 -16 -18 -17 -19 -1 13 35 29 23 11 -20 -7 -16 -20 -20 -20 -20 -14 -20 -20 -20 -20

GFSNW_prec_radar_087.txt.gz
Reflectivity
-20 -20 -20 -20 -20 -20 -20 -20 -20 -20 -8 -20 -20 -20 -20 -20 -20 15 23 -8 -2 -1 -20 -20 19 26 34 -20 -20 -20 -20 18 9 -20 -20 -20 -5 -20 -20 -20 -20 -20 -20 -20
-20 -20 -20 -20 -20 -20 -20 -20 -20 -20 -7 -20 -20 -20 -20 -20 -2 -20 -14 9 6 20 -4 -20 -14 31 2 -1 -20 7 -17 -18 -9 3 -20 -17 27 -13 -20 -20 -20 -20 -20 -20
-20 -20 -20 -20 -20 -20 -20 -20 -20 -20 -20 -20 -20 -20 -20 5 -20 -20 2 7 3 6 -20 -19 6 34 -12 -6 -0 12 -19 -18 -20 -20 -20 -20 -20 -20 -20 -20 -20 -20 -20 -20
-20 -20 -20 -20 -20 -20 -20 -20 -20 -20 -20 -20 -20 -20 -16 -20 -20 -20 -20 11 22 31 9 -20 -19 32 20 21 15 12 10 3 -20 -20 -20 -20 -20 -20 -20 -20 -20 -20 -20 -20
-20 -20 -20 -20 -20 -20 -20 -20 -20 -20 -20 -20 -20 -20 -20 -20 -20 -20 -20 -20 -19 30 17 36 27 -3 33 34 -20 17 -12 -20 -20 -20 -20 -20 -20 -20 -20 -20 -20 -20 -20 -20
-20 -20 -20 -20 -20 -20 -20 -20 -20 -20 -20 -20 -20 -20 -20 -20 -20 -20 -20 -20 -20 12 18 14 -2 6 9 10 27 17 -19 8 -20 -20 -20 -20 -20 -20 -20 -20 -20 -20 -20 -20
-20 -20 -20 -20 -20 -20 -20 -20 -20 -20 -20 -20 -20 -20 -20 -20 -20 -20 -20 -20 1 11 16 8 -20 -20 -20 -20 -17 -20 -20 -20 -20 -20 -20 -20 -20 -20 -20 -20 -20 -20 -20 -20
-20 -20 -20 -20 -20 -20 -20 -20 -20 -20 -20 -20 -20 -20 -20 -20 -20 -20 -20 -20 -20 -15 -6 2 -20 -20 -20 -20 -20 -20 -20 -20 -20 -20 -20 -20 -20 -20 -20 -20 -20 -20 -20 -20
-20 -20 -20 -20 -20 -20 -20 -20 -20 -20 -20 -20 -20 -20 -20 -20 -20 -20 -20 -20 -20 -20 18 16 -20 -20 -20 -20 -20 -20 -20 -20 -20 -20 -20 -20 -20 -20 -20 -20 -20 -20 -20 -20
-20 -20 -20 -20 -11 -12 -14 -20 -20 -20 -20 -20 -20 -20 -20 -20 -19 -9 -20 -20 -10 10 11 17 -5 -20 -20 -20 -20 -20 -20 -20 -20 -20 -20 -20 -20 -20 -20 -20 -20 -20 -20 -20
-20 -20 -20 -20 11 7 -6 -20 -20 -20 -20 -20 -20 -20 -20 -20 -20 -20 -20 -20 -13 -20 -11 11 6 -20 -20 -20 -20 -20 -20 -20 -20 -20 -20 -20 -20 -20 -20 -20 -20 -20 -20 -20
7 -20 -20 -18 12 3 -0 -20 -20 -7 -20 -20 -20 -20 -20 -20 -20 -20 -20 -20 -20 -20 -18 -19 0 -14 26 -20 -20 -20 -20 -20 -20 -20 -20 -20 -20 -20 -20 -20 -20 -20 -20 -20
-20 -20 -20 -20 7 -17 -20 -20 -20 -20 -20 -20 -20 -20 -20 -20 -20 -20 -20 -20 -20 -13 -20 -20 -6 11 -18 -20 -4 -20 -20 -20 -20 -20 -20 -20 -20 -20 -20 -20 -20 -20 -20 -20
-20 -8 -6 -8 0 5 -17 -20 -13 -20 -20 -20 -20 -20 -20 -20 -20 -20 -20 -20 -20 -20 -20 -20 -20 -15 11 -20 -20 -20 -20 -20 -20 -20 -20 -20 -20 -20 -20 -20 -20 -20 -20 -20
-16 11 2 -3 4 -2 -20 -20 -20 -15 -20 -20 -20 -20 -20 -20 -20 -20 -20 -20 -20 -20 -20 -20 -20 -14 7 -20 -20 -20 -20 -20 -20 -20 -20 -20 -20 -20 -20 -20 -20 -20 -20 -20
-11 12 8 5 -1 -20 -20 -20 -20 -20 -20 -20 -20 -20 -20 -20 -20 -20 -20 -20 -20 -20 -20 -20 -20 -20 -20 -20 -20 -20 -20 -20 -20 -20 -20 -20 -20 -20 -20 -20 -20 -20 -20 -20
8 10 8 3 -2 -20 -20 -20 -20 -20 -20 -20 -20 -20 -20 -20 -20 -20 -20 -20 -20 -20 -20 -20 -20 -20 -20 -16 -20 -20 -20 -20 -20 -20 -20 -20 -20 -20 -20 -20 -20 -20 -20 -20
1 14 9 1 -8 -20 -20 -20 -18 -19 -20 -20 -20 -20 -20 -20 -20 -20 -20 -20 -20 -20 -20 -20 -20 -20 -20 -20 11 -9 -20 -20 -20 -20 -20 -20 -20 -20 -20 -20 -20 -20 -20 -20
8 18 7 2 -3 -20 -20 14 3 -19 -20 -20 -20 -20 -20 -20 -20 -20 1 -20 -20 -20 -2 -20 -20 -20 -20 -20 -11 -20 -20 -20 -20 -20 -20 -20 -20 -20 -20 -20 -20 -20 -20 -20
4 17 9 7 2 -15 -20 -20 -20 -20 -20 -20 -20 -20 -20 -20 -20 -20 7 23 -14 0 -20 -19 -4 -20 -20 -20 -20 -20 -20 -20 -20 -20 -20 -20 -20 -20 -20 -20 -20 -20 -20 -20
12 14 21 10 2 -12 -20 -20 -20 -20 -20 -20 -20 -20 -20 -20 -20 -20 -19 -13 -19 -1 -16 -8 -20 -5 -20 -16 -19 -20 -20 -20 -20 -20 -20 -20 -20 -20 -20 -20 -20 -20 -20 -20
13 12 15 9 -7 -20 -20 -20 -20 -20 -20 -20 -20 -20 -20 -20 -2 -0 1 -13 -8 -20 8 6 -20 -20 11 -8 -10 23 20 -8 -20 -20 -20 -20 -20 -20 -20 -20 -20 -20 -20 -20
16 12 12 5 -20 -20 -20 -20 -20 -20 -20 -20 -20 -20 -20 -1 20 -4 4 -10 -20 16 -5 -11 -20 -20 -20 -14 -4 6 16 31 29 25 16 -2 -20 -20 -20 -20 -20 -20 -20 -20
14 13 8 -3 -20 -20 -20 -20 -20 -20 -20 -20 -20 -20 -20 -20 -9 -1 -2 -19 -19 -19 -19 -20 -20 -20 -20 -20 6 17 20 19 16 4 8 -2 -5 -18 -20 -20 -20 -20 -20 -20
14 12 4 -15 -20 -20 -20 -20 -20 -20 -20 -20 -20 -20 -20 -20 -6 -7 -14 -20 -20 -20 -20 -20 -20 -20 -20 -15 20 17 21 25 20 23 5 5 5 -7 -5 -6 -20 -20 -20 -20
11 2 -4 -20 -20 -20 -20 -20 -20 -20 -20 -20 -20 -20 -20 -20 -12 -20 -20 -20 -20 -20 -20 -20 -20 -20 -20 -9 20 27 28 24 12 7 3 -1 -13 -16 -20 -20 -20 -20 -20 -20
2 7 -1 -20 -20 -20 -20 -20 -20 -20 -20 -20 -20 -20 -20 -20 -20 -20 -20 -20 -20 -20 -20 -20 -20 -20 -20 -20 -4 16 29 29 23 15 9 -1 3 4 6 5 -5 -20 -20 -20

GFSNW_prec_radar_090.txt.gz
Reflectivity
-20 -20 -20 -20 -20 -20 -20 -20 -20 -20 -11 -13 -20 -20 -20 -20 7 -17 -18 -20 27 16 14 -11 31 29 1 -20 -20 -20 -10 23 13 20 -16 -13 -6 2 -20 2 -20 -20 -20 -20
-20 -20 -20 -20 -20 -20 -20 -20 -20 -20 -20 -20 -20 -20 -20 -20 -20 -1 -20 24 30 24 31 -10 -3 37 24 -20 -20 -20 -19 23 15 22 9 0 15 -16 -20 -20 -20 -20 -20 -20
-20 -18 -20 -20 -20 -20 -20 -20 -20 -20 -20 -20 -20 -20 -20 -20 -20 -7 -20 12 -4 14 16 -20 -1 36 31 2 -16 9 10 -20 -20 -18 -20 -20 -20 -20 -20 -20 -20 -20 -20 -20
-10 -20 -20 -20 -20 -20 -20 -20 -20 -20 -20 -20 -20 -20 -20 -20 -20 -20 -20 -15 -20 -5 -4 16 17 36 26 27 -16 22 -20 -4 -20 -20 -20 -20 -20 -20 -20 -20 -17 -15 4 -20
-20 -20 -17 -20 -20 -20 -20 -20 -20 -20 -20 -20 -20 -20 -20 -20 -20 -20 -20 -20 -20 8 -2 -2 -11 27 33 31 20 35 -20 -20 -20 -20 -20 -20 -20 -20 -20 -20 -20 -20 -20 -8
-4 -17 -20 -20 -20 -20 -20 -20 -20 -20 -20 -20 -20 -20 -20 -20 -20 -20 -20 -20 -20 -15 -10 -20 -20 -20 -19 8 31 -1 -20 -20 -20 -20 -20 -20 -20 -20 -20 -20 -20 -20 -20 -9
-2 3 -18 -20 -20 -20 -20 -20 -20 -20 -20 -20 -20 -20 -20 -20 -20 -20 -20 -20 -20 -19 -20 -20 -20 -20 -20 -20 -20 -20 -20 -20 -20 -20 -20 -20 -20 -20 -20 -20 -20 -20 -20 -20
12 -5 -7 -20 -20 -20 -20 -20 -20 -20 -20 -20 -20 -20 -20 -20 -20 -20 -20 -20 -20 -20 -7 -20 -20 -19 -20 -20 -20 -20 -20 -20 -20 -20 -20 -20 -20 -20 -20 -20 -20 -20 -20 -20
12 5 -3 -20 -20 -20 -20 -20 -20 -20 -20 -20 -20 -20 -20 -20 -20 -20 -20 -20 -20 -20 2 -6 -9 -18 -20 -20 -20 -20 -20 -20 -20 -20 -20 -20 -20 -20 -20 -20 -20 -20 -20 -20
13 -19 -14 -20 -20 -20 -20 -20 -20 -20 -20 -20 -20 -20 -20 -20 -20 -20 -20 -20 -20 -20 -19 1 2 -18 -20 -20 -20 -20 -20 -20 -20 -20 -20 -20 -20 -20 -20 -20 -13 -20 -20 -20
6 3 -20 -20 -20 -20 -20 -20 -20 -20 -20 -20 -20 -20 -20 -20 -20 -20 -20 -20 -20 -20 -20 -19 3 6 -20 -20 -20 -20 -20 -20 -20 -12 -20 -20 -20 -20 -20 -20 -20 -20 -20 -20
7 -4 -20 -3 -19 0 -20 -20 -20 -20 -20 -20 -20 -20 -20 -20 -20 -20 -20 -20 -20 5 -7 -20 -20 -2 10 -20 4 -20 -20 -20 -20 -20 -20 -20 -20 -20 -20 -20 -20 -20 -20 -20
-6 9 -20 12 -5 -20 -20 -20 -20 -20 -20 -20 -20 -20 -20 -20 -20 -20 -20 -20 -20 -20 -20 -20 -19 2 -14 -20 5 -20 -20 -20 -20 -20 -20 -20 -20 -20 -20 -20 -20 -20 -20 -20
6 -5 -11 7 3 -9 -20 -20 -20 -20 -20 -20 -20 -20 -20 -20 -20 -20 -20 -20 -20 -20 -20 -20 -20 -10 -4 -8 -18 -20 -20 -20 -20 -20 -20 -20 -20 -20 -20 -20 -20 -20 -20 -20
-12 -20 -1 7 -6 -18 -20 -20 -20 -20 -20 -20 -20 -20 -20 -20 -20 -20 -20 -20 -20 -20 -20 -20 -20 -20 -9 -8 -20 -20 -20 -20 -20 -20 -20 -20 -20 -20 -20 -20 -20 -20 -20 -20
-12 -20 6 13 -5 -20 -20 -20 -20 -20 -20 -20 -20 -20 -20 -20 -20 -20 -20 -20 -20 -20 -20 -20 -20 -20 -20 -20 -20 -20 -20 -20 -20 -20 -20 -20 -20 -20 -20 -20 -20 -20 -20 -20
-2 -11 1 7 4 -8 -20 -20 -20 -20 -20 -20 -20 -20 -20 -20 -20 -20 -20 -20 -20 -20 -20 -20 -20 -20 -20 -2 -19 -1 -20 -20 -20 -20 -20 -20 -20 -20 -20 -20 -20 -20 -20 -20
-5 -1 12 17 13 7 -20 -7 -20 -20 -20 -20 -20 -20 -20 -20 -20 -1 -20 -20 -20 -19 -20 -20 -20 -20 -20 -20 7 3 -14 -20 -20 -20 -20 -20 -20 -20 -20 -20 -20 -20 -20 -20
1 -9 3 13 7 -2 -9 -3 -20 -20 -20 -20 -20 -20 -20 -20 -20 -20 9 -20 -19 -20 -5 -20 -17 -2 -20 -20 -20 -20 -20 -20 -20 -20 -20 -20 -20 -20 -20 -20 -20 -20 -20 -20
9 -19 -13 14 12 5 -19 -20 -20 -20 -20 -20 -20 -20 -20 -20 -20 -20 -20 1 -13 -16 -20 -18 1 -18 -20 -20 -20 -20 -20 -20 -20 -20 -20 -20 -20 -20 -20 -20 -20 -20 -20 -20
-5 -18 4 18 11 1 -2 -18 -20 -20 -20 -20 -20 -20 -20 -20 -20 -20 -14 -1 4 4 -18 -1 -15 8 -20 -17 -18 19 18 2 -19 -20 -20 -20 -19 -13 -20 -20 -20 -20 -20 -20
8 4 10 22 14 -0 -5 -20 -20 -20 -20 -20 -20 -20 -20 -20 -17 -19 -20 -11 1 -18 8 7 -17 -20 -20 -20 -20 -14 -5 5 26 -7 -8 -1 -11 -17 -20 -20 -20 -20 -20 -20
8 -17 19 17 11 -0 -1 -20 -20 -20 -20 -20 -12 -19 -20 2 13 -3 -15 -19 -18 -3 -4 4 -20 -20 -20 -16 5 5 -6 -1 19 20 30 15 9 11 -3 -18 -20 -20 -20 -20
-4 6 17 15 5 6 2 -20 -20 -20 -20 -20 -20 -20 -20 -19 -8 -18 -18 -19 -8 6 -20 -20 -20 -20 -20 -20 -8 -5 13 6 17 19 4 -5 -9 -13 -15 -19 -14 -17 -20 -20
7 9 15 12 10 6 -15 -20 -20 -20 -20 -20 -20 -20 -20 -20 -14 -20 -12 -7 -20 -20 -20 -20 -20 -20 -20 -20 -11 -2 19 15 7 23 13 9 13 14 12 8 -3 -20 -20 -20
8 13 15 14 9 -7 -20 -20 -20 -20 -20 -20 -20 -20 -12 -20 -20 -20 -20 -20 -20 -20 -20 -20 -20 -20 -20 -20 -20 13 23 24 16 18 21 14 12 8 5 6 5 1 -17 -20
12 16 16 9 -6 -20 -20 -20 -20 -20 -20 -20 -20 -20 -20 -20 -20 -20 -20 -20 -20 -20 -20 -20 -20 -20 -20 -20 -20 -20 14 23 25 17 -1 -1 -1 -3 -7 -19 -20 -20 -20 -20

GFSNW_prec_radar_093.txt.gz
Reflectivity
-20 -20 -20 -20 -20 -20 -20 -20 -20 -20 -20 -20 -20 -20 -20 -14 -12 -5 -17 1 28 11 20 5 36 12 -19 -20 -20 -7 24 18 14 14 10 -12 0 -16 20 19 10 -20 -9 -16
-17 -19 -20 -20 -20 -20 -20 -20 -20 -20 -20 -20 -20 -20 -20 -20 -20 -19 -20 -20 -20 -20 -3 10 28 23 -14 -18 -20 18 6 9 13 14 13 -1 -1 -20 18 -13 -11 5 16 -14
-2 -20 -20 -20 -20 -20 -20 -20 -20 -20 -20 -20 -20 -20 -20 -20 -20 -20 -20 -20 -20 -20 -20 -20 7 25 8 -2 -12 -20 -0 23 22 2 -8 -20 -9 -20 -20 -20 10 -7 -9 -19
-5 -13 3 -20 -20 -20 -20 -20 -20 -20 -20 -20 -20 -20 -20 -20 -20 -20 -20 -20 -20 -8 -20 -20 -19 15 4 -5 3 -20 14 29 -8 -20 -20 -20 -20 -20 -20 -19 -11 -6 -8 -20
5 -10 -20 -20 -20 -20 -20 -20 -20 -20 -20 -20 -20 -20 -20 -20 -20 -20 -20 -20 -20 -20 -19 -14 -6 -19 15 27 -8 -20 -20 -1 -20 -20 -20 -20 -20 -20 -20 -20 -20 -20 -20 -20
-13 -20 -20 -19 -20 -20 -20 -20 -20 -20 -20 -20 -20 -20 -20 -20 -20 -20 -20 -20 -20 -20 -20 -20 -20 -20 -20 3 13 18 -14 -7 -15 -13 -20 -20 -14 -20 -20 -20 -20 -20 -20 -20
3 -7 -20 -9 -20 -20 -20 -20 -20 -20 -20 -20 -20 -20 -20 -20 -20 -20 -20 -20 -20 -20 -20 -20 -20 -20 -20 -11 -20 -20 -20 -20 -20 -20 -20 -20 -20 -20 -20 -20 -20 -20 -20 -20
6 -9 18 7 -20 -20 -20 -20 -20 -20 -20 -20 -20 -20 -20 -20 -20 -20 -20 -20 -20 -20 -20 -13 -4 -8 -20 -20 -20 -20 -20 -20 -20 -20 -20 -20 -20 -20 -20 -20 -20 -20 -20 -20
-1 -16 21 2 -20 -20 -20 -20 -20 -20 -20 -20 -20 -20 -20 -20 -20 -20 -20 -20 -20 -20 -20 -20 2 2 -5 -18 -20 -20 -20 -20 -20 -20 -20 -20 -20 -20 -20 -20 -7 -20 -20 -20
17 9 2 -15 -20 -20 -20 -20 -20 -20 -20 -20 -20 -20 -20 -20 -20 -20 -20 -20 -20 -20 -18 -7 -9 1 -20 -0 -3 -14 -13 -2 2 1 -20 -20 -20 -20 -20 -20 0 -20 -20 -20
25 4 -17 -20 -20 -20 -20 -20 -20 -20 -20 -20 -20 -20 -20 -20 -20 -20 -20 -20 -20 -20 -13 -20 -14 -8 -11 -12 -19 -15 -6 -5 -8 -0 -9 -7 -20 -20 -9 -16 -20 -20 -20 -20
29 11 -19 -20 -20 -20 -20 -20 -20 -20 -20 -20 -20 -20 -20 -20 -20 -20 -20 -20 -20 -20 -20 -20 -20 4 2 -19 7 -20 -3 -19 -18 -20 -7 -20 -20 -20 -20 -20 -20 -20 -18 -20
22 -8 -16 -20 -19 -20 -20 -20 -20 -20 -20 -20 -20 -20 -20 -20 -20 -20 -20 -20 -20 -20 -20 -20 -20 -20 -20 -9 -12 -20 -20 -20 -20 -20 -20 -20 -20 -20 -20 -20 -20 -20 -20 -20
10 -7 -1 3 -3 -20 -20 -20 -20 -20 -20 -20 -20 -20 -20 -20 -20 -20 -20 -20 -20 -20 -20 -20 -20 -20 -15 -11 -20 -20 -12 -20 -20 -20 -20 -20 -20 -20 -20 -20 -20 -20 -20 -20
6 2 5 2 -11 -20 -20 -20 -20 -20 -20 -20 -20 -20 -20 -20 -20 -20 -20 -20 -20 -8 -20 -20 -10 -12 1 -13 -20 -20 -20 -13 3 26 -20 -20 -20 -20 -20 -20 -20 -20 -20 -20
0 15 15 -13 3 -19 -20 -20 -20 -20 -20 -20 -20 -20 -20 -20 -20 -20 -20 -16 -3 -2 -20 -11 -20 -20 -20 -20 -4 -20 -20 -20 -20 -20 -20 -20 -20 -20 -20 -20 -20 -20 -20 -20
10 9 -4 -2 17 10 -1 -20 -20 -20 -20 -20 -20 -20 -20 -20 -20 -20 -20 -20 -7 -20 -5 -20 -20 -20 -16 -12 -20 -20 -20 -20 -20 -20 -20 -20 -20 -20 -20 -20 -20 -20 -20 -20
12 10 -17 -2 12 5 -9 -20 -20 -20 -20 -20 -20 -20 -20 -20 -20 -1 -20 -20 -15 -19 -20 -13 -18 -20 -20 -20 -20 -20 -20 -20 -20 -20 -20 -20 -20 -20 -20 -20 -20 -20 -20 -8
21 0 3 7 17 11 -3 -7 -20 -20 -20 -20 -20 -20 -20 -20 -20 -8 -19 -16 -3 -2 -2 -0 -7 -20 -6 -20 -20 -20 -20 -20 -20 -20 -20 -20 -20 -20 -20 -20 -20 -20 -20 -20
14 17 2 -8 14 13 -0 -12 -8 -20 -20 -20 -20 -20 -20 -20 -20 -20 -2 4 -11 2 -19 3 2 -19 -20 -20 -20 -19 -7 -20 -20 -20 -20 -20 -20 -20 -20 -20 -20 -20 -20 -20
21 -8 -1 14 14 11 -2 -8 -13 -20 -20 -20 -20 -20 -20 -20 -20 -9 -19 -18 0 -2 1 0 -11 -9 -20 -20 -20 -20 -20 -20 -20 -14 -19 -20 4 2 -12 1 3 -20 -20 -20
15 15 9 12 12 2 -5 -10 -8 -20 -20 -20 -20 -20 -20 -20 -20 -20 -20 -20 -7 -18 3 10 -20 -20 -20 -20 -20 6 -17 -16 -10 9 1 -5 5 8 -20 -17 -20 -20 -20 -20
16 9 4 -12 5 -2 -7 3 -20 -20 -20 -20 -20 -20 -9 -20 -20 -10 -19 5 -11 1 1 -18 -20 -20 -20 -20 -20 -20 8 -3 -17 2 15 -1 -3 4 19 13 2 3 -16 -20
11 -3 -20 -2 1 -13 13 8 -17 -20 -20 -20 -20 -20 -20 -17 -8 -20 -20 -2 -18 9 4 -5 -20 -20 -20 -20 -20 -1 14 1 7 -1 0 -6 -20 -20 -12 7 -17 -20 -8 6
4 0 -20 -20 -9 11 11 3 -7 -18 -20 -20 -20 -20 -20 -19 -17 -20 1 3 -20 -8 -20 -20 -20 -20 -20 -20 -20 -10 -13 4 -14 -15 8 19 8 3 -1 4 -2 -2 -3 -6
10 -10 -20 -1 14 13 7 2 -18 -20 -20 -20 -20 -20 -20 -20 -20 -6 -20 -14 -20 -20 -20 -20 -20 -20 -20 -20 -20 -20 -6 -8 -10 -14 -13 20 12 12 8 9 5 9 7 1
-5 -20 -7 15 15 12 8 -16 -20 -20 -20 -20 -20 -20 -20 -20 -20 -19 -20 -20 -20 -20 -20 -20 -20 -20 -20 -20 -20 -20 -20 -20 -20 9 23 19 16 12 11 -1 -18 -11 -20 -20

GFSNW_prec_radar_096.txt.gz
Reflectivity
-20 -12 -20 -20 -20 -20 -20 -20 -20 -20 -20 -20 -20 -20 -20 -20 -20 -20 -20 -20 -13 -20 -16 16 16 6 -16 -20 -20 -11 -20 19 3 -20 -20 -20 -20 -20 -19 -19 -20 -17 -19 -20
-20 -12 -16 -20 -20 -20 -20 -20 -20 -20 -20 -20 -20 -20 -20 -20 -20 -20 -20 -20 -20 -20 -20 19 -5 -20 -20 -20 -20 32 -2 10 14 8 5 7 -19 -20 -20 -19 -0 15 19 -20
-8 1 5 -14 -20 -20 -20 -20 -20 -20 -20 -20 -20 -20 -20 -20 -20 -20 -20 -20 -20 -20 -20 -0 7 -13 -14 -12 -1 13 14 7 16 14 -20 -20 -20 -20 -15 -20 2 -20 11 -6
0 -10 9 -3 -20 -20 -20 -20 -20 -20 -20 -20 -20 -20 -20 -20 -20 -20 -20 -20 -20 -20 -20 -20 -20 13 -17 -7 7 -20 -10 31 25 -20 -20 -20 -20 -20 -18 6 -10 1 15 -16
-11 -13 3 7 -20 -20 -20 -20 -20 -20 -20 -20 -20 -20 -20 -20 -20 -20 -20 -20 -20 -20 -20 -20 -20 5 4 -5 -15 -20 -20 -16 -16 -20 -20 -20 -20 -20 -20 -20 -20 -18 -20 -20
24 2 8 -3 -17 -18 -20 -20 -20 -20 -20 -20 -20 -20 -20 -20 -20 -20 -20 -20 -20 -20 -20 -20 -20 2 7 -11 9 -6 -20 11 -10 -20 -20 -20 -20 -20 -20 -20 -20 -20 -20 -14
25 9 5 -17 -19 -20 -20 -20 -20 -20 -20 -20 -20 -20 -20 -20 -20 -20 -20 -20 -20 -20 -20 -20 -20 -20 -20 -19 -10 -20 -20 -20 -20 -20 -20 -20 -20 -20 -20 -20 -20 -20 -20 -20
30 12 -13 20 -1 -18 -20 -20 -20 -20 -20 -20 -20 -20 -20 -20 -20 -20 -20 -20 -20 -20 -20 -20 -20 -5 -20 -20 -20 -20 -20 -20 -20 -20 -20 -20 -20 -20 -20 -20 -20 -20 -20 -20
21 15 -3 20 5 -20 -20 -20 -20 -20 -20 -20 -20 -20 -20 -20 -20 -20 -20 -20 -20 -20 7 -20 -1 2 -5 -19 -20 -20 -20 -20 -20 -20 -20 -20 -20 -20 -20 -20 -20 -20 -20 -20
23 25 28 14 -20 -20 -20 -20 -20 -20 -20 -20 -20 -20 -20 -20 -20 -20 -20 -20 -20 -20 -20 -20 -20 -10 -20 -18 -9 -20 -20 -20 -20 -19 -17 -20 -20 -20 -20 -20 -8 -20 -20 -20
26 16 18 4 -20 -20 -20 -20 -20 -20 -20 -20 -20 -20 -20 -20 -20 -20 -20 -20 -20 -20 -20 -20 -20 -20 -20 -20 -20 -20 -19 -20 -20 -20 -20 -20 -20 -20 -11 -18 5 -20 -20 -20
25 32 26 -0 -20 -20 -20 -20 -20 -20 -20 -20 -20 -20 -20 -20 -20 -20 -20 -20 -20 -20 -20 -20 -20 -18 -19 -20 -10 -20 -9 -20 -19 -20 -20 -20 -20 -20 -20 -20 -20 -20 -20 -20
29 32 21 -20 -20 -20 -20 -20 -20 -20 -20 -20 -20 -20 -20 -20 -20 -20 -20 -20 -20 -20 -20 -20 -7 -20 -20 -17 -4 -20 -9 -20 -20 -20 -20 -20 -20 -20 -20 -20 -20 -20 -20 -20
34 30 -16 -20 -20 -20 -20 -20 -20 -20 -20 -20 -20 -20 -20 -20 -20 -20 -20 -20 -20 -20 -20 -20 -20 -20 -9 -20 -18 -20 -20 -20 -5 -19 -4 -20 -20 -20 -20 -20 -20 -20 -20 -20
32 23 -3 11 -20 -20 -20 -20 -20 -20 -20 -20 -20 -20 -20 -20 -20 -20 -20 -20 -20 -20 -20 -20 -14 -20 -15 -7 -14 -20 -20 -16 -20 9 -19 4 -20 -20 -20 -20 -20 -3 -14 -20
26 15 11 10 -14 -20 -20 -20 -20 -20 -20 -20 -20 -20 -20 -20 -20 -20 -20 -20 -20 -20 -20 -20 -20 -20 -20 -20 -20 -20 -20 -20 -20 -11 -20 -20 -20 -20 -20 -20 -20 -20 -20 7
18 20 4 15 -1 -7 -20 -20 -20 -20 -20 -20 -20 -20 -20 -20 -20 -20 -20 -20 -20 -20 -20 -20 -20 -20 -20 -18 -20 -20 -20 -20 -20 -20 -19 -18 -20 -20 -20 -20 -20 -20 -16 -9
16 25 11 -11 -9 -6 -20 -20 -20 -20 -20 -20 -20 -20 -20 -20 -14 -20 -20 6 -20 -20 -20 -20 -20 -20 -20 -20 -20 -20 -20 -20 -20 -20 -20 -20 -20 -20 -20 -20 -20 -20 -14 9
19 17 -4 -1 -7 -8 -14 -20 -20 -20 -20 -20 -20 -20 -20 -20 -20 -9 -20 -12 -20 -6 -20 -17 -19 -11 -20 -20 -20 -20 -20 -20 -20 -20 -20 -14 -20 -20 -20 -20 -20 -20 -20 -20
17 12 12 -13 3 13 -0 -20 -20 -20 -20 -20 -20 -20 -20 -20 -20 9 3 -20 -13 -20 -20 -10 -16 -20 -20 -20 -20 -20 -20 -20 3 -20 -20 -20 -20 -18 -20 -20 -20 -20 -20 -20
23 8 4 11 11 9 10 -14 -20 -20 -20 -20 -20 -20 -20 -20 -20 -20 -20 3 -2 -10 -11 -12 -14 -20 -20 -20 -20 -20 -19 -13 -20 5 -11 -19 -18 -20 9 -14 -1 9 17 -15
-6 -5 13 19 26 15 -15 -20 -6 -4 -20 -20 -20 -20 -20 -20 -20 -20 -18 -20 -7 -19 -20 -4 -20 -20 -20 -20 -20 -20 -20 11 5 15 -2 -20 -8 -5 -2 19 35 29 28 -4
16 27 20 11 17 4 -20 -7 10 -3 -20 -20 -20 -20 -20 -19 -14 -20 -7 -20 -19 -4 -2 -20 -20 -20 -20 -20 -20 -20 -16 -20 -17 10 11 -5 -20 -17 -3 -16 1 11 4 -6
28 18 1 -18 -12 -20 1 10 11 -3 -20 -20 -20 -20 -20 -20 -20 -20 -10 -19 -20 -18 -19 -20 -20 -20 -20 -20 -20 -12 -17 11 -5 -4 8 -20 -20 -20 -20 -20 -20 -18 -20 -20
26 5 -18 -20 -13 -6 7 14 12 -3 -20 -20 -20 -20 -20 -20 -20 -20 -9 4 -20 -20 -20 -20 -20 -20 -20 -20 -20 -20 -13 5 6 5 2 -15 -20 -20 -20 -19 -20 -3 -2 7
1 -5 -19 -20 -1 5 15 11 2 -16 -20 -20 -20 -20 -20 -20 -20 -10 -20 -20 -20 -20 -20 -20 -20 -20 -20 -20 -20 -10 9 10 8 -3 -3 -1 -20 -20 -20 -20 -9 3 7 6
8 -17 -10 -17 9 12 11 4 -5 -20 -20 -20 -20 -20 -20 -20 -20 -20 -20 -20 -20 -20 -20 -20 -20 -20 -20 -20 -20 -20 -20 -18 10 9 14 2 -20 -20 -20 -20 -20 -11 3 1

GFSNW_prec_radar_099.txt.gz
Reflectivity
-4 -19 -20 -20 -11 -20 -20 1 -20 -20 -20 -20 -20 -20 -20 -20 -20 -20 -20 -20 -20 -20 -19 21 -20 -20 -20 -20 -20 -20 -20 -14 -19 -20 -2 -12 -20 -19 5 -20 -20 -20 -20 -20
34 -16 -20 -20 -20 -20 7 -18 -20 -20 -20 -20 -20 -20 -20 -20 -20 -20 -20 -20 -20 -20 -13 18 -20 -20 -19 -19 -6 8 -19 -3 -20 -20 3 -7 -20 -20 -17 -20 -19 -20 -20 -20
30 5 -19 -20 -20 6 -13 -20 -20 -20 -20 -20 -20 -20 -20 -20 -20 -20 -20 -20 -20 -20 -15 -20 -18 -20 -20 6 -15 16 3 -5 3 -20 -20 -20 -20 -18 -18 -20 -20 15 18 10
30 -1 -20 -20 -14 13 -15 -20 -20 -20 -20 -20 -20 -20 -20 -20 -20 -20 -20 -20 -20 -20 -20 -11 -13 -7 -18 -11 4 -17 6 9 -20 -20 -20 -20 -20 -20 -19 -20 -6 10 -6 8
25 -13 -20 -6 23 -4 -20 -20 -20 -20 -20 -20 -20 -20 -20 -20 -20 -20 -20 -20 -20 -20 -20 -20 -20 -7 -16 -20 -20 -20 -20 -20 -20 -20 -20 -20 -20 -20 -20 -13 -20 -20 3 -20
23 18 5 -15 26 -19 -20 -20 -20 -20 -20 -20 -20 -20 -20 -20 -20 -20 -20 -20 -20 -20 -20 -20 -20 -19 -19 4 -20 -6 -17 -20 -20 -20 -20 -20 -20 -20 -20 -14 -20 -20 -20 -20
24 4 9 -19 23 -0 -20 -20 -20 -20 -20 -20 -20 -20 -20 -20 -20 -20 -20 -20 -20 -20 -20 -20 -20 -20 -20 -20 -13 -20 -20 -20 -20 -20 -20 -20 -20 -20 -20 -20 -20 -20 -20 -20
25 22 1 -6 12 1 -20 -20 -20 -20 -20 -20 -20 -20 -20 -20 -20 -20 -20 -20 -20 -20 -20 -20 -20 -20 -20 -20 -20 -20 -20 -20 -20 -20 -20 -20 -20 -20 -20 -20 -20 -20 -20 -20
27 29 11 11 0 -19 -20 -20 -20 -20 -20 -20 -20 -20 -20 -20 -20 -20 -20 -20 -20 -20 -20 -20 -20 -20 -20 -20 -20 -20 -20 -20 -20 -20 -20 -20 -20 -20 -20 -20 -20 -20 -20 -20
28 26 1 18 23 -17 -20 -20 -20 -20 -20 -20 -20 -20 -20 -20 -20 -20 -20 -20 -20 -20 -20 -20 -20 -20 -20 -20 -20 -20 -20 -20 -20 -20 -20 -20 -20 -20 -20 -20 -9 -7 -20 -20
30 24 7 18 22 -20 -20 -20 -20 -20 -20 -20 -20 -20 -20 -20 -20 -20 -20 -20 -20 -20 -20 -20 -20 -20 -20 -20 -20 -20 -20 -20 -20 -20 -20 -20 -20 -20 -20 -20 -20 -20 -20 -20
27 23 30 22 -19 -20 -20 -20 -20 -20 -20 -20 -20 -20 -20 -20 -20 -20 -20 -20 -20 -20 -20 -20 -20 -20 -20 -20 -20 -20 -20 -20 -20 -20 -20 -20 -20 -20 -20 -20 -20 -20 -20 -20
26 21 30 16 -20 -20 -20 -20 -20 -20 -20 -20 -20 -20 -20 -20 -20 -20 -20 -20 -20 -20 -20 -20 -20 -20 -20 -20 -15 -20 -20 -20 -20 -20 -20 -20 -20 -20 -20 -20 -20 -20 -20 -20
23 27 32 18 -20 -20 -20 -20 -20 -20 -20 -20 -20 -20 -20 -20 -20 -20 -20 -20 -20 -20 -20 -20 -20 -20 -20 -20 -20 -20 -20 -20 -20 -20 -20 -20 -20 -20 -20 -20 -20 -20 -20 -20
30 32 32 5 -20 -20 -20 -20 -20 -20 -20 -20 -20 -20 -20 -20 -20 -20 -20 -20 -20 -20 -20 -20 -20 -20 -20 -20 -15 -20 -20 -20 -20 -2 3 -20 -9 -20 -20 -20 -20 -20 3 -14
34 32 25 -14 -20 -20 -20 -20 -20 -20 -20 -20 -20 -20 -20 -20 -20 -20 -20 -20 -20 -20 -20 -20 -20 -20 -20 -20 -20 -20 -20 -20 -20 -20 -20 -20 -11 -20 -20 -20 -20 -20 -20 18
34 31 25 -6 -18 -20 -20 -20 -20 -20 -20 -20 -20 -20 -20 -20 -20 -20 -20 -20 -20 -20 -20 -20 -20 -20 -20 -20 -20 -20 -20 -20 -20 -20 -20 -20 -20 -20 -20 -20 -20 -20 -20 -12
32 27 18 16 9 -4 -19 -20 -20 -20 -20 -20 -20 -20 -20 -20 -17 -20 -8 -19 -20 -20 -20 -20 -20 -20 -20 -20 -20 -20 -20 -20 -20 -20 -20 -20 -20 5 4 -20 -20 -20 -20 -20
29 23 11 10 -11 -16 -20 -20 -20 -20 -20 -20 -20 -20 -20 -20 -20 -20 -20 -17 -20 -20 -20 -20 -20 -20 -20 -20 -20 -20 -20 -20 -20 -20 -20 -20 -20 -20 -20 -20 -20 -20 -20 -20
33 21 21 13 -11 -5 -20 -20 -20 -20 -20 -20 -20 -20 -20 -20 -20 -17 -20 -20 -14 -20 -20 -16 -20 -20 -20 -20 -20 -20 -20 -20 -20 -20 -20 -20 -20 -20 -20 -20 -20 -20 -19 -20
18 17 28 0 -9 6 -16 -20 -20 -20 -20 -20 -20 -20 -20 -20 -20 -20 -20 -20 -15 -20 -20 -19 -12 -20 -20 -20 -20 -20 -20 -20 10 -15 10 9 -3 -19 -17 7 -15 -10 2 11
14 17 11 14 9 20 14 -20 -20 -20 -20 -20 -20 -20 -20 -20 -20 -20 -20 -20 -20 -20 -20 -20 -20 -20 -20 -20 -20 -20 -20 -20 -16 -10 8 16 -7 -9 1 -6 -4 -5 15 10
26 28 28 16 14 5 -19 -20 -20 -20 -12 -19 -20 -20 -20 -20 -20 -20 -20 -20 -20 -20 -20 -20 -20 -20 -20 -20 -20 -20 -20 -20 -20 -18 7 8 4 -20 -18 -20 -20 -20 -19 -17
30 20 -0 -4 -17 -20 -20 -10 -10 2 -15 -20 -20 -20 -20 -20 -20 -20 -20 -20 -20 -20 -20 -20 -20 -20 -20 -20 -20 -20 -20 -20 -20 -13 5 -1 -18 -20 -20 -20 -20 -20 -20 -19
26 13 5 -8 -20 -20 -8 4 12 8 -12 -20 -20 -20 -20 -20 -20 -20 -20 -11 -20 -20 -20 -20 -20 -20 -20 -20 -20 -20 -20 -20 -16 10 -2 5 -5 -9 -20 -20 -20 -20 -20 -13
20 5 -10 -20 -13 -6 -3 13 14 2 -20 -20 -20 -20 -20 -20 -20 -20 -20 -20 -20 -20 -20 -20 -20 -20 -20 -20 -20 -20 -20 2 8 6 4 -13 -20 -20 -20 -20 -20 -20 -20 -15
14 -14 -20 -20 -15 -9 14 14 -1 -19 -20 -20 -20 -20 -20 -20 -20 -20 -20 -20 -20 -20 -20 -20 -20 -20 -20 -20 -20 -20 -20 -20 -20 -20 -20 -20 -20 -20 -20 -17 -20 -20 -20 -20

GFSNW_prec_radar_102.txt.gz
Reflectivity
39 36 -0 -20 -20 -20 9 -1 -20 -20 -20 -20 -20 -20 -20 -20 -20 -20 -20 -20 -20 -20 -20 -9 -20 -20 -20 -20 -20 -20 -20 -20 1 3 -19 -14 13 -20 -20 -20 -20 -20 -20 -20
40 36 16 -20 -20 -11 7 5 -20 -20 -20 -20 -20 -20 -20 -20 -20 -20 -20 -20 -20 -20 4 -1 -18 -20 -20 -20 -19 -20 -19 -10 -20 -20 -14 -20 -20 -20 -20 -20 -20 -20 -20 -20
37 36 6 8 -20 -20 15 3 -20 -20 -20 -20 -20 -20 -20 -20 -20 -20 -20 -20 -20 -20 -20 -20 -20 -20 -20 -9 -16 -20 -6 1 -11 -20 -20 -20 -20 -20 -20 -20 -20 -20 -20 -20
32 31 -12 -20 -20 -20 17 -2 -20 -20 -20 -20 -20 -20 -20 -20 -20 -20 -20 -20 -20 -20 -20 -20 -20 -20 -20 -20 -20 -20 -20 -20 -11 -20 -20 -20 -20 -20 -20 -20 -20 -15 -20 -20
37 34 14 -20 -19 -12 15 -20 -20 -20 -20 -20 -20 -20 -20 -20 -20 -20 -20 -20 -20 -20 -20 -20 -20 -20 -20 -20 -20 -20 -20 -20 -20 -20 -20 -20 -20 -20 -20 -20 -20 6 2 -20
38 25 8 -9 -2 11 8 -15 -20 -20 -20 -20 -20 -20 -20 -20 -20 -20 -20 -20 -20 -20 -20 -20 -20 -20 -20 -17 -20 -20 -20 -20 -20 -20 -20 -20 -20 -20 -20 -20 -20 -20 -18 -20
38 31 13 -17 -7 26 11 -20 -20 -20 -20 -20 -20 -20 -20 -20 -20 -20 -20 -20 -20 -20 -20 -20 -20 -20 -20 -18 -20 -20 -20 -20 -20 -20 -20 -20 -20 -20 -6 -16 -20 -20 -20 -19
33 27 11 -9 12 24 -20 -20 -20 -20 -20 -20 -20 -20 -20 -20 -20 -20 -20 -20 -20 -20 -20 -20 -20 -20 -20 -20 -20 -20 -20 -20 -20 -20 -20 -20 -20 -20 -20 -20 -20 -20 -20 -20
27 31 15 12 14 21 -5 -20 -20 -20 -20 -20 -20 -20 -20 -20 -20 -20 -20 -20 -20 -20 -20 -20 -20 -20 -20 -20 -20 -20 -20 -20 -20 -20 -20 -20 -20 -20 -20 -20 -20 -20 -20 -20
23 30 16 9 -19 14 -3 -20 -20 -20 -20 -20 -20 -20 -20 -20 -20 -20 -20 -20 -20 -20 -20 -20 -20 -20 -20 -20 -20 -20 -20 -20 -20 -20 -20 -20 -20 -20 -20 -20 -12 -20 -20 -20
32 31 17 9 11 6 -20 -20 -20 -20 -20 -20 -20 -20 -20 -20 -20 -20 -20 -20 -20 -20 -20 -20 -20 -20 -20 -20 -20 -20 -20 -20 -20 -20 -20 -20 -20 -20 -20 -20 -20 -20 -20 -20
31 30 14 16 25 -19 -20 -20 -20 -20 -20 -20 -20 -20 -20 -20 -20 -20 -20 -20 -20 -20 -20 -20 -20 -20 -20 -20 -20 -20 -20 -20 -20 -20 -20 -20 -20 -20 -20 -20 -20 -20 -20 -20
28 28 24 19 9 -20 -20 -20 -20 -20 -20 -20 -20 -20 -20 -20 -20 -20 -20 -20 -20 -20 -20 -20 -20 -20 -20 -20 -15 -20 -20 -20 -20 -20 -20 -20 -20 -20 -20 -20 -20 -20 -20 -20
24 20 31 26 -3 -20 -20 -20 -20 -20 -20 -20 -20 -20 -20 -20 -20 -20 -20 -20 -20 -20 -20 -20 -20 -20 -20 -20 -20 -20 -20 -20 -20 -20 -20 -20 -20 -20 -20 -20 -20 -20 -20 -20
19 27 33 12 -13 -20 -20 -20 -20 -20 -20 -20 -20 -20 -20 -20 -20 -20 -20 -20 -20 -20 -20 -20 -20 -20 -20 -20 -10 -20 -20 -20 -20 -20 -20 -20 2 -20 -20 -20 -20 -20 -20 -11
24 32 34 22 -16 -20 -20 -20 -20 -20 -20 -20 -20 -20 -20 -20 -20 -20 -20 -20 -20 -20 -20 -20 -20 -20 -20 -20 -20 -20 -20 -20 -20 -20 -20 -20 -20 -18 11 -20 -20 -20 -20 -20
27 36 33 25 6 -20 -20 -20 -20 -20 -20 -20 -20 -20 -20 -20 -20 -20 -20 -20 -20 -20 -20 -20 -20 -20 -20 -20 -20 -20 -20 -20 -20 -20 -20 -20 -20 -20 -20 -20 -20 -20 -20 -20
30 29 28 20 -6 -20 -20 -20 -20 -20 -20 -20 -20 -20 -20 -20 -20 -20 -20 -20 -20 -20 -20 -20 -20 -20 -20 -20 -20 -20 -20 -20 -20 -20 -20 -20 -20 -20 -20 -20 -20 -20 -20 -20
27 30 26 15 -13 -20 -20 -20 -20 -20 -20 -20 -20 -20 -20 -20 -20 -20 -20 -20 -20 -20 -20 -20 -20 -20 -20 -20 -20 -20 -20 -20 -20 -20 -20 -20 -20 -20 -20 -20 -20 -20 -20 -20
30 27 20 20 10 -19 -20 -20 -20 -20 -20 -20 -20 -20 -20 -20 -20 -20 -20 -20 -20 -20 -20 -17 -20 -20 -20 -20 -20 -20 -20 -20 -20 -20 -20 -20 -20 -20 -20 -20 -9 -20 -20 -20
27 23 2 -4 -2 -20 -20 -20 -20 -20 -20 -20 -20 -20 -20 -20 -20 -20 -20 -20 -20 -20 -20 -20 -20 -20 -20 -20 -20 -20 -20 -20 -20 -20 -20 -20 -11 1 -18 -13 -7 12 -3 1
18 6 3 7 6 -20 -11 -20 -20 -20 -20 -20 -20 -20 -20 -20 -20 -20 -20 -20 -20 -20 -20 -20 -20 -20 -20 -20 -20 -20 -20 -20 -20 -20 -20 -20 -20 -7 -11 -7 -13 0 -13 -19
10 31 26 -0 -14 8 -14 -20 -20 -20 -20 -20 -20 -20 -20 -20 -20 -20 -20 -20 -20 -20 -16 -20 -20 -20 -20 -20 -20 -20 -20 -20 -20 -20 -20 -20 -20 -17 -20 -19 -13 -12 -20 -20
32 20 9 5 -4 -20 -20 -20 -19 -20 -20 -20 -20 -20 -20 -20 -20 -20 -20 -20 -17 -20 -20 -20 -20 -20 -20 -20 -20 -20 -20 -20 -20 -20 -20 -20 -20 -20 -20 -20 -20 -20 -20 -20
24 19 12 -14 -20 -20 -20 -20 -20 -20 -20 -20 -20 -20 -20 -20 -20 -20 -20 -20 -20 -20 -20 -20 -20 -20 -20 -20 -20 -20 -20 -20 -20 -1 -20 -20 -15 -20 -16 -17 -20 -20 -20 -20
17 8 -19 -20 -20 -20 -20 -20 1 4 -12 -20 -20 -20 -20 -20 -20 -20 -20 -20 -20 -20 -20 -20 -20 -20 -20 -20 -20 -20 -20 -20 -20 -20 -20 -6 6 6 -20 -20 -20 -20 -20 -20
15 -8 -20 -20 -20 -20 -20 13 10 -18 -20 -20 -20 -20 -20 -20 -20 -20 -20 -20 -20 -20 -20 -20 -20 -20 -20 -20 -20 -20 -20 -20 -20 -20 -20 -19 -19 -20 -20 -20 -20 -20 -20 -20

GFSNW_prec_radar_105.txt.gz
Reflectivity
22 31 35 36 33 17 5 -20 15 5 -20 -20 -20 -20 -20 -20 -20 -20 -20 -20 -20 -20 -12 3 -20 -20 -20 -20 -20 -20 -20 -20 -20 -20 -20 -20 -20 -20 -14 -16 -20 -20 -20 -20
27 38 40 28 30 12 4 -19 18 -16 -20 -20 -20 -20 -20 -20 -20 -20 -20 -20 -20 -20 -15 -6 -20 -20 -20 -20 -20 -20 -18 -20 -20 -20 -20 -20 -20 -20 -20 -20 -20 -20 -20 -20
34 14 35 30 20 -11 -20 -3 14 -20 -20 -20 -20 -20 -20 -20 -20 -20 -20 -20 -20 -20 -20 -20 -20 -20 -20 -16 -8 -6 -17 -11 -20 -20 -4 -20 -20 -20 -20 -20 -20 -20 -20 -20
34 22 25 29 6 -15 -20 19 -6 -20 -20 -20 -20 -20 -20 -20 -20 -20 -20 -20 -20 -20 -20 -20 -20 -20 -20 -20 -20 -19 -14 -20 -2 -20 -20 -20 -20 -20 -20 -20 -20 -20 -20 -20
36 39 36 15 3 -20 2 28 -6 -20 -20 -20 -20 -20 -20 -20 -20 -20 -20 -20 -20 -20 -20 -20 -20 -20 -20 -20 -20 -20 -20 -20 -20 -20 -20 -20 -20 -20 -20 -20 -20 -20 -20 -20
21 30 24 25 -0 -19 17 17 -12 -20 -20 -20 -20 -20 -20 -20 -20 -20 -20 -20 -20 -20 -20 -20 -20 -20 -20 -20 -13 -4 -20 -20 -20 -20 -20 -20 -20 -20 -20 -20 -20 -20 -20 -20
36 34 17 19 -17 -12 24 -12 -20 -20 -20 -20 -20 -20 -20 -20 -20 -20 -20 -20 -20 -20 -20 -20 -20 -20 -20 -20 -20 -20 -20 -20 -20 -20 -20 -20 -20 -20 -20 -20 -20 -20 -20 -20
38 35 26 19 5 6 11 3 -20 -20 -20 -20 -20 -20 -20 -20 -20 -20 -20 -20 -20 -20 -20 -20 -20 -20 -20 -20 -20 -20 -20 -20 -20 -20 -20 -20 -20 -20 14 -6 -20 -20 -20 -20
11 24 20 26 -4 21 -7 -20 -20 -20 -20 -20 -20 -20 -20 -20 -20 -20 -20 -20 -20 -20 -20 -20 -20 -20 -20 -20 -20 -20 -20 -20 -20 -20 -20 -20 -20 -20 -20 -17 -20 -20 -20 -20
-6 -6 13 -2 5 24 -18 -20 -20 -20 -20 -20 -20 -20 -20 -20 -20 -20 -20 -20 -20 -20 -20 -20 -20 -20 -20 -20 -20 -20 -20 -20 -20 -20 -20 -20 -20 -20 -20 -20 -20 -20 -20 -20
15 7 9 -2 22 -12 -20 -20 -20 -20 -20 -20 -20 -20 -20 -20 -20 -20 -20 -20 -20 -20 -20 -20 -20 -20 -20 -20 -20 -20 -20 -20 -20 -20 -20 -20 -20 -20 -20 -20 -20 14 -20 -20
22 11 2 17 20 28 -7 -20 -20 -20 -20 -20 -20 -20 -20 -20 -20 -20 -20 -20 -20 -20 -20 -20 -20 -20 -20 -20 -20 -20 -20 -20 -20 -20 -20 -20 -20 -20 -20 -20 -20 -20 -20 -20
27 16 14 3 1 12 11 -20 -20 -20 -20 -20 -20 -20 -20 -20 -20 -20 -20 -20 -20 -20 -20 -20 -20 -20 -20 -20 -20 -20 -20 -20 -20 -20 -20 -20 -20 -20 -20 -20 -20 -20 -20 -20
26 21 22 9 11 2 -20 -20 -18 -9 -20 -20 -20 -20 -20 -20 -20 -20 -20 -20 -20 -20 -20 -20 -20 -20 -20 -20 -20 -20 -20 -20 -20 -20 -20 -20 -20 -20 -20 -20 -20 -20 -20 -20
26 9 27 18 1 -17 -20 -20 -20 -20 -20 -20 -20 -20 -20 -20 -20 -20 -20 -20 -20 -20 -20 -20 -20 -20 -20 -20 -20 -20 -20 -20 -20 -20 -20 -20 -20 -20 -20 -20 -20 -20 -20 -20
23 23 30 25 -3 -18 -20 -20 -20 -20 -20 -20 -20 -20 -20 -20 -20 -20 -20 -20 -20 -20 -20 -20 -20 -20 -20 -20 -20 -20 -20 -20 -20 -20 -20 -20 -20 -20 -20 -20 -20 -20 -20 -20
27 28 28 17 6 -20 -20 -20 -20 -20 -20 -20 -20 -20 -20 -20 -20 -20 -20 -20 -20 -20 -20 -20 -20 -20 -20 -20 -20 -20 -20 -20 -20 -20 -20 -20 -20 -20 -20 -20 -20 -20 -20 -20
32 30 24 -16 -19 -20 -20 -20 -20 -20 -20 -20 -20 -17 -20 -20 -20 -20 -20 -20 -20 -20 -20 -20 -20 -20 -20 -20 -20 -20 -20 -20 -20 -20 -20 -20 -20 -20 -20 -20 -20 -20 -20 -20
29 28 25 -1 -19 -19 -20 -20 -20 -20 -20 -20 -20 -20 -20 -20 -20 -20 -20 -20 -20 -20 -20 -20 -20 -20 -20 -20 -20 -20 -20 -20 -20 -20 -20 -20 -20 -20 -20 -20 -20 -20 -20 -20
25 30 27 1 -19 -18 -20 -20 -20 -20 -20 -20 -20 -20 -20 -20 -20 -20 -20 -20 -20 -20 -20 -20 -20 -20 -20 -20 -20 -20 -20 -20 -20 -20 -20 -20 -20 -20 -20 -20 -20 -20 -7 9
23 21 14 -20 -20 -20 -20 -20 -20 -20 -20 -20 -20 -20 -20 -20 -20 -20 -20 -20 -20 -20 -20 -20 -20 -20 -20 -20 -20 -20 -20 -20 -20 -20 -20 -20 -20 -20 -3 12 -13 -20 -9 -0
-13 -15 -9 -20 -20 -20 -20 -20 -20 -20 -20 -20 -20 -20 -20 -20 -20 -20 -20 -20 -20 -20 -20 -20 -20 -20 -20 -20 -20 -20 -20 -20 -20 -20 -20 -20 -20 -20 -4 -4 20 -20 -6 -11
-1 14 11 -13 -3 -20 -20 -20 -20 -20 -20 -20 -20 -20 -20 -20 -20 -20 -20 -20 -20 -20 -17 -20 -20 -20 -20 -20 -20 -20 -20 -20 -20 -20 -20 -20 -20 -20 -12 -5 -13 -20 -20 -20
25 26 11 6 -14 -20 -20 -20 -20 -20 -20 -20 -20 -20 -20 -20 -20 -20 -20 -20 -20 -20 -20 -20 -20 -20 -20 -20 -20 -20 -20 -20 -20 -20 -20 -20 -20 -20 -19 -20 -20 -20 -20 -20
26 24 13 2 -20 -20 -20 -20 -20 -20 -20 -20 -20 -20 -20 -20 -20 -20 -20 -20 -20 -20 -20 -20 -20 -20 -20 -20 -20 -20 -20 -20 -20 -20 -20 -20 -19 -14 -10 -6 -20 -20 -20 -20
19 11 1 -20 -20 -20 -20 -20 -20 -20 -20 -20 -20 -20 -20 -20 -20 -20 -20 -20 -20 -20 -20 -20 -20 -20 -20 -20 -20 -20 -20 -20 -20 -20 -20 -20 -20 -11 -3 -20 -20 -20 -20 -20
17 12 -7 -1 -17 -20 -20 -20 -20 -20 -20 -20 -20 -20 -20 -20 -20 -20 -20 -20 -20 -20 -20 -20 -20 -20 -20 -20 -20 -20 -20 -20 -20 -20 -20 -20 -20 -20 -19 -14 -20 -20 -20 -20

GFSNW_prec_radar_108.txt.gz
Reflectivity
1 -18 -13 -3 24 33 28 9 10 11 4 -20 -20 -20 -20 -20 -20 -20 -20 -20 -20 -20 -20 -20 -20 -20 -20 -20 -20 -20 -20 -20 -20 -20 -20 -10 11 -15 -9 -20 -20 -20 -20 -20
-20 22 2 22 29 21 19 -7 19 5 6 -20 -20 -20 -20 -20 -20 -20 -20 -20 -20 -20 -20 -20 -20 -20 -20 -20 -20 -20 -20 -20 -20 -20 -20 -20 -20 -20 10 -20 -20 -20 -20 -20
-20 23 19 38 29 23 9 21 -1 20 5 -20 -20 -20 -20 -20 -20 -20 -20 -20 -20 -20 -11 -20 -20 -20 -20 -20 -20 5 -20 -7 -20 -19 -20 -20 -20 -20 -20 -20 -20 -20 -20 -20
19 26 13 -11 32 30 -8 7 3 6 -20 -20 -20 -20 -20 -20 -20 -20 -20 -20 -20 -20 -20 -20 -20 -20 -20 -20 -20 -8 -20 -17 -20 -20 -20 -20 -20 -20 -20 -20 -20 -20 -20 -20
28 28 25 6 13 15 19 -4 10 -9 -20 -20 -20 -20 -20 -20 -20 -20 -20 -20 -20 -20 -20 -20 -20 -20 -20 -20 -20 -20 -20 -20 -20 -20 -20 -20 -20 -20 -20 -20 -20 -20 -20 -20
17 21 38 32 32 19 -13 9 3 -20 -20 -20 -20 -20 -20 -20 -20 -20 -20 -20 -20 -20 -20 -20 -20 -20 -20 -20 -9 -7 -20 -20 -20 -20 -20 -20 -20 -20 -20 -20 -20 -20 -20 -20
16 13 7 34 23 1 -3 -6 -4 -20 -20 -20 -20 -20 -20 -20 -20 -20 -20 -20 -20 -20 -20 -20 -20 -20 -20 -20 -20 -20 -20 -20 -20 -20 -20 -20 -20 -20 -20 -20 -20 -20 -20 -20
33 24 11 27 18 10 9 -16 -20 -20 -20 -20 -20 -20 -20 -20 -20 -20 -20 -20 -20 -20 -20 -20 -20 -20 -20 -20 -20 -20 -20 -20 -20 -20 -20 -20 -20 -20 -20 -20 -20 -20 -20 -20
33 38 29 14 7 17 -13 -16 -20 -20 -20 -20 -20 -20 -20 -20 -20 -20 -20 -20 -20 -20 -20 -20 -20 -20 -20 -20 -20 -20 -20 -20 -20 -20 -20 -20 -20 -20 -20 -20 -19 -20 -20 -20
14 16 27 7 14 6 -20 -20 -20 -20 -20 -20 -20 -20 -20 -20 -20 -20 -20 -20 -20 -20 -20 -20 -20 -20 -20 -20 -20 -20 -20 -20 -20 -20 -20 -20 -20 -20 -20 -20 -20 -20 -20 -20
17 17 16 19 16 -20 -20 -20 -20 -20 -20 -20 -20 -20 -20 -20 -20 -20 -20 -20 -20 -20 -20 -20 -20 -20 -20 -20 -20 -20 -20 -20 -20 -20 -20 -20 -20 -20 -20 -20 -20 -20 -20 -20
24 23 11 14 17 -20 -20 -20 -20 -20 -20 -20 -20 -20 -20 -20 -20 -20 -20 -20 -20 -20 -20 -20 -20 -20 -20 -20 -20 -20 -20 -20 -20 -20 -20 -20 -20 -20 -20 -20 -20 -20 -20 -20
27 23 6 13 24 -19 -20 -20 -20 -20 -20 -20 -20 -20 -20 -20 -20 -20 -20 -20 -20 -20 -20 -20 -20 -20 -20 -20 -20 -20 -20 -20 -20 -20 -20 -20 -20 -20 -20 -20 -20 -20 -20 -20
23 16 9 16 9 -20 -20 -20 -20 -20 -20 -20 -20 -20 -20 -20 -20 -20 -20 -20 -20 -20 -20 -20 -20 -20 -20 -20 -20 -20 -20 -20 -20 -20 -20 -20 -20 -20 -20 -20 -20 -20 -20 -20
22 17 15 19 -9 -20 -20 -20 -20 -20 -20 -20 -20 -20 -20 -20 -20 -20 -20 -20 -20 -20 -20 -20 -20 -20 -20 -20 -20 -20 -20 -20 -20 -20 -20 -20 -20 -20 -20 -20 -20 -20 -20 -20
25 20 21 15 -6 -18 -19 -20 -20 -20 -20 -20 -20 -20 -20 -20 -20 -20 -20 -20 -20 -20 -20 -20 -20 -20 -20 -20 -20 -20 -20 -20 -20 -20 -20 -20 -20 -20 -20 -20 -20 -20 -20 -20
16 22 23 7 -15 -6 -19 -20 9 -20 -20 -20 -20 -20 -20 -20 -20 -20 -20 -20 -20 -20 -20 -20 -20 -20 -20 -20 -20 -20 -20 -20 -20 -20 -20 -20 -20 -20 -20 -20 -20 -20 -20 -20
29 28 12 8 -5 -20 -11 -20 -20 -20 -20 -20 -20 -11 -20 -20 -20 -20 -20 -20 -20 -20 -20 -20 -20 -20 -20 -20 -20 -20 -20 -20 -20 -20 -20 -20 -20 -20 -20 -20 -20 -20 -20 -20
32 30 22 6 -7 -9 -20 -20 -20 -20 -20 -20 -20 -20 -20 -20 -20 -20 -20 -20 -20 -20 -20 -20 -20 -20 -20 -20 -20 -20 -20 -20 -20 -20 -20 -20 -20 -20 -20 -20 -20 -20 -20 -20
34 31 27 11 -20 -20 -20 -20 -20 -20 -20 -20 -20 -20 -20 -20 -20 -20 -20 -20 -20 -20 -20 -20 -20 -20 -20 -20 -20 -20 -20 -20 -20 -20 -20 -20 -20 -20 -20 -4 2 -20 -20 -20
31 29 -3 -2 -20 -20 -20 -20 -20 -20 -20 -20 -20 -20 -20 -20 -20 -20 -20 -20 -20 -20 -20 -20 -20 -20 -20 -20 -20 -20 -20 -20 -20 -20 -20 -20 -20 -20 -19 -5 -7 -15 0 -18
4 -1 -2 9 9 -20 -20 -20 -20 -20 -20 -20 -20 -20 -20 -20 -20 -20 -20 -20 -20 -20 -20 -20 -20 -20 -20 -20 -20 -20 -20 -20 -20 -20 -20 -20 -20 -20 -20 -13 -20 -15 20 -4
23 24 23 -0 -20 -20 -20 -20 -20 -20 -20 -20 -20 -20 -20 -20 -20 -20 -20 -20 -20 -20 -20 -20 -20 -20 -20 -20 -20 -20 -20 -20 -20 -20 -20 -20 -20 -20 -20 -20 -20 -20 -19 -20
20 3 -11 -3 -6 -20 -20 -20 -18 -20 -20 -20 -20 -20 -20 -20 -20 -20 -20 -20 -20 -20 -20 -20 -20 -20 -20 -20 -20 -20 -20 -20 -20 -20 -20 -20 -20 -20 -20 -20 -20 -20 -20 -20
28 19 -3 -18 -20 -20 -20 -20 -20 -20 -20 -20 -20 -20 -20 -20 -20 -20 -20 -16 -20 -20 -20 -20 -20 -20 -20 -20 -20 -20 -20 -20 -20 -20 -20 -20 -20 -20 -20 -15 -8 -19 -20 -20
22 8 2 -18 -20 -20 -20 -20 -20 -20 -20 -20 -20 -20 -20 -20 -20 -20 -20 -20 -20 -20 -20 -20 -20 -20 -20 -20 -20 -20 -20 -20 -20 -20 -20 -20 -20 -20 -20 -16 -18 -20 -20 -20
18 10 -18 -20 -16 -14 -5 -20 -20 -20 -20 -20 -20 -20 -20 -20 -20 -20 -20 -20 -20 -20 -20 -20 -20 -20 -20 -20 -20 -20 -20 -20 -20 -20 -20 -20 -20 -20 -20 -20 -20 -20 -20 -20

GFSNW_prec_radar_111.txt.gz
Reflectivity
17 24 -20 -18 -0 39 28 24 16 19 16 15 -20 -20 -20 -20 -20 -20 -20 -20 -20 -20 -20 -20 -20 -20 -20 -20 -19 -20 -20 -20 -20 -20 -20 7 -3 -20 -20 -20 -20 -20 -20 10
13 15 -20 8 12 35 33 20 20 19 26 -11 -20 -20 -20 -20 -20 -20 -20 -20 -20 -20 -20 -20 -20 -20 -20 -20 -20 -5 -14 -20 -20 -20 -20 -20 -20 -20 -20 -20 -20 -20 -20 1
6 -13 -17 8 -15 24 10 5 11 31 23 -20 -20 -20 -20 -20 -20 -20 -20 -20 -20 -20 -20 -20 -20 -20 -20 -20 -20 -20 -10 -20 -20 -20 -20 -20 -20 -20 -20 -20 -20 -20 -20 -20
21 19 18 -19 11 25 6 -8 9 27 -2 -3 -20 -20 -20 -20 -20 -20 -20 -20 -20 -20 -20 -20 -20 -20 -20 -20 2 -20 -20 -19 -19 -20 -20 -20 -20 -20 -20 -20 -20 -20 -20 -20
20 24 23 27 30 30 16 14 19 -13 -20 -20 -20 -20 -20 -20 -20 -20 -20 -20 -20 -20 -20 -20 -20 -20 -20 -20 -20 -20 -20 -20 -20 -20 -20 -20 -20 -20 -20 -20 -20 -20 -20 -20
29 25 19 22 -4 22 23 10 3 -20 -20 -20 -20 -20 -20 -20 -20 -20 -20 -20 -20 -20 -20 -20 -20 -20 -20 -20 -20 -20 -20 -20 -20 -20 -20 -20 -20 -20 -20 -20 -20 -20 -20 -20
31 26 21 9 21 19 10 14 -20 -20 -20 -20 -20 -20 -20 -20 -20 -20 -20 -20 -20 -20 -20 -20 -20 -20 -20 -20 -20 -20 -20 -20 -20 -20 -20 -20 -20 -20 -20 -20 -20 -20 -20 -20
32 22 -16 11 20 24 11 -18 -20 -20 -20 -20 -20 -20 -20 -20 -20 -20 -20 -20 -20 -20 -20 -20 -20 -20 -20 -20 -20 -20 -20 -20 -20 -20 -20 -20 -20 -20 -20 -20 -20 -20 -20 -20
27 26 -15 18 15 1 5 -20 -20 -20 -20 -20 -20 -20 -20 -20 -20 -20 -20 -20 -20 -20 -20 -20 -20 -20 -20 -20 -20 -20 -20 -20 -20 -20 -20 -20 -20 -20 -20 -20 -20 -20 -20 -20
31 26 13 22 16 2 -19 -20 -20 -20 -20 -20 -20 -20 -20 -20 -20 -20 -20 -20 -20 -20 -20 -20 -20 -20 -20 -20 -20 -20 -20 -20 -20 -20 -20 -20 -20 -20 -20 -20 -20 -20 -20 -20
18 20 26 23 5 4 -20 -20 -20 -20 -20 -20 -20 -20 -20 -20 -20 -20 -20 -20 -20 -20 -20 -20 -20 -20 -20 -20 -20 -20 -20 -20 -20 -20 -20 -20 -20 -20 -20 -20 -20 -20 -20 -20
-18 10 10 12 21 10 -20 -20 -20 -20 -20 -20 -20 -20 -20 -20 -20 -20 -20 -20 -20 -20 -20 -20 -20 -20 -20 -20 -20 -20 -20 -20 -20 -20 -20 -20 -20 -20 -20 -20 -20 -20 -20 -20
13 19 1 12 14 -9 -20 -20 -20 -20 -20 -20 -20 -20 -20 -20 -20 -20 -20 -20 -20 -20 -20 -20 -20 -20 -20 -20 -20 -20 -20 -20 -20 -20 -20 -20 -20 -20 -20 -20 -20 -20 -20 -20
15 21 20 18 8 -20 -20 -20 -20 -20 -20 -20 -20 -20 -20 -20 -20 -20 -20 -20 -20 -20 -20 -20 -20 -20 -20 -20 -20 -20 -20 -20 -20 -20 -20 -20 -20 -20 -20 -20 -20 -20 -20 -20
1 19 11 6 11 -20 -20 -20 -20 -20 -20 -20 -20 -20 -20 -20 -20 -20 -20 -20 -20 -20 -20 -20 -20 -20 -20 -20 -20 -20 -20 -20 -20 -20 -20 -20 -20 -20 -20 -20 -20 -20 -20 -20
16 23 9 -5 -20 -20 -20 -20 -20 -20 -20 -20 -20 -20 -20 -20 -20 -20 -20 -20 -20 -20 -20 -20 -20 -20 -20 -20 -20 -20 -20 -20 -20 -20 -20 -20 -20 -20 -20 -20 -20 -20 -20 -20
15 17 7 -16 -20 -20 -20 -20 -20 -20 -20 -20 -20 -20 -20 -20 -20 -20 -20 -20 -20 -20 -20 -20 -20 -20 -20 -20 -20 -20 -20 -20 -20 -20 -20 -20 -20 -20 -20 -20 -20 -20 -20 -20
18 23 8 -20 -20 -19 -11 -4 -19 -20 -20 -20 -20 -11 -20 -20 -20 -20 -20 -20 -20 -20 -20 -20 -20 -20 -20 -20 -20 -20 -20 -20 -20 -20 -20 -20 -20 -20 -20 -20 -20 -20 -20 -20
20 10 -20 -18 -20 -20 3 -19 -15 -20 -20 -20 -20 -20 -20 -20 -20 -20 -20 -20 -20 -20 -20 -20 -20 -20 -20 -20 -20 -20 -20 -20 -20 -20 -20 -20 -20 -20 -20 -20 -20 -20 -20 -20
12 -5 -20 -5 -20 -1 3 -12 10 -20 -20 -20 -20 -20 -20 -20 -20 -20 -20 -20 -20 -20 -20 -20 -20 -20 -20 -20 -20 -20 -20 -20 -20 -20 -20 -20 -20 -20 -20 -20 -20 -20 -20 -20
25 20 7 -18 -20 -18 -17 -20 -20 -20 -20 -20 -20 -20 -20 -20 -20 -20 -20 -20 -20 -20 -20 -20 -20 -20 -20 -20 -20 -20 -20 -20 -20 -20 -20 -20 -20 -20 -20 -20 -20 -20 -19 -16
16 10 -3 -0 1 -17 -20 -20 -20 -20 -20 -20 -20 -20 -20 -20 -20 -20 -20 -20 -20 -20 -20 -20 -20 -20 -20 -20 -20 -20 -20 -20 -20 -20 -20 -20 -20 -20 -20 -20 -20 -20 -20 -17
24 21 18 15 -15 -18 -20 -20 -20 -5 -19 -20 -20 -20 -20 -20 -20 -20 -20 -20 -20 -20 -20 -20 -20 -20 -20 -20 -20 -20 -20 -20 -20 -20 -20 -20 -20 -20 -20 -20 -20 -20 -20 -20
19 17 -10 -17 -11 -20 -20 -20 7 3 -20 -20 -20 -20 -20 -20 -20 -20 -20 -20 -20 -20 -20 -20 -20 -20 -20 -20 -20 -20 -20 -20 -20 -20 -20 -20 -20 -20 -20 -20 -20 -20 -20 -20
23 -6 -20 -20 -20 -20 -20 -20 -17 -14 -20 -20 -20 -20 -20 -20 -20 -20 -20 -20 -20 -20 -20 -20 -20 -20 -20 -20 -20 -20 -20 -20 -20 -20 -20 -20 -20 -20 -20 -20 -20 -20 -20 -20
21 2 -16 -20 -20 -20 -20 -20 -20 -20 -20 -20 -20 -20 -20 -20 -20 -20 -20 -20 -20 -20 -20 -20 -20 -20 -20 -20 -20 -20 -20 -20 -20 -20 -20 -20 -20 -20 -20 -20 -20 -20 -20 -20
10 -8 -20 -20 -20 -20 -20 -20 -20 -20 -20 -20 -20 -20 -20 -20 -20 -20 -20 -20 -20 -20 -20 -20 -20 -20 -20 -20 -20 -20 -20 -20 -20 -20 -20 -20 -20 -20 -20 -20 -20 -20 -20 -20

GFSNW_prec_radar_114.txt.gz
Reflectivity
22 -1 -20 19 14 34 -6 25 28 13 17 3 -0 -20 -20 -20 -20 -20 -20 -20 -20 -20 -20 -20 -20 -20 -20 -20 -5 -20 -20 -20 -13 6 -1 -19 -20 -19 -19 -13 -20 -20 -18 15
24 -20 6 22 22 35 15 26 24 29 15 6 -20 -20 -20 -20 -20 -20 -20 -20 -20 -20 -20 -20 -20 -20 -20 -20 -3 -13 11 -18 -20 -20 8 -20 -20 -20 -20 -20 -20 -20 -7 14
22 -3 -20 18 20 29 27 23 25 29 23 -20 -20 -20 -20 -20 -20 -20 -20 -20 -20 -20 -20 -20 -20 -20 -20 -20 -20 -20 -20 -5 -20 -9 0 -18 -20 -20 -19 -20 -20 -20 -7 -17
21 -6 -20 -13 -16 -1 31 17 2 15 -8 -16 -20 -20 -20 -20 -20 -20 -20 -20 -20 -20 -20 -20 -20 -20 -20 -20 -20 -20 -20 -6 -20 -20 -20 -20 -20 -20 -20 -18 -20 -20 -20 -20
24 -3 -20 7 -20 -20 20 -13 11 -11 -20 -20 -20 -20 -20 -20 -20 -20 -20 -20 -20 -20 -20 -20 -20 -20 -20 -20 -20 -20 -20 -20 -20 -20 -20 -20 -20 -20 -20 -20 -20 -20 -20 -20
13 20 -12 9 -12 14 16 -3 11 -20 -20 -20 -20 -20 -20 -20 -20 -20 -20 -20 -20 -20 -20 -20 -20 -20 -20 -20 -20 -20 -20 -20 -20 -20 -20 -20 -15 -20 -20 -20 -20 -20 -20 -20
13 6 21 13 -5 18 -2 8 -10 -20 -20 -20 -20 -20 -20 -20 -20 -20 -20 -20 -20 -20 -20 -20 -20 -20 -20 -20 -20 -20 -20 -20 -20 -20 -20 -20 -20 -20 -20 -20 -20 -20 -20 -20
12 6 12 2 19 16 8 -12 -19 -20 -20 -20 -20 -20 -20 -20 -20 -20 -20 -20 -20 -20 -20 -20 -20 -20 -20 -20 -20 -20 -20 -20 -20 -20 -20 -20 -20 -20 -20 -20 -20 -20 -20 -20
14 9 10 -2 12 5 -14 -20 -20 -20 -20 -20 -20 -20 -20 -20 -20 -20 -20 -20 -20 -20 -20 -20 -20 -20 -20 -20 -20 -20 -20 -20 -20 -20 -20 -20 -20 -20 -20 -20 3 -20 -20 -20
20 -20 5 -15 -18 -20 -20 -20 -20 -20 -20 -20 -20 -20 -20 -20 -20 -20 -20 -20 -20 -20 -20 -20 -20 -20 -20 -20 -20 -20 -20 -20 -20 -20 -20 -20 -20 -20 -20 -20 -20 -20 -20 -20
34 -5 -19 -12 -18 -20 -20 -20 -20 -20 -20 -20 -20 -20 -20 -20 -20 -20 -20 -20 -20 -20 -20 -20 -20 -20 -20 -20 -20 -20 -20 -20 -20 -20 -20 -20 -20 -20 -20 -20 -20 -20 -20 -20
19 23 -12 -20 -10 -20 -20 -20 -20 -20 -20 -20 -20 -20 -20 -20 -20 -20 -20 -20 -20 -20 -20 -20 -20 -20 -20 -20 -20 -20 -20 -20 -20 -20 -20 -20 -20 -20 -20 -20 -20 -20 -20 -20
-15 9 -15 1 -18 -16 -20 -20 -20 -20 -20 -20 -20 -20 -20 -20 -20 -20 -20 -20 -20 -20 -20 -20 -20 -20 -20 -20 -20 -20 -20 -20 -20 -20 -20 -20 -20 -20 -20 -20 -20 -20 -20 -20
-20 8 4 -10 5 -2 -20 -20 -20 -20 -20 -20 -20 -20 -20 -20 -20 -20 -20 -20 -20 -20 -20 -20 -20 -20 -20 -20 -20 -20 -20 -20 -20 -20 -20 -20 -20 -20 -20 -20 -20 -20 -20 -20
14 13 -20 -20 6 -14 -20 -20 -20 -20 -20 -20 -20 -20 -20 -20 -20 -20 -20 -20 -20 -20 -20 -20 -20 -20 -20 -20 -20 -20 -20 -20 -20 -20 -20 -20 -20 -20 -20 -20 -20 -20 -20 -20
14 -19 -20 -20 -16 -20 -20 -20 -20 -20 -20 -20 -20 -20 -20 -20 -20 -20 -20 -20 -20 -20 -20 -20 -20 -20 -20 -20 -20 -20 -20 -20 -20 -20 -20 -20 -20 -20 -20 -20 -20 -20 -20 -20
-18 -20 -20 -20 -13 -20 -20 -20 -20 -20 -20 -20 -20 -20 -20 -20 -20 -20 -20 -20 -20 -20 -20 -20 -20 -20 -20 -20 -20 -20 -20 -20 -20 -20 -20 -20 -20 -20 -20 -20 -20 -20 -20 -20
-16 -20 -20 -20 -20 -20 -20 -20 -20 -20 -20 -20 -20 -18 -20 -20 -20 -20 -20 -20 -20 -20 -20 -20 -20 -20 -20 -20 -20 -20 -20 -20 -20 -20 -20 -20 -20 -20 -20 -20 -20 -20 -20 -20
-17 -20 -20 -20 -20 -20 -20 -20 -20 -20 -20 -20 -20 -20 -20 -20 -20 -20 -20 -20 -20 -20 -20 -20 -20 -20 -20 -20 -20 -20 -20 -20 -20 -20 -20 -20 -20 -20 -20 -20 -20 -20 -20 -20
17 -18 -20 -20 -20 -20 -20 -20 -20 -20 -20 -20 -20 -20 -20 -20 -20 -20 -20 -20 -20 -20 -20 -20 -20 -20 -20 -20 -20 -20 -20 -20 -20 -20 -20 -20 -20 -20 -20 -20 -20 -20 -20 -20
20 11 -13 -20 -20 -20 -20 -20 -20 -20 -20 -20 -20 -20 -20 -20 -20 -20 -20 -20 -20 -20 -20 -20 -20 -20 -20 -20 -20 -20 -20 -20 -20 -20 -20 -20 -20 -20 -20 -20 -20 -20 -20 -20
-20 -20 -5 -16 -20 -20 -18 -20 -20 -20 -20 -20 -20 -20 -20 -20 -20 -20 -20 -20 -20 -20 -20 -20 -20 -20 -20 -20 -20 -20 -20 -20 -20 -20 -20 -20 -20 -20 -20 -20 -20 -20 -20 -20
-7 -2 -5 -20 -11 -20 -20 -20 -20 -20 -20 -20 -20 -20 -20 -20 -20 -20 -20 -20 -20 -20 -20 -20 -20 -20 -20 -20 -20 -20 -20 -20 -20 -20 -20 -20 -20 -20 -20 -20 -20 -20 -20 -20
19 18 -7 -20 -20 -20 -20 -20 -9 11 5 -12 -20 -20 -20 -20 -20 -20 -20 -20 -20 -20 -20 -20 -20 -20 -20 -20 -20 -20 -20 -20 -20 -20 -20 -20 -20 -20 -20 -20 -20 -20 -20 -20
14 -2 -19 -20 -20 -20 -20 -20 4 10 -19 -20 -20 -20 -20 -20 -20 -20 -20 -20 -20 -20 -20 -20 -20 -20 -20 -20 -20 -20 -20 -20 -20 -20 -20 -20 -20 -20 -20 -20 -20 -20 -20 -20
31 4 -19 -20 -20 -20 -20 -14 3 13 0 -20 -20 -20 -20 -20 -20 -20 -20 -20 -20 -20 -20 -20 -20 -20 -20 -20 -20 -20 -20 -20 -20 -20 -20 -20 -20 -20 -20 -20 -20 -20 -20 -20
19 -12 -20 -20 -20 -15 -8 -19 -18 -19 -14 -20 -20 -20 -20 -20 -20 -20 -20 -20 -20 -20 -20 -20 -20 -20 -20 -20 -20 -20 -20 -20 -20 -20 -20 -20 -20 -20 -20 -20 -20 -20 -20 -20